<?xml version="1.0" encoding="UTF-8" standalone="no" ?>
<gpx xmlns="http://www.topografix.com/GPX/1/1" xmlns:xsi="http://www.w3.org/2001/XMLSchema-instance" xsi:schemaLocation="http://www.topografix.com/GPX/1/1 http://www.topografix.com/GPX/1/1/gpx.xsd" version="1.1" creator="VisuGPX - https://www.visugpx.com">
  <metadata>
    <name>83-Me-Aups</name>
    <desc><![CDATA[83-Me-Aups : Aigle des Cugulons
2024-03-13]]></desc>
  </metadata>
  <trk>
    <name><![CDATA[2024-03-13-Me-Aups]]></name>
    <extensions>
      <line xmlns="http://www.topografix.com/GPX/gpx_style/0/2">
        <width>4</width>
      </line>
    </extensions>
    <trkseg>
      <trkpt lat="43.67362" lon="6.1604">
        <ele>624.3</ele>
        <time>2024-03-13T13:10:43.000Z</time>
      </trkpt>
      <trkpt lat="43.67362" lon="6.1604">
        <ele>624.3</ele>
        <time>2024-03-13T13:10:44.000Z</time>
      </trkpt>
      <trkpt lat="43.67364" lon="6.16034">
        <ele>625.2</ele>
        <time>2024-03-13T13:13:02.000Z</time>
      </trkpt>
      <trkpt lat="43.67366" lon="6.16029">
        <ele>625.3</ele>
        <time>2024-03-13T13:13:27.000Z</time>
      </trkpt>
      <trkpt lat="43.67371" lon="6.16027">
        <ele>625.3</ele>
        <time>2024-03-13T13:13:52.000Z</time>
      </trkpt>
      <trkpt lat="43.67374" lon="6.16031">
        <ele>624.7</ele>
        <time>2024-03-13T13:14:19.000Z</time>
      </trkpt>
      <trkpt lat="43.67371" lon="6.16027">
        <ele>625.3</ele>
        <time>2024-03-13T13:14:55.000Z</time>
      </trkpt>
      <trkpt lat="43.67366" lon="6.16028">
        <ele>624.8</ele>
        <time>2024-03-13T13:16:16.000Z</time>
      </trkpt>
      <trkpt lat="43.67371" lon="6.16029">
        <ele>625.9</ele>
        <time>2024-03-13T13:17:46.000Z</time>
      </trkpt>
      <trkpt lat="43.67374" lon="6.16034">
        <ele>626</ele>
        <time>2024-03-13T13:18:10.000Z</time>
      </trkpt>
      <trkpt lat="43.67376" lon="6.1604">
        <ele>626</ele>
        <time>2024-03-13T13:18:32.000Z</time>
      </trkpt>
      <trkpt lat="43.6738" lon="6.16044">
        <ele>626.2</ele>
        <time>2024-03-13T13:18:38.000Z</time>
      </trkpt>
      <trkpt lat="43.67383" lon="6.16049">
        <ele>626</ele>
        <time>2024-03-13T13:18:44.000Z</time>
      </trkpt>
      <trkpt lat="43.67387" lon="6.16054">
        <ele>625.7</ele>
        <time>2024-03-13T13:18:49.000Z</time>
      </trkpt>
      <trkpt lat="43.6739" lon="6.16059">
        <ele>625.6</ele>
        <time>2024-03-13T13:18:54.000Z</time>
      </trkpt>
      <trkpt lat="43.67393" lon="6.16065">
        <ele>626</ele>
        <time>2024-03-13T13:19:00.000Z</time>
      </trkpt>
      <trkpt lat="43.67395" lon="6.1607">
        <ele>626.3</ele>
        <time>2024-03-13T13:19:05.000Z</time>
      </trkpt>
      <trkpt lat="43.67398" lon="6.16076">
        <ele>626.5</ele>
        <time>2024-03-13T13:19:09.000Z</time>
      </trkpt>
      <trkpt lat="43.674" lon="6.16082">
        <ele>626.8</ele>
        <time>2024-03-13T13:19:14.000Z</time>
      </trkpt>
      <trkpt lat="43.67402" lon="6.16087">
        <ele>627</ele>
        <time>2024-03-13T13:19:18.000Z</time>
      </trkpt>
      <trkpt lat="43.67404" lon="6.16093">
        <ele>627.5</ele>
        <time>2024-03-13T13:19:23.000Z</time>
      </trkpt>
      <trkpt lat="43.67407" lon="6.161">
        <ele>627.9</ele>
        <time>2024-03-13T13:19:28.000Z</time>
      </trkpt>
      <trkpt lat="43.6741" lon="6.16106">
        <ele>628.3</ele>
        <time>2024-03-13T13:19:33.000Z</time>
      </trkpt>
      <trkpt lat="43.67413" lon="6.16113">
        <ele>628.6</ele>
        <time>2024-03-13T13:19:38.000Z</time>
      </trkpt>
      <trkpt lat="43.67416" lon="6.16118">
        <ele>628.9</ele>
        <time>2024-03-13T13:19:42.000Z</time>
      </trkpt>
      <trkpt lat="43.67419" lon="6.16123">
        <ele>629.2</ele>
        <time>2024-03-13T13:19:46.000Z</time>
      </trkpt>
      <trkpt lat="43.67422" lon="6.1613">
        <ele>629.5</ele>
        <time>2024-03-13T13:19:51.000Z</time>
      </trkpt>
      <trkpt lat="43.67425" lon="6.16136">
        <ele>629.4</ele>
        <time>2024-03-13T13:19:55.000Z</time>
      </trkpt>
      <trkpt lat="43.67426" lon="6.16142">
        <ele>629.2</ele>
        <time>2024-03-13T13:19:59.000Z</time>
      </trkpt>
      <trkpt lat="43.67428" lon="6.16149">
        <ele>629.6</ele>
        <time>2024-03-13T13:20:04.000Z</time>
      </trkpt>
      <trkpt lat="43.67428" lon="6.16155">
        <ele>630</ele>
        <time>2024-03-13T13:20:08.000Z</time>
      </trkpt>
      <trkpt lat="43.67431" lon="6.16161">
        <ele>630.1</ele>
        <time>2024-03-13T13:20:13.000Z</time>
      </trkpt>
      <trkpt lat="43.67434" lon="6.16166">
        <ele>629.9</ele>
        <time>2024-03-13T13:20:17.000Z</time>
      </trkpt>
      <trkpt lat="43.67437" lon="6.16172">
        <ele>629.9</ele>
        <time>2024-03-13T13:20:22.000Z</time>
      </trkpt>
      <trkpt lat="43.6744" lon="6.16178">
        <ele>629.9</ele>
        <time>2024-03-13T13:20:27.000Z</time>
      </trkpt>
      <trkpt lat="43.67444" lon="6.16184">
        <ele>630.1</ele>
        <time>2024-03-13T13:20:32.000Z</time>
      </trkpt>
      <trkpt lat="43.67447" lon="6.1619">
        <ele>630.2</ele>
        <time>2024-03-13T13:20:37.000Z</time>
      </trkpt>
      <trkpt lat="43.6745" lon="6.16196">
        <ele>630.2</ele>
        <time>2024-03-13T13:20:42.000Z</time>
      </trkpt>
      <trkpt lat="43.67453" lon="6.16203">
        <ele>630.1</ele>
        <time>2024-03-13T13:20:47.000Z</time>
      </trkpt>
      <trkpt lat="43.67456" lon="6.16209">
        <ele>630.6</ele>
        <time>2024-03-13T13:20:52.000Z</time>
      </trkpt>
      <trkpt lat="43.67457" lon="6.16215">
        <ele>630.6</ele>
        <time>2024-03-13T13:20:56.000Z</time>
      </trkpt>
      <trkpt lat="43.67459" lon="6.16222">
        <ele>630.8</ele>
        <time>2024-03-13T13:21:00.000Z</time>
      </trkpt>
      <trkpt lat="43.6746" lon="6.16229">
        <ele>631</ele>
        <time>2024-03-13T13:21:04.000Z</time>
      </trkpt>
      <trkpt lat="43.67461" lon="6.16236">
        <ele>631.1</ele>
        <time>2024-03-13T13:21:08.000Z</time>
      </trkpt>
      <trkpt lat="43.67463" lon="6.16242">
        <ele>631.2</ele>
        <time>2024-03-13T13:21:12.000Z</time>
      </trkpt>
      <trkpt lat="43.67465" lon="6.16248">
        <ele>631.3</ele>
        <time>2024-03-13T13:21:16.000Z</time>
      </trkpt>
      <trkpt lat="43.67467" lon="6.16255">
        <ele>631.3</ele>
        <time>2024-03-13T13:21:20.000Z</time>
      </trkpt>
      <trkpt lat="43.67469" lon="6.16261">
        <ele>631.3</ele>
        <time>2024-03-13T13:21:24.000Z</time>
      </trkpt>
      <trkpt lat="43.67471" lon="6.16266">
        <ele>631.4</ele>
        <time>2024-03-13T13:21:28.000Z</time>
      </trkpt>
      <trkpt lat="43.67474" lon="6.16272">
        <ele>631.5</ele>
        <time>2024-03-13T13:21:33.000Z</time>
      </trkpt>
      <trkpt lat="43.67478" lon="6.16278">
        <ele>631.4</ele>
        <time>2024-03-13T13:21:38.000Z</time>
      </trkpt>
      <trkpt lat="43.67481" lon="6.16283">
        <ele>631.3</ele>
        <time>2024-03-13T13:21:42.000Z</time>
      </trkpt>
      <trkpt lat="43.67484" lon="6.16289">
        <ele>631.4</ele>
        <time>2024-03-13T13:21:47.000Z</time>
      </trkpt>
      <trkpt lat="43.67487" lon="6.16296">
        <ele>631.3</ele>
        <time>2024-03-13T13:21:52.000Z</time>
      </trkpt>
      <trkpt lat="43.67489" lon="6.16301">
        <ele>631.2</ele>
        <time>2024-03-13T13:21:56.000Z</time>
      </trkpt>
      <trkpt lat="43.67492" lon="6.16307">
        <ele>631.2</ele>
        <time>2024-03-13T13:22:00.000Z</time>
      </trkpt>
      <trkpt lat="43.67495" lon="6.16312">
        <ele>631.3</ele>
        <time>2024-03-13T13:22:04.000Z</time>
      </trkpt>
      <trkpt lat="43.67498" lon="6.16318">
        <ele>631.5</ele>
        <time>2024-03-13T13:22:09.000Z</time>
      </trkpt>
      <trkpt lat="43.67502" lon="6.16322">
        <ele>631.5</ele>
        <time>2024-03-13T13:22:14.000Z</time>
      </trkpt>
      <trkpt lat="43.67507" lon="6.16325">
        <ele>631.8</ele>
        <time>2024-03-13T13:22:19.000Z</time>
      </trkpt>
      <trkpt lat="43.67512" lon="6.16327">
        <ele>631.9</ele>
        <time>2024-03-13T13:22:23.000Z</time>
      </trkpt>
      <trkpt lat="43.67516" lon="6.1633">
        <ele>632.1</ele>
        <time>2024-03-13T13:22:29.000Z</time>
      </trkpt>
      <trkpt lat="43.6752" lon="6.16334">
        <ele>632.4</ele>
        <time>2024-03-13T13:22:34.000Z</time>
      </trkpt>
      <trkpt lat="43.67524" lon="6.16337">
        <ele>632.6</ele>
        <time>2024-03-13T13:22:39.000Z</time>
      </trkpt>
      <trkpt lat="43.67529" lon="6.16341">
        <ele>632.8</ele>
        <time>2024-03-13T13:22:44.000Z</time>
      </trkpt>
      <trkpt lat="43.67533" lon="6.16343">
        <ele>632.6</ele>
        <time>2024-03-13T13:22:48.000Z</time>
      </trkpt>
      <trkpt lat="43.67538" lon="6.16344">
        <ele>632.5</ele>
        <time>2024-03-13T13:22:52.000Z</time>
      </trkpt>
      <trkpt lat="43.67543" lon="6.16346">
        <ele>632.7</ele>
        <time>2024-03-13T13:22:56.000Z</time>
      </trkpt>
      <trkpt lat="43.67547" lon="6.16348">
        <ele>632.9</ele>
        <time>2024-03-13T13:23:00.000Z</time>
      </trkpt>
      <trkpt lat="43.67552" lon="6.1635">
        <ele>632.8</ele>
        <time>2024-03-13T13:23:04.000Z</time>
      </trkpt>
      <trkpt lat="43.67556" lon="6.16353">
        <ele>632.8</ele>
        <time>2024-03-13T13:23:08.000Z</time>
      </trkpt>
      <trkpt lat="43.67561" lon="6.16356">
        <ele>633</ele>
        <time>2024-03-13T13:23:12.000Z</time>
      </trkpt>
      <trkpt lat="43.67565" lon="6.16358">
        <ele>633.1</ele>
        <time>2024-03-13T13:23:16.000Z</time>
      </trkpt>
      <trkpt lat="43.6757" lon="6.16362">
        <ele>633.3</ele>
        <time>2024-03-13T13:23:21.000Z</time>
      </trkpt>
      <trkpt lat="43.67574" lon="6.16367">
        <ele>633.4</ele>
        <time>2024-03-13T13:23:26.000Z</time>
      </trkpt>
      <trkpt lat="43.67579" lon="6.16368">
        <ele>633.6</ele>
        <time>2024-03-13T13:23:30.000Z</time>
      </trkpt>
      <trkpt lat="43.67583" lon="6.16371">
        <ele>633.8</ele>
        <time>2024-03-13T13:23:34.000Z</time>
      </trkpt>
      <trkpt lat="43.67587" lon="6.16374">
        <ele>633.9</ele>
        <time>2024-03-13T13:23:38.000Z</time>
      </trkpt>
      <trkpt lat="43.67592" lon="6.16377">
        <ele>633.9</ele>
        <time>2024-03-13T13:23:42.000Z</time>
      </trkpt>
      <trkpt lat="43.67597" lon="6.1638">
        <ele>634.2</ele>
        <time>2024-03-13T13:23:46.000Z</time>
      </trkpt>
      <trkpt lat="43.67602" lon="6.16385">
        <ele>634.3</ele>
        <time>2024-03-13T13:23:50.000Z</time>
      </trkpt>
      <trkpt lat="43.67604" lon="6.16391">
        <ele>634.6</ele>
        <time>2024-03-13T13:23:55.000Z</time>
      </trkpt>
      <trkpt lat="43.67607" lon="6.16396">
        <ele>634.2</ele>
        <time>2024-03-13T13:24:17.000Z</time>
      </trkpt>
      <trkpt lat="43.67607" lon="6.16403">
        <ele>634.1</ele>
        <time>2024-03-13T13:24:22.000Z</time>
      </trkpt>
      <trkpt lat="43.67605" lon="6.1641">
        <ele>634.3</ele>
        <time>2024-03-13T13:24:27.000Z</time>
      </trkpt>
      <trkpt lat="43.67606" lon="6.16417">
        <ele>634.6</ele>
        <time>2024-03-13T13:24:31.000Z</time>
      </trkpt>
      <trkpt lat="43.67605" lon="6.16424">
        <ele>634.8</ele>
        <time>2024-03-13T13:24:35.000Z</time>
      </trkpt>
      <trkpt lat="43.67605" lon="6.1643">
        <ele>635.1</ele>
        <time>2024-03-13T13:24:39.000Z</time>
      </trkpt>
      <trkpt lat="43.67605" lon="6.16437">
        <ele>635.4</ele>
        <time>2024-03-13T13:24:43.000Z</time>
      </trkpt>
      <trkpt lat="43.67604" lon="6.16443">
        <ele>635.5</ele>
        <time>2024-03-13T13:24:47.000Z</time>
      </trkpt>
      <trkpt lat="43.67604" lon="6.16451">
        <ele>635.5</ele>
        <time>2024-03-13T13:24:51.000Z</time>
      </trkpt>
      <trkpt lat="43.67603" lon="6.16458">
        <ele>635.5</ele>
        <time>2024-03-13T13:24:55.000Z</time>
      </trkpt>
      <trkpt lat="43.67602" lon="6.16465">
        <ele>635.7</ele>
        <time>2024-03-13T13:24:59.000Z</time>
      </trkpt>
      <trkpt lat="43.67602" lon="6.16472">
        <ele>635.9</ele>
        <time>2024-03-13T13:25:03.000Z</time>
      </trkpt>
      <trkpt lat="43.67601" lon="6.1648">
        <ele>636.5</ele>
        <time>2024-03-13T13:25:07.000Z</time>
      </trkpt>
      <trkpt lat="43.67601" lon="6.16488">
        <ele>636.7</ele>
        <time>2024-03-13T13:25:12.000Z</time>
      </trkpt>
      <trkpt lat="43.676" lon="6.16494">
        <ele>636.9</ele>
        <time>2024-03-13T13:25:16.000Z</time>
      </trkpt>
      <trkpt lat="43.676" lon="6.16501">
        <ele>637.4</ele>
        <time>2024-03-13T13:25:21.000Z</time>
      </trkpt>
      <trkpt lat="43.67601" lon="6.16508">
        <ele>637.6</ele>
        <time>2024-03-13T13:25:25.000Z</time>
      </trkpt>
      <trkpt lat="43.67603" lon="6.16514">
        <ele>637.8</ele>
        <time>2024-03-13T13:25:28.000Z</time>
      </trkpt>
      <trkpt lat="43.67605" lon="6.1652">
        <ele>638.1</ele>
        <time>2024-03-13T13:25:32.000Z</time>
      </trkpt>
      <trkpt lat="43.67607" lon="6.16525">
        <ele>638.5</ele>
        <time>2024-03-13T13:25:36.000Z</time>
      </trkpt>
      <trkpt lat="43.6761" lon="6.1653">
        <ele>638.8</ele>
        <time>2024-03-13T13:25:40.000Z</time>
      </trkpt>
      <trkpt lat="43.67613" lon="6.16536">
        <ele>639.1</ele>
        <time>2024-03-13T13:25:44.000Z</time>
      </trkpt>
      <trkpt lat="43.67617" lon="6.16541">
        <ele>639.3</ele>
        <time>2024-03-13T13:25:48.000Z</time>
      </trkpt>
      <trkpt lat="43.67619" lon="6.16548">
        <ele>639.5</ele>
        <time>2024-03-13T13:25:52.000Z</time>
      </trkpt>
      <trkpt lat="43.67622" lon="6.16554">
        <ele>639.6</ele>
        <time>2024-03-13T13:25:56.000Z</time>
      </trkpt>
      <trkpt lat="43.67625" lon="6.16559">
        <ele>640</ele>
        <time>2024-03-13T13:26:00.000Z</time>
      </trkpt>
      <trkpt lat="43.67628" lon="6.16566">
        <ele>640.3</ele>
        <time>2024-03-13T13:26:04.000Z</time>
      </trkpt>
      <trkpt lat="43.6763" lon="6.16572">
        <ele>640.5</ele>
        <time>2024-03-13T13:26:08.000Z</time>
      </trkpt>
      <trkpt lat="43.67632" lon="6.16578">
        <ele>640.6</ele>
        <time>2024-03-13T13:26:12.000Z</time>
      </trkpt>
      <trkpt lat="43.67633" lon="6.16584">
        <ele>641</ele>
        <time>2024-03-13T13:26:16.000Z</time>
      </trkpt>
      <trkpt lat="43.67634" lon="6.1659">
        <ele>641.5</ele>
        <time>2024-03-13T13:26:20.000Z</time>
      </trkpt>
      <trkpt lat="43.67635" lon="6.16596">
        <ele>641.5</ele>
        <time>2024-03-13T13:26:24.000Z</time>
      </trkpt>
      <trkpt lat="43.67638" lon="6.16602">
        <ele>641.6</ele>
        <time>2024-03-13T13:26:29.000Z</time>
      </trkpt>
      <trkpt lat="43.67641" lon="6.16608">
        <ele>641.7</ele>
        <time>2024-03-13T13:26:34.000Z</time>
      </trkpt>
      <trkpt lat="43.67645" lon="6.16611">
        <ele>641.8</ele>
        <time>2024-03-13T13:26:37.000Z</time>
      </trkpt>
      <trkpt lat="43.67649" lon="6.16614">
        <ele>641.9</ele>
        <time>2024-03-13T13:26:41.000Z</time>
      </trkpt>
      <trkpt lat="43.67654" lon="6.16618">
        <ele>642.2</ele>
        <time>2024-03-13T13:26:45.000Z</time>
      </trkpt>
      <trkpt lat="43.67658" lon="6.16623">
        <ele>642.9</ele>
        <time>2024-03-13T13:26:49.000Z</time>
      </trkpt>
      <trkpt lat="43.67662" lon="6.16629">
        <ele>643.3</ele>
        <time>2024-03-13T13:26:53.000Z</time>
      </trkpt>
      <trkpt lat="43.67666" lon="6.16634">
        <ele>643.9</ele>
        <time>2024-03-13T13:26:57.000Z</time>
      </trkpt>
      <trkpt lat="43.6767" lon="6.16639">
        <ele>644.3</ele>
        <time>2024-03-13T13:27:02.000Z</time>
      </trkpt>
      <trkpt lat="43.67674" lon="6.16643">
        <ele>644.5</ele>
        <time>2024-03-13T13:27:05.000Z</time>
      </trkpt>
      <trkpt lat="43.67678" lon="6.16649">
        <ele>644.6</ele>
        <time>2024-03-13T13:27:09.000Z</time>
      </trkpt>
      <trkpt lat="43.67681" lon="6.16655">
        <ele>644.9</ele>
        <time>2024-03-13T13:27:13.000Z</time>
      </trkpt>
      <trkpt lat="43.67683" lon="6.16662">
        <ele>645.3</ele>
        <time>2024-03-13T13:27:17.000Z</time>
      </trkpt>
      <trkpt lat="43.67685" lon="6.16668">
        <ele>645.5</ele>
        <time>2024-03-13T13:27:21.000Z</time>
      </trkpt>
      <trkpt lat="43.67689" lon="6.16672">
        <ele>645.8</ele>
        <time>2024-03-13T13:27:25.000Z</time>
      </trkpt>
      <trkpt lat="43.67693" lon="6.16676">
        <ele>645.9</ele>
        <time>2024-03-13T13:27:29.000Z</time>
      </trkpt>
      <trkpt lat="43.67697" lon="6.16678">
        <ele>646.1</ele>
        <time>2024-03-13T13:27:33.000Z</time>
      </trkpt>
      <trkpt lat="43.67702" lon="6.1668">
        <ele>646.4</ele>
        <time>2024-03-13T13:27:37.000Z</time>
      </trkpt>
      <trkpt lat="43.67706" lon="6.16685">
        <ele>646.8</ele>
        <time>2024-03-13T13:27:41.000Z</time>
      </trkpt>
      <trkpt lat="43.67708" lon="6.1669">
        <ele>647</ele>
        <time>2024-03-13T13:27:45.000Z</time>
      </trkpt>
      <trkpt lat="43.67711" lon="6.16697">
        <ele>647.6</ele>
        <time>2024-03-13T13:27:51.000Z</time>
      </trkpt>
      <trkpt lat="43.67713" lon="6.16703">
        <ele>648.1</ele>
        <time>2024-03-13T13:27:57.000Z</time>
      </trkpt>
      <trkpt lat="43.67715" lon="6.1671">
        <ele>648.5</ele>
        <time>2024-03-13T13:28:01.000Z</time>
      </trkpt>
      <trkpt lat="43.67716" lon="6.16716">
        <ele>648.8</ele>
        <time>2024-03-13T13:28:04.000Z</time>
      </trkpt>
      <trkpt lat="43.67718" lon="6.16723">
        <ele>649.2</ele>
        <time>2024-03-13T13:28:08.000Z</time>
      </trkpt>
      <trkpt lat="43.6772" lon="6.1673">
        <ele>649.6</ele>
        <time>2024-03-13T13:28:14.000Z</time>
      </trkpt>
      <trkpt lat="43.67723" lon="6.16735">
        <ele>650</ele>
        <time>2024-03-13T13:28:18.000Z</time>
      </trkpt>
      <trkpt lat="43.67727" lon="6.1674">
        <ele>650.4</ele>
        <time>2024-03-13T13:28:23.000Z</time>
      </trkpt>
      <trkpt lat="43.67732" lon="6.16744">
        <ele>650.8</ele>
        <time>2024-03-13T13:28:27.000Z</time>
      </trkpt>
      <trkpt lat="43.67736" lon="6.16746">
        <ele>650.9</ele>
        <time>2024-03-13T13:28:31.000Z</time>
      </trkpt>
      <trkpt lat="43.67741" lon="6.16749">
        <ele>651</ele>
        <time>2024-03-13T13:28:35.000Z</time>
      </trkpt>
      <trkpt lat="43.67746" lon="6.16754">
        <ele>651.6</ele>
        <time>2024-03-13T13:28:40.000Z</time>
      </trkpt>
      <trkpt lat="43.67749" lon="6.1676">
        <ele>651.9</ele>
        <time>2024-03-13T13:28:45.000Z</time>
      </trkpt>
      <trkpt lat="43.67752" lon="6.16766">
        <ele>652.1</ele>
        <time>2024-03-13T13:28:49.000Z</time>
      </trkpt>
      <trkpt lat="43.67754" lon="6.16772">
        <ele>652.4</ele>
        <time>2024-03-13T13:28:53.000Z</time>
      </trkpt>
      <trkpt lat="43.67757" lon="6.16778">
        <ele>652.8</ele>
        <time>2024-03-13T13:28:58.000Z</time>
      </trkpt>
      <trkpt lat="43.67759" lon="6.16783">
        <ele>653.1</ele>
        <time>2024-03-13T13:29:01.000Z</time>
      </trkpt>
      <trkpt lat="43.67761" lon="6.16789">
        <ele>653.5</ele>
        <time>2024-03-13T13:29:06.000Z</time>
      </trkpt>
      <trkpt lat="43.67762" lon="6.16795">
        <ele>654</ele>
        <time>2024-03-13T13:29:12.000Z</time>
      </trkpt>
      <trkpt lat="43.67763" lon="6.16802">
        <ele>654.3</ele>
        <time>2024-03-13T13:29:16.000Z</time>
      </trkpt>
      <trkpt lat="43.67764" lon="6.16809">
        <ele>654.6</ele>
        <time>2024-03-13T13:29:19.000Z</time>
      </trkpt>
      <trkpt lat="43.67763" lon="6.16815">
        <ele>655</ele>
        <time>2024-03-13T13:29:23.000Z</time>
      </trkpt>
      <trkpt lat="43.67765" lon="6.16821">
        <ele>655.2</ele>
        <time>2024-03-13T13:29:26.000Z</time>
      </trkpt>
      <trkpt lat="43.67767" lon="6.16829">
        <ele>655.4</ele>
        <time>2024-03-13T13:29:30.000Z</time>
      </trkpt>
      <trkpt lat="43.67769" lon="6.16835">
        <ele>655.6</ele>
        <time>2024-03-13T13:29:35.000Z</time>
      </trkpt>
      <trkpt lat="43.67773" lon="6.16841">
        <ele>655.8</ele>
        <time>2024-03-13T13:29:40.000Z</time>
      </trkpt>
      <trkpt lat="43.67777" lon="6.16845">
        <ele>655.9</ele>
        <time>2024-03-13T13:29:44.000Z</time>
      </trkpt>
      <trkpt lat="43.6778" lon="6.16851">
        <ele>655.9</ele>
        <time>2024-03-13T13:29:47.000Z</time>
      </trkpt>
      <trkpt lat="43.67782" lon="6.16858">
        <ele>656</ele>
        <time>2024-03-13T13:29:51.000Z</time>
      </trkpt>
      <trkpt lat="43.67786" lon="6.16864">
        <ele>656.1</ele>
        <time>2024-03-13T13:29:55.000Z</time>
      </trkpt>
      <trkpt lat="43.67788" lon="6.1687">
        <ele>656.3</ele>
        <time>2024-03-13T13:29:59.000Z</time>
      </trkpt>
      <trkpt lat="43.67792" lon="6.16876">
        <ele>656.5</ele>
        <time>2024-03-13T13:30:05.000Z</time>
      </trkpt>
      <trkpt lat="43.67794" lon="6.16882">
        <ele>656.7</ele>
        <time>2024-03-13T13:30:09.000Z</time>
      </trkpt>
      <trkpt lat="43.67796" lon="6.16888">
        <ele>656.9</ele>
        <time>2024-03-13T13:30:13.000Z</time>
      </trkpt>
      <trkpt lat="43.67798" lon="6.16894">
        <ele>657.1</ele>
        <time>2024-03-13T13:30:17.000Z</time>
      </trkpt>
      <trkpt lat="43.678" lon="6.169">
        <ele>657.2</ele>
        <time>2024-03-13T13:30:22.000Z</time>
      </trkpt>
      <trkpt lat="43.67804" lon="6.16905">
        <ele>657.1</ele>
        <time>2024-03-13T13:30:28.000Z</time>
      </trkpt>
      <trkpt lat="43.67808" lon="6.16909">
        <ele>657.1</ele>
        <time>2024-03-13T13:30:32.000Z</time>
      </trkpt>
      <trkpt lat="43.67811" lon="6.16913">
        <ele>657.4</ele>
        <time>2024-03-13T13:30:42.000Z</time>
      </trkpt>
      <trkpt lat="43.67811" lon="6.1692">
        <ele>658.5</ele>
        <time>2024-03-13T13:31:15.000Z</time>
      </trkpt>
      <trkpt lat="43.67814" lon="6.16915">
        <ele>658</ele>
        <time>2024-03-13T13:32:25.000Z</time>
      </trkpt>
      <trkpt lat="43.67813" lon="6.16921">
        <ele>658.5</ele>
        <time>2024-03-13T13:32:52.000Z</time>
      </trkpt>
      <trkpt lat="43.67811" lon="6.16927">
        <ele>658.6</ele>
        <time>2024-03-13T13:32:58.000Z</time>
      </trkpt>
      <trkpt lat="43.67809" lon="6.16934">
        <ele>658.6</ele>
        <time>2024-03-13T13:33:05.000Z</time>
      </trkpt>
      <trkpt lat="43.67809" lon="6.1694">
        <ele>658.7</ele>
        <time>2024-03-13T13:33:10.000Z</time>
      </trkpt>
      <trkpt lat="43.67805" lon="6.16946">
        <ele>659</ele>
        <time>2024-03-13T13:33:15.000Z</time>
      </trkpt>
      <trkpt lat="43.67803" lon="6.16952">
        <ele>659.2</ele>
        <time>2024-03-13T13:33:20.000Z</time>
      </trkpt>
      <trkpt lat="43.67801" lon="6.16958">
        <ele>659.5</ele>
        <time>2024-03-13T13:33:25.000Z</time>
      </trkpt>
      <trkpt lat="43.67799" lon="6.16964">
        <ele>660.1</ele>
        <time>2024-03-13T13:33:32.000Z</time>
      </trkpt>
      <trkpt lat="43.67795" lon="6.16969">
        <ele>660.4</ele>
        <time>2024-03-13T13:33:36.000Z</time>
      </trkpt>
      <trkpt lat="43.67792" lon="6.16974">
        <ele>660.7</ele>
        <time>2024-03-13T13:33:40.000Z</time>
      </trkpt>
      <trkpt lat="43.67789" lon="6.16979">
        <ele>661</ele>
        <time>2024-03-13T13:33:44.000Z</time>
      </trkpt>
      <trkpt lat="43.67786" lon="6.16984">
        <ele>661.4</ele>
        <time>2024-03-13T13:33:49.000Z</time>
      </trkpt>
      <trkpt lat="43.67782" lon="6.16988">
        <ele>661.6</ele>
        <time>2024-03-13T13:33:53.000Z</time>
      </trkpt>
      <trkpt lat="43.67778" lon="6.16993">
        <ele>661.8</ele>
        <time>2024-03-13T13:33:57.000Z</time>
      </trkpt>
      <trkpt lat="43.67776" lon="6.16999">
        <ele>661.9</ele>
        <time>2024-03-13T13:34:01.000Z</time>
      </trkpt>
      <trkpt lat="43.67772" lon="6.17004">
        <ele>662.1</ele>
        <time>2024-03-13T13:34:05.000Z</time>
      </trkpt>
      <trkpt lat="43.6777" lon="6.1701">
        <ele>662.3</ele>
        <time>2024-03-13T13:34:09.000Z</time>
      </trkpt>
      <trkpt lat="43.67769" lon="6.17017">
        <ele>662.4</ele>
        <time>2024-03-13T13:34:13.000Z</time>
      </trkpt>
      <trkpt lat="43.67765" lon="6.17023">
        <ele>662.6</ele>
        <time>2024-03-13T13:34:18.000Z</time>
      </trkpt>
      <trkpt lat="43.67763" lon="6.1703">
        <ele>662.8</ele>
        <time>2024-03-13T13:34:22.000Z</time>
      </trkpt>
      <trkpt lat="43.6776" lon="6.17034">
        <ele>663</ele>
        <time>2024-03-13T13:34:26.000Z</time>
      </trkpt>
      <trkpt lat="43.67759" lon="6.17041">
        <ele>663.5</ele>
        <time>2024-03-13T13:34:31.000Z</time>
      </trkpt>
      <trkpt lat="43.67757" lon="6.17048">
        <ele>663.9</ele>
        <time>2024-03-13T13:34:36.000Z</time>
      </trkpt>
      <trkpt lat="43.67756" lon="6.17055">
        <ele>664.1</ele>
        <time>2024-03-13T13:34:40.000Z</time>
      </trkpt>
      <trkpt lat="43.67754" lon="6.17062">
        <ele>664.4</ele>
        <time>2024-03-13T13:34:44.000Z</time>
      </trkpt>
      <trkpt lat="43.67752" lon="6.17069">
        <ele>664.7</ele>
        <time>2024-03-13T13:34:48.000Z</time>
      </trkpt>
      <trkpt lat="43.67751" lon="6.17076">
        <ele>665.2</ele>
        <time>2024-03-13T13:34:53.000Z</time>
      </trkpt>
      <trkpt lat="43.67752" lon="6.17083">
        <ele>665.4</ele>
        <time>2024-03-13T13:34:57.000Z</time>
      </trkpt>
      <trkpt lat="43.67753" lon="6.1709">
        <ele>665.8</ele>
        <time>2024-03-13T13:35:02.000Z</time>
      </trkpt>
      <trkpt lat="43.67756" lon="6.17095">
        <ele>666</ele>
        <time>2024-03-13T13:35:07.000Z</time>
      </trkpt>
      <trkpt lat="43.67758" lon="6.17102">
        <ele>666.2</ele>
        <time>2024-03-13T13:35:12.000Z</time>
      </trkpt>
      <trkpt lat="43.67757" lon="6.17109">
        <ele>666.5</ele>
        <time>2024-03-13T13:35:16.000Z</time>
      </trkpt>
      <trkpt lat="43.67757" lon="6.17117">
        <ele>666.8</ele>
        <time>2024-03-13T13:35:21.000Z</time>
      </trkpt>
      <trkpt lat="43.67757" lon="6.17124">
        <ele>667.1</ele>
        <time>2024-03-13T13:35:25.000Z</time>
      </trkpt>
      <trkpt lat="43.67758" lon="6.17131">
        <ele>667.5</ele>
        <time>2024-03-13T13:35:30.000Z</time>
      </trkpt>
      <trkpt lat="43.6776" lon="6.17138">
        <ele>667.9</ele>
        <time>2024-03-13T13:35:35.000Z</time>
      </trkpt>
      <trkpt lat="43.6776" lon="6.17146">
        <ele>668.3</ele>
        <time>2024-03-13T13:35:40.000Z</time>
      </trkpt>
      <trkpt lat="43.6776" lon="6.17153">
        <ele>668.6</ele>
        <time>2024-03-13T13:35:44.000Z</time>
      </trkpt>
      <trkpt lat="43.6776" lon="6.1716">
        <ele>668.9</ele>
        <time>2024-03-13T13:35:48.000Z</time>
      </trkpt>
      <trkpt lat="43.6776" lon="6.17167">
        <ele>669.3</ele>
        <time>2024-03-13T13:35:54.000Z</time>
      </trkpt>
      <trkpt lat="43.67761" lon="6.17175">
        <ele>669.5</ele>
        <time>2024-03-13T13:35:59.000Z</time>
      </trkpt>
      <trkpt lat="43.67762" lon="6.17182">
        <ele>670</ele>
        <time>2024-03-13T13:36:04.000Z</time>
      </trkpt>
      <trkpt lat="43.67762" lon="6.17188">
        <ele>670.3</ele>
        <time>2024-03-13T13:36:08.000Z</time>
      </trkpt>
      <trkpt lat="43.67763" lon="6.17195">
        <ele>670.5</ele>
        <time>2024-03-13T13:36:12.000Z</time>
      </trkpt>
      <trkpt lat="43.67764" lon="6.17202">
        <ele>670.8</ele>
        <time>2024-03-13T13:36:16.000Z</time>
      </trkpt>
      <trkpt lat="43.67765" lon="6.17209">
        <ele>671.2</ele>
        <time>2024-03-13T13:36:21.000Z</time>
      </trkpt>
      <trkpt lat="43.67765" lon="6.17216">
        <ele>671.4</ele>
        <time>2024-03-13T13:36:25.000Z</time>
      </trkpt>
      <trkpt lat="43.67766" lon="6.17222">
        <ele>671.7</ele>
        <time>2024-03-13T13:36:30.000Z</time>
      </trkpt>
      <trkpt lat="43.67767" lon="6.17229">
        <ele>671.9</ele>
        <time>2024-03-13T13:36:34.000Z</time>
      </trkpt>
      <trkpt lat="43.67767" lon="6.17236">
        <ele>672.2</ele>
        <time>2024-03-13T13:36:38.000Z</time>
      </trkpt>
      <trkpt lat="43.67767" lon="6.17243">
        <ele>672.5</ele>
        <time>2024-03-13T13:36:42.000Z</time>
      </trkpt>
      <trkpt lat="43.67767" lon="6.1725">
        <ele>672.7</ele>
        <time>2024-03-13T13:36:47.000Z</time>
      </trkpt>
      <trkpt lat="43.67769" lon="6.17257">
        <ele>673</ele>
        <time>2024-03-13T13:36:52.000Z</time>
      </trkpt>
      <trkpt lat="43.6777" lon="6.17263">
        <ele>673.2</ele>
        <time>2024-03-13T13:36:56.000Z</time>
      </trkpt>
      <trkpt lat="43.67771" lon="6.17271">
        <ele>673.4</ele>
        <time>2024-03-13T13:37:01.000Z</time>
      </trkpt>
      <trkpt lat="43.67772" lon="6.17277">
        <ele>673.6</ele>
        <time>2024-03-13T13:37:05.000Z</time>
      </trkpt>
      <trkpt lat="43.67774" lon="6.17284">
        <ele>673.9</ele>
        <time>2024-03-13T13:37:09.000Z</time>
      </trkpt>
      <trkpt lat="43.67776" lon="6.1729">
        <ele>674.2</ele>
        <time>2024-03-13T13:37:13.000Z</time>
      </trkpt>
      <trkpt lat="43.67779" lon="6.17295">
        <ele>674.5</ele>
        <time>2024-03-13T13:37:17.000Z</time>
      </trkpt>
      <trkpt lat="43.67782" lon="6.173">
        <ele>674.9</ele>
        <time>2024-03-13T13:37:22.000Z</time>
      </trkpt>
      <trkpt lat="43.67786" lon="6.17305">
        <ele>675.2</ele>
        <time>2024-03-13T13:37:28.000Z</time>
      </trkpt>
      <trkpt lat="43.67789" lon="6.17311">
        <ele>675.6</ele>
        <time>2024-03-13T13:37:33.000Z</time>
      </trkpt>
      <trkpt lat="43.67792" lon="6.17316">
        <ele>675.9</ele>
        <time>2024-03-13T13:37:37.000Z</time>
      </trkpt>
      <trkpt lat="43.67794" lon="6.17322">
        <ele>676.1</ele>
        <time>2024-03-13T13:37:41.000Z</time>
      </trkpt>
      <trkpt lat="43.67798" lon="6.17328">
        <ele>676.5</ele>
        <time>2024-03-13T13:37:46.000Z</time>
      </trkpt>
      <trkpt lat="43.67801" lon="6.17334">
        <ele>676.9</ele>
        <time>2024-03-13T13:37:50.000Z</time>
      </trkpt>
      <trkpt lat="43.67803" lon="6.1734">
        <ele>677.5</ele>
        <time>2024-03-13T13:37:55.000Z</time>
      </trkpt>
      <trkpt lat="43.67805" lon="6.17346">
        <ele>677.9</ele>
        <time>2024-03-13T13:37:59.000Z</time>
      </trkpt>
      <trkpt lat="43.67807" lon="6.17352">
        <ele>678.4</ele>
        <time>2024-03-13T13:38:03.000Z</time>
      </trkpt>
      <trkpt lat="43.67809" lon="6.17358">
        <ele>678.7</ele>
        <time>2024-03-13T13:38:07.000Z</time>
      </trkpt>
      <trkpt lat="43.67812" lon="6.17364">
        <ele>679.2</ele>
        <time>2024-03-13T13:38:11.000Z</time>
      </trkpt>
      <trkpt lat="43.67814" lon="6.1737">
        <ele>679.7</ele>
        <time>2024-03-13T13:38:16.000Z</time>
      </trkpt>
      <trkpt lat="43.67817" lon="6.17377">
        <ele>680</ele>
        <time>2024-03-13T13:38:21.000Z</time>
      </trkpt>
      <trkpt lat="43.67819" lon="6.17383">
        <ele>680.3</ele>
        <time>2024-03-13T13:38:26.000Z</time>
      </trkpt>
      <trkpt lat="43.67821" lon="6.1739">
        <ele>680.5</ele>
        <time>2024-03-13T13:38:31.000Z</time>
      </trkpt>
      <trkpt lat="43.67823" lon="6.17396">
        <ele>680.8</ele>
        <time>2024-03-13T13:38:35.000Z</time>
      </trkpt>
      <trkpt lat="43.67826" lon="6.17403">
        <ele>681.2</ele>
        <time>2024-03-13T13:38:40.000Z</time>
      </trkpt>
      <trkpt lat="43.67828" lon="6.17408">
        <ele>681.4</ele>
        <time>2024-03-13T13:38:44.000Z</time>
      </trkpt>
      <trkpt lat="43.67831" lon="6.17414">
        <ele>681.6</ele>
        <time>2024-03-13T13:38:49.000Z</time>
      </trkpt>
      <trkpt lat="43.67835" lon="6.1742">
        <ele>682</ele>
        <time>2024-03-13T13:38:54.000Z</time>
      </trkpt>
      <trkpt lat="43.67838" lon="6.17425">
        <ele>682.6</ele>
        <time>2024-03-13T13:38:58.000Z</time>
      </trkpt>
      <trkpt lat="43.67841" lon="6.1743">
        <ele>683.2</ele>
        <time>2024-03-13T13:39:03.000Z</time>
      </trkpt>
      <trkpt lat="43.67845" lon="6.17434">
        <ele>683.6</ele>
        <time>2024-03-13T13:39:07.000Z</time>
      </trkpt>
      <trkpt lat="43.67849" lon="6.17439">
        <ele>683.9</ele>
        <time>2024-03-13T13:39:12.000Z</time>
      </trkpt>
      <trkpt lat="43.67852" lon="6.17444">
        <ele>684.2</ele>
        <time>2024-03-13T13:39:16.000Z</time>
      </trkpt>
      <trkpt lat="43.67855" lon="6.17449">
        <ele>684.5</ele>
        <time>2024-03-13T13:39:20.000Z</time>
      </trkpt>
      <trkpt lat="43.67859" lon="6.17455">
        <ele>684.9</ele>
        <time>2024-03-13T13:39:25.000Z</time>
      </trkpt>
      <trkpt lat="43.67862" lon="6.1746">
        <ele>685.1</ele>
        <time>2024-03-13T13:39:29.000Z</time>
      </trkpt>
      <trkpt lat="43.67865" lon="6.17465">
        <ele>685.3</ele>
        <time>2024-03-13T13:39:33.000Z</time>
      </trkpt>
      <trkpt lat="43.67868" lon="6.1747">
        <ele>685.5</ele>
        <time>2024-03-13T13:39:37.000Z</time>
      </trkpt>
      <trkpt lat="43.67871" lon="6.17476">
        <ele>685.7</ele>
        <time>2024-03-13T13:39:42.000Z</time>
      </trkpt>
      <trkpt lat="43.67874" lon="6.17482">
        <ele>686</ele>
        <time>2024-03-13T13:39:46.000Z</time>
      </trkpt>
      <trkpt lat="43.67876" lon="6.17487">
        <ele>686.2</ele>
        <time>2024-03-13T13:39:50.000Z</time>
      </trkpt>
      <trkpt lat="43.67878" lon="6.17494">
        <ele>686.5</ele>
        <time>2024-03-13T13:39:55.000Z</time>
      </trkpt>
      <trkpt lat="43.6788" lon="6.175">
        <ele>686.8</ele>
        <time>2024-03-13T13:40:00.000Z</time>
      </trkpt>
      <trkpt lat="43.67883" lon="6.17505">
        <ele>687.1</ele>
        <time>2024-03-13T13:40:05.000Z</time>
      </trkpt>
      <trkpt lat="43.67887" lon="6.17509">
        <ele>687.5</ele>
        <time>2024-03-13T13:40:12.000Z</time>
      </trkpt>
      <trkpt lat="43.67892" lon="6.17513">
        <ele>687.9</ele>
        <time>2024-03-13T13:40:22.000Z</time>
      </trkpt>
      <trkpt lat="43.67896" lon="6.17517">
        <ele>688.1</ele>
        <time>2024-03-13T13:40:29.000Z</time>
      </trkpt>
      <trkpt lat="43.67899" lon="6.17521">
        <ele>688.2</ele>
        <time>2024-03-13T13:40:36.000Z</time>
      </trkpt>
      <trkpt lat="43.67903" lon="6.17525">
        <ele>688.2</ele>
        <time>2024-03-13T13:40:42.000Z</time>
      </trkpt>
      <trkpt lat="43.67906" lon="6.17531">
        <ele>688.3</ele>
        <time>2024-03-13T13:40:50.000Z</time>
      </trkpt>
      <trkpt lat="43.67907" lon="6.17537">
        <ele>688.3</ele>
        <time>2024-03-13T13:41:19.000Z</time>
      </trkpt>
      <trkpt lat="43.6791" lon="6.17542">
        <ele>688.3</ele>
        <time>2024-03-13T13:41:26.000Z</time>
      </trkpt>
      <trkpt lat="43.67912" lon="6.17548">
        <ele>688.3</ele>
        <time>2024-03-13T13:41:32.000Z</time>
      </trkpt>
      <trkpt lat="43.67912" lon="6.17555">
        <ele>688.4</ele>
        <time>2024-03-13T13:41:40.000Z</time>
      </trkpt>
      <trkpt lat="43.67913" lon="6.17562">
        <ele>688.9</ele>
        <time>2024-03-13T13:41:46.000Z</time>
      </trkpt>
      <trkpt lat="43.67914" lon="6.17568">
        <ele>689.2</ele>
        <time>2024-03-13T13:41:51.000Z</time>
      </trkpt>
      <trkpt lat="43.67917" lon="6.17573">
        <ele>689.7</ele>
        <time>2024-03-13T13:41:56.000Z</time>
      </trkpt>
      <trkpt lat="43.67918" lon="6.1758">
        <ele>690.2</ele>
        <time>2024-03-13T13:42:02.000Z</time>
      </trkpt>
      <trkpt lat="43.67919" lon="6.17587">
        <ele>690.4</ele>
        <time>2024-03-13T13:42:07.000Z</time>
      </trkpt>
      <trkpt lat="43.67921" lon="6.17594">
        <ele>690.7</ele>
        <time>2024-03-13T13:42:12.000Z</time>
      </trkpt>
      <trkpt lat="43.67922" lon="6.17601">
        <ele>691</ele>
        <time>2024-03-13T13:42:17.000Z</time>
      </trkpt>
      <trkpt lat="43.67923" lon="6.17607">
        <ele>691.3</ele>
        <time>2024-03-13T13:42:22.000Z</time>
      </trkpt>
      <trkpt lat="43.67924" lon="6.17614">
        <ele>691.7</ele>
        <time>2024-03-13T13:42:27.000Z</time>
      </trkpt>
      <trkpt lat="43.67925" lon="6.17621">
        <ele>692.2</ele>
        <time>2024-03-13T13:42:32.000Z</time>
      </trkpt>
      <trkpt lat="43.67928" lon="6.17627">
        <ele>692.7</ele>
        <time>2024-03-13T13:42:37.000Z</time>
      </trkpt>
      <trkpt lat="43.6793" lon="6.17633">
        <ele>693.2</ele>
        <time>2024-03-13T13:42:42.000Z</time>
      </trkpt>
      <trkpt lat="43.67933" lon="6.17638">
        <ele>693.7</ele>
        <time>2024-03-13T13:42:46.000Z</time>
      </trkpt>
      <trkpt lat="43.67935" lon="6.17644">
        <ele>694.2</ele>
        <time>2024-03-13T13:42:50.000Z</time>
      </trkpt>
      <trkpt lat="43.67938" lon="6.1765">
        <ele>694.7</ele>
        <time>2024-03-13T13:42:55.000Z</time>
      </trkpt>
      <trkpt lat="43.6794" lon="6.17656">
        <ele>695.3</ele>
        <time>2024-03-13T13:43:01.000Z</time>
      </trkpt>
      <trkpt lat="43.67942" lon="6.17662">
        <ele>695.8</ele>
        <time>2024-03-13T13:43:06.000Z</time>
      </trkpt>
      <trkpt lat="43.67944" lon="6.17667">
        <ele>696.4</ele>
        <time>2024-03-13T13:43:11.000Z</time>
      </trkpt>
      <trkpt lat="43.67947" lon="6.17673">
        <ele>696.8</ele>
        <time>2024-03-13T13:43:16.000Z</time>
      </trkpt>
      <trkpt lat="43.67949" lon="6.17679">
        <ele>697.1</ele>
        <time>2024-03-13T13:43:21.000Z</time>
      </trkpt>
      <trkpt lat="43.67953" lon="6.17685">
        <ele>697.3</ele>
        <time>2024-03-13T13:43:26.000Z</time>
      </trkpt>
      <trkpt lat="43.67957" lon="6.17689">
        <ele>697.5</ele>
        <time>2024-03-13T13:43:30.000Z</time>
      </trkpt>
      <trkpt lat="43.67961" lon="6.17694">
        <ele>697.6</ele>
        <time>2024-03-13T13:43:35.000Z</time>
      </trkpt>
      <trkpt lat="43.67964" lon="6.177">
        <ele>697.8</ele>
        <time>2024-03-13T13:43:39.000Z</time>
      </trkpt>
      <trkpt lat="43.67967" lon="6.17706">
        <ele>697.9</ele>
        <time>2024-03-13T13:43:43.000Z</time>
      </trkpt>
      <trkpt lat="43.6797" lon="6.1771">
        <ele>698.2</ele>
        <time>2024-03-13T13:43:48.000Z</time>
      </trkpt>
      <trkpt lat="43.67973" lon="6.17715">
        <ele>698.6</ele>
        <time>2024-03-13T13:43:53.000Z</time>
      </trkpt>
      <trkpt lat="43.67977" lon="6.17721">
        <ele>698.8</ele>
        <time>2024-03-13T13:43:58.000Z</time>
      </trkpt>
      <trkpt lat="43.67981" lon="6.17724">
        <ele>699.3</ele>
        <time>2024-03-13T13:44:04.000Z</time>
      </trkpt>
      <trkpt lat="43.67986" lon="6.17725">
        <ele>699.8</ele>
        <time>2024-03-13T13:44:10.000Z</time>
      </trkpt>
      <trkpt lat="43.6799" lon="6.17728">
        <ele>700.2</ele>
        <time>2024-03-13T13:44:15.000Z</time>
      </trkpt>
      <trkpt lat="43.67995" lon="6.17731">
        <ele>700.6</ele>
        <time>2024-03-13T13:44:20.000Z</time>
      </trkpt>
      <trkpt lat="43.68" lon="6.17736">
        <ele>700.8</ele>
        <time>2024-03-13T13:44:25.000Z</time>
      </trkpt>
      <trkpt lat="43.68003" lon="6.17741">
        <ele>701.1</ele>
        <time>2024-03-13T13:44:29.000Z</time>
      </trkpt>
      <trkpt lat="43.68007" lon="6.17745">
        <ele>701.5</ele>
        <time>2024-03-13T13:44:33.000Z</time>
      </trkpt>
      <trkpt lat="43.68011" lon="6.1775">
        <ele>701.8</ele>
        <time>2024-03-13T13:44:38.000Z</time>
      </trkpt>
      <trkpt lat="43.68014" lon="6.17754">
        <ele>702.2</ele>
        <time>2024-03-13T13:44:43.000Z</time>
      </trkpt>
      <trkpt lat="43.68019" lon="6.17757">
        <ele>702.7</ele>
        <time>2024-03-13T13:44:48.000Z</time>
      </trkpt>
      <trkpt lat="43.68023" lon="6.17759">
        <ele>703.1</ele>
        <time>2024-03-13T13:44:53.000Z</time>
      </trkpt>
      <trkpt lat="43.68028" lon="6.17762">
        <ele>703.6</ele>
        <time>2024-03-13T13:44:58.000Z</time>
      </trkpt>
      <trkpt lat="43.68032" lon="6.17765">
        <ele>703.9</ele>
        <time>2024-03-13T13:45:03.000Z</time>
      </trkpt>
      <trkpt lat="43.68038" lon="6.17765">
        <ele>704.2</ele>
        <time>2024-03-13T13:45:09.000Z</time>
      </trkpt>
      <trkpt lat="43.68043" lon="6.17766">
        <ele>704.6</ele>
        <time>2024-03-13T13:45:14.000Z</time>
      </trkpt>
      <trkpt lat="43.68048" lon="6.17769">
        <ele>705</ele>
        <time>2024-03-13T13:45:19.000Z</time>
      </trkpt>
      <trkpt lat="43.68053" lon="6.1777">
        <ele>705.3</ele>
        <time>2024-03-13T13:45:23.000Z</time>
      </trkpt>
      <trkpt lat="43.68058" lon="6.17772">
        <ele>705.5</ele>
        <time>2024-03-13T13:45:27.000Z</time>
      </trkpt>
      <trkpt lat="43.68062" lon="6.17775">
        <ele>705.7</ele>
        <time>2024-03-13T13:45:32.000Z</time>
      </trkpt>
      <trkpt lat="43.68068" lon="6.17776">
        <ele>705.9</ele>
        <time>2024-03-13T13:45:37.000Z</time>
      </trkpt>
      <trkpt lat="43.68072" lon="6.17776">
        <ele>706</ele>
        <time>2024-03-13T13:45:42.000Z</time>
      </trkpt>
      <trkpt lat="43.68077" lon="6.17776">
        <ele>706.1</ele>
        <time>2024-03-13T13:45:49.000Z</time>
      </trkpt>
      <trkpt lat="43.68081" lon="6.17777">
        <ele>706.2</ele>
        <time>2024-03-13T13:45:56.000Z</time>
      </trkpt>
      <trkpt lat="43.68086" lon="6.17779">
        <ele>706.2</ele>
        <time>2024-03-13T13:46:02.000Z</time>
      </trkpt>
      <trkpt lat="43.6809" lon="6.17782">
        <ele>706.1</ele>
        <time>2024-03-13T13:46:07.000Z</time>
      </trkpt>
      <trkpt lat="43.68095" lon="6.17785">
        <ele>706.1</ele>
        <time>2024-03-13T13:46:11.000Z</time>
      </trkpt>
      <trkpt lat="43.68099" lon="6.17788">
        <ele>706.2</ele>
        <time>2024-03-13T13:46:15.000Z</time>
      </trkpt>
      <trkpt lat="43.68103" lon="6.17793">
        <ele>706.3</ele>
        <time>2024-03-13T13:46:20.000Z</time>
      </trkpt>
      <trkpt lat="43.68107" lon="6.17798">
        <ele>706.5</ele>
        <time>2024-03-13T13:46:24.000Z</time>
      </trkpt>
      <trkpt lat="43.68111" lon="6.17802">
        <ele>706.7</ele>
        <time>2024-03-13T13:46:28.000Z</time>
      </trkpt>
      <trkpt lat="43.68115" lon="6.17804">
        <ele>707</ele>
        <time>2024-03-13T13:46:33.000Z</time>
      </trkpt>
      <trkpt lat="43.68119" lon="6.17808">
        <ele>707.3</ele>
        <time>2024-03-13T13:46:37.000Z</time>
      </trkpt>
      <trkpt lat="43.68124" lon="6.17812">
        <ele>707.7</ele>
        <time>2024-03-13T13:46:42.000Z</time>
      </trkpt>
      <trkpt lat="43.68127" lon="6.17818">
        <ele>708</ele>
        <time>2024-03-13T13:46:46.000Z</time>
      </trkpt>
      <trkpt lat="43.68129" lon="6.17823">
        <ele>708.3</ele>
        <time>2024-03-13T13:46:50.000Z</time>
      </trkpt>
      <trkpt lat="43.68132" lon="6.17829">
        <ele>708.6</ele>
        <time>2024-03-13T13:46:55.000Z</time>
      </trkpt>
      <trkpt lat="43.68133" lon="6.17836">
        <ele>709.2</ele>
        <time>2024-03-13T13:47:01.000Z</time>
      </trkpt>
      <trkpt lat="43.68134" lon="6.17842">
        <ele>709.6</ele>
        <time>2024-03-13T13:47:06.000Z</time>
      </trkpt>
      <trkpt lat="43.68135" lon="6.17848">
        <ele>709.8</ele>
        <time>2024-03-13T13:47:10.000Z</time>
      </trkpt>
      <trkpt lat="43.68137" lon="6.17855">
        <ele>710.7</ele>
        <time>2024-03-13T13:47:16.000Z</time>
      </trkpt>
      <trkpt lat="43.68138" lon="6.17862">
        <ele>711.3</ele>
        <time>2024-03-13T13:47:21.000Z</time>
      </trkpt>
      <trkpt lat="43.68139" lon="6.17869">
        <ele>711.9</ele>
        <time>2024-03-13T13:47:27.000Z</time>
      </trkpt>
      <trkpt lat="43.6814" lon="6.17875">
        <ele>712.3</ele>
        <time>2024-03-13T13:47:31.000Z</time>
      </trkpt>
      <trkpt lat="43.68142" lon="6.17881">
        <ele>712.7</ele>
        <time>2024-03-13T13:47:36.000Z</time>
      </trkpt>
      <trkpt lat="43.68145" lon="6.17886">
        <ele>713.5</ele>
        <time>2024-03-13T13:47:42.000Z</time>
      </trkpt>
      <trkpt lat="43.68149" lon="6.1789">
        <ele>714.1</ele>
        <time>2024-03-13T13:47:47.000Z</time>
      </trkpt>
      <trkpt lat="43.68153" lon="6.17894">
        <ele>714.6</ele>
        <time>2024-03-13T13:47:52.000Z</time>
      </trkpt>
      <trkpt lat="43.68158" lon="6.17897">
        <ele>715</ele>
        <time>2024-03-13T13:47:57.000Z</time>
      </trkpt>
      <trkpt lat="43.68163" lon="6.17899">
        <ele>715.4</ele>
        <time>2024-03-13T13:48:03.000Z</time>
      </trkpt>
      <trkpt lat="43.68168" lon="6.17898">
        <ele>715.7</ele>
        <time>2024-03-13T13:48:09.000Z</time>
      </trkpt>
      <trkpt lat="43.68173" lon="6.17901">
        <ele>716.1</ele>
        <time>2024-03-13T13:48:15.000Z</time>
      </trkpt>
      <trkpt lat="43.68179" lon="6.17902">
        <ele>716.8</ele>
        <time>2024-03-13T13:48:21.000Z</time>
      </trkpt>
      <trkpt lat="43.68184" lon="6.17905">
        <ele>717.3</ele>
        <time>2024-03-13T13:48:25.000Z</time>
      </trkpt>
      <trkpt lat="43.68188" lon="6.17907">
        <ele>717.8</ele>
        <time>2024-03-13T13:48:29.000Z</time>
      </trkpt>
      <trkpt lat="43.68192" lon="6.17911">
        <ele>718.4</ele>
        <time>2024-03-13T13:48:34.000Z</time>
      </trkpt>
      <trkpt lat="43.68198" lon="6.17914">
        <ele>718.8</ele>
        <time>2024-03-13T13:48:39.000Z</time>
      </trkpt>
      <trkpt lat="43.68202" lon="6.17915">
        <ele>719.2</ele>
        <time>2024-03-13T13:48:43.000Z</time>
      </trkpt>
      <trkpt lat="43.68207" lon="6.17917">
        <ele>719.6</ele>
        <time>2024-03-13T13:48:47.000Z</time>
      </trkpt>
      <trkpt lat="43.68211" lon="6.17918">
        <ele>719.9</ele>
        <time>2024-03-13T13:48:51.000Z</time>
      </trkpt>
      <trkpt lat="43.68216" lon="6.17918">
        <ele>720.5</ele>
        <time>2024-03-13T13:48:56.000Z</time>
      </trkpt>
      <trkpt lat="43.68221" lon="6.17917">
        <ele>721</ele>
        <time>2024-03-13T13:49:01.000Z</time>
      </trkpt>
      <trkpt lat="43.68226" lon="6.17918">
        <ele>721.4</ele>
        <time>2024-03-13T13:49:07.000Z</time>
      </trkpt>
      <trkpt lat="43.6823" lon="6.17922">
        <ele>721.8</ele>
        <time>2024-03-13T13:49:12.000Z</time>
      </trkpt>
      <trkpt lat="43.68235" lon="6.17926">
        <ele>722.3</ele>
        <time>2024-03-13T13:49:17.000Z</time>
      </trkpt>
      <trkpt lat="43.68239" lon="6.17929">
        <ele>722.7</ele>
        <time>2024-03-13T13:49:22.000Z</time>
      </trkpt>
      <trkpt lat="43.68244" lon="6.1793">
        <ele>723.1</ele>
        <time>2024-03-13T13:49:28.000Z</time>
      </trkpt>
      <trkpt lat="43.68249" lon="6.1793">
        <ele>723.5</ele>
        <time>2024-03-13T13:49:33.000Z</time>
      </trkpt>
      <trkpt lat="43.68254" lon="6.17932">
        <ele>724.1</ele>
        <time>2024-03-13T13:49:38.000Z</time>
      </trkpt>
      <trkpt lat="43.68259" lon="6.17931">
        <ele>724.7</ele>
        <time>2024-03-13T13:49:43.000Z</time>
      </trkpt>
      <trkpt lat="43.68264" lon="6.17934">
        <ele>725.2</ele>
        <time>2024-03-13T13:49:48.000Z</time>
      </trkpt>
      <trkpt lat="43.68268" lon="6.17936">
        <ele>725.8</ele>
        <time>2024-03-13T13:49:53.000Z</time>
      </trkpt>
      <trkpt lat="43.68274" lon="6.17939">
        <ele>726.4</ele>
        <time>2024-03-13T13:49:58.000Z</time>
      </trkpt>
      <trkpt lat="43.68278" lon="6.17941">
        <ele>726.8</ele>
        <time>2024-03-13T13:50:03.000Z</time>
      </trkpt>
      <trkpt lat="43.68283" lon="6.17944">
        <ele>727.4</ele>
        <time>2024-03-13T13:50:08.000Z</time>
      </trkpt>
      <trkpt lat="43.68287" lon="6.17946">
        <ele>727.8</ele>
        <time>2024-03-13T13:50:13.000Z</time>
      </trkpt>
      <trkpt lat="43.68291" lon="6.1795">
        <ele>728.3</ele>
        <time>2024-03-13T13:50:18.000Z</time>
      </trkpt>
      <trkpt lat="43.68295" lon="6.17954">
        <ele>728.7</ele>
        <time>2024-03-13T13:50:23.000Z</time>
      </trkpt>
      <trkpt lat="43.683" lon="6.17957">
        <ele>729.2</ele>
        <time>2024-03-13T13:50:28.000Z</time>
      </trkpt>
      <trkpt lat="43.68305" lon="6.17957">
        <ele>729.7</ele>
        <time>2024-03-13T13:50:33.000Z</time>
      </trkpt>
      <trkpt lat="43.68309" lon="6.17957">
        <ele>730.3</ele>
        <time>2024-03-13T13:50:38.000Z</time>
      </trkpt>
      <trkpt lat="43.68313" lon="6.17961">
        <ele>730.6</ele>
        <time>2024-03-13T13:50:42.000Z</time>
      </trkpt>
      <trkpt lat="43.68318" lon="6.17963">
        <ele>731</ele>
        <time>2024-03-13T13:50:47.000Z</time>
      </trkpt>
      <trkpt lat="43.68323" lon="6.17964">
        <ele>731.4</ele>
        <time>2024-03-13T13:50:53.000Z</time>
      </trkpt>
      <trkpt lat="43.68328" lon="6.17966">
        <ele>732.1</ele>
        <time>2024-03-13T13:50:59.000Z</time>
      </trkpt>
      <trkpt lat="43.68332" lon="6.17969">
        <ele>732.6</ele>
        <time>2024-03-13T13:51:04.000Z</time>
      </trkpt>
      <trkpt lat="43.68336" lon="6.17973">
        <ele>733.1</ele>
        <time>2024-03-13T13:51:09.000Z</time>
      </trkpt>
      <trkpt lat="43.6834" lon="6.17977">
        <ele>733.6</ele>
        <time>2024-03-13T13:51:14.000Z</time>
      </trkpt>
      <trkpt lat="43.68342" lon="6.17983">
        <ele>734.4</ele>
        <time>2024-03-13T13:51:20.000Z</time>
      </trkpt>
      <trkpt lat="43.68344" lon="6.1799">
        <ele>734.9</ele>
        <time>2024-03-13T13:51:25.000Z</time>
      </trkpt>
      <trkpt lat="43.68346" lon="6.17996">
        <ele>735.5</ele>
        <time>2024-03-13T13:51:30.000Z</time>
      </trkpt>
      <trkpt lat="43.68349" lon="6.18001">
        <ele>736</ele>
        <time>2024-03-13T13:51:35.000Z</time>
      </trkpt>
      <trkpt lat="43.68353" lon="6.18006">
        <ele>736.5</ele>
        <time>2024-03-13T13:51:40.000Z</time>
      </trkpt>
      <trkpt lat="43.68357" lon="6.1801">
        <ele>736.9</ele>
        <time>2024-03-13T13:51:45.000Z</time>
      </trkpt>
      <trkpt lat="43.6836" lon="6.18016">
        <ele>737.3</ele>
        <time>2024-03-13T13:51:51.000Z</time>
      </trkpt>
      <trkpt lat="43.68362" lon="6.18023">
        <ele>738</ele>
        <time>2024-03-13T13:51:58.000Z</time>
      </trkpt>
      <trkpt lat="43.68363" lon="6.1803">
        <ele>738.5</ele>
        <time>2024-03-13T13:52:04.000Z</time>
      </trkpt>
      <trkpt lat="43.68367" lon="6.18036">
        <ele>738.8</ele>
        <time>2024-03-13T13:52:10.000Z</time>
      </trkpt>
      <trkpt lat="43.68371" lon="6.1804">
        <ele>739</ele>
        <time>2024-03-13T13:52:15.000Z</time>
      </trkpt>
      <trkpt lat="43.68373" lon="6.18046">
        <ele>739.2</ele>
        <time>2024-03-13T13:52:20.000Z</time>
      </trkpt>
      <trkpt lat="43.68376" lon="6.18051">
        <ele>739.5</ele>
        <time>2024-03-13T13:52:25.000Z</time>
      </trkpt>
      <trkpt lat="43.68378" lon="6.18058">
        <ele>739.9</ele>
        <time>2024-03-13T13:52:31.000Z</time>
      </trkpt>
      <trkpt lat="43.68381" lon="6.18063">
        <ele>740.2</ele>
        <time>2024-03-13T13:52:36.000Z</time>
      </trkpt>
      <trkpt lat="43.68383" lon="6.18069">
        <ele>740.4</ele>
        <time>2024-03-13T13:52:42.000Z</time>
      </trkpt>
      <trkpt lat="43.68385" lon="6.18075">
        <ele>740.9</ele>
        <time>2024-03-13T13:52:53.000Z</time>
      </trkpt>
      <trkpt lat="43.68389" lon="6.1808">
        <ele>741.8</ele>
        <time>2024-03-13T13:56:54.000Z</time>
      </trkpt>
      <trkpt lat="43.68392" lon="6.18085">
        <ele>742</ele>
        <time>2024-03-13T13:57:00.000Z</time>
      </trkpt>
      <trkpt lat="43.68395" lon="6.18091">
        <ele>742.3</ele>
        <time>2024-03-13T13:57:06.000Z</time>
      </trkpt>
      <trkpt lat="43.68397" lon="6.18097">
        <ele>742.6</ele>
        <time>2024-03-13T13:57:12.000Z</time>
      </trkpt>
      <trkpt lat="43.68398" lon="6.18105">
        <ele>743.2</ele>
        <time>2024-03-13T13:57:18.000Z</time>
      </trkpt>
      <trkpt lat="43.684" lon="6.18111">
        <ele>743.8</ele>
        <time>2024-03-13T13:57:23.000Z</time>
      </trkpt>
      <trkpt lat="43.68402" lon="6.18117">
        <ele>744.5</ele>
        <time>2024-03-13T13:57:29.000Z</time>
      </trkpt>
      <trkpt lat="43.68405" lon="6.18123">
        <ele>745.1</ele>
        <time>2024-03-13T13:57:36.000Z</time>
      </trkpt>
      <trkpt lat="43.68405" lon="6.1813">
        <ele>745.9</ele>
        <time>2024-03-13T13:57:43.000Z</time>
      </trkpt>
      <trkpt lat="43.68405" lon="6.18136">
        <ele>746.8</ele>
        <time>2024-03-13T13:57:49.000Z</time>
      </trkpt>
      <trkpt lat="43.68405" lon="6.18144">
        <ele>747.6</ele>
        <time>2024-03-13T13:57:55.000Z</time>
      </trkpt>
      <trkpt lat="43.68405" lon="6.1815">
        <ele>748.6</ele>
        <time>2024-03-13T13:58:02.000Z</time>
      </trkpt>
      <trkpt lat="43.68405" lon="6.18157">
        <ele>749.4</ele>
        <time>2024-03-13T13:58:09.000Z</time>
      </trkpt>
      <trkpt lat="43.68406" lon="6.18164">
        <ele>750.1</ele>
        <time>2024-03-13T13:58:15.000Z</time>
      </trkpt>
      <trkpt lat="43.68407" lon="6.1817">
        <ele>751</ele>
        <time>2024-03-13T13:58:21.000Z</time>
      </trkpt>
      <trkpt lat="43.68408" lon="6.18177">
        <ele>751.6</ele>
        <time>2024-03-13T13:58:27.000Z</time>
      </trkpt>
      <trkpt lat="43.68409" lon="6.18184">
        <ele>752</ele>
        <time>2024-03-13T13:58:31.000Z</time>
      </trkpt>
      <trkpt lat="43.68411" lon="6.18191">
        <ele>752.6</ele>
        <time>2024-03-13T13:58:36.000Z</time>
      </trkpt>
      <trkpt lat="43.68413" lon="6.18198">
        <ele>753.2</ele>
        <time>2024-03-13T13:58:41.000Z</time>
      </trkpt>
      <trkpt lat="43.68415" lon="6.18204">
        <ele>753.9</ele>
        <time>2024-03-13T13:58:46.000Z</time>
      </trkpt>
      <trkpt lat="43.68416" lon="6.18211">
        <ele>754.7</ele>
        <time>2024-03-13T13:58:53.000Z</time>
      </trkpt>
      <trkpt lat="43.68417" lon="6.18217">
        <ele>755.6</ele>
        <time>2024-03-13T13:58:59.000Z</time>
      </trkpt>
      <trkpt lat="43.68415" lon="6.18225">
        <ele>756.4</ele>
        <time>2024-03-13T13:59:05.000Z</time>
      </trkpt>
      <trkpt lat="43.68414" lon="6.18231">
        <ele>757.1</ele>
        <time>2024-03-13T13:59:11.000Z</time>
      </trkpt>
      <trkpt lat="43.68413" lon="6.18238">
        <ele>757.9</ele>
        <time>2024-03-13T13:59:17.000Z</time>
      </trkpt>
      <trkpt lat="43.68411" lon="6.18245">
        <ele>759.1</ele>
        <time>2024-03-13T13:59:26.000Z</time>
      </trkpt>
      <trkpt lat="43.68412" lon="6.18251">
        <ele>760</ele>
        <time>2024-03-13T13:59:33.000Z</time>
      </trkpt>
      <trkpt lat="43.68409" lon="6.18257">
        <ele>761.2</ele>
        <time>2024-03-13T13:59:42.000Z</time>
      </trkpt>
      <trkpt lat="43.68408" lon="6.18264">
        <ele>762.4</ele>
        <time>2024-03-13T13:59:48.000Z</time>
      </trkpt>
      <trkpt lat="43.68411" lon="6.18268">
        <ele>764.4</ele>
        <time>2024-03-13T13:59:59.000Z</time>
      </trkpt>
      <trkpt lat="43.68414" lon="6.18273">
        <ele>765.5</ele>
        <time>2024-03-13T14:00:06.000Z</time>
      </trkpt>
      <trkpt lat="43.68417" lon="6.1828">
        <ele>766.3</ele>
        <time>2024-03-13T14:00:12.000Z</time>
      </trkpt>
      <trkpt lat="43.6842" lon="6.18283">
        <ele>768.2</ele>
        <time>2024-03-13T14:00:24.000Z</time>
      </trkpt>
      <trkpt lat="43.68423" lon="6.18289">
        <ele>769.3</ele>
        <time>2024-03-13T14:00:32.000Z</time>
      </trkpt>
      <trkpt lat="43.68426" lon="6.18293">
        <ele>770.3</ele>
        <time>2024-03-13T14:00:39.000Z</time>
      </trkpt>
      <trkpt lat="43.6843" lon="6.18298">
        <ele>771.1</ele>
        <time>2024-03-13T14:00:45.000Z</time>
      </trkpt>
      <trkpt lat="43.68433" lon="6.18302">
        <ele>772.3</ele>
        <time>2024-03-13T14:00:52.000Z</time>
      </trkpt>
      <trkpt lat="43.68437" lon="6.18306">
        <ele>773.6</ele>
        <time>2024-03-13T14:01:01.000Z</time>
      </trkpt>
      <trkpt lat="43.68441" lon="6.18309">
        <ele>774.5</ele>
        <time>2024-03-13T14:01:08.000Z</time>
      </trkpt>
      <trkpt lat="43.68445" lon="6.18314">
        <ele>775.4</ele>
        <time>2024-03-13T14:01:16.000Z</time>
      </trkpt>
      <trkpt lat="43.68448" lon="6.18318">
        <ele>776.4</ele>
        <time>2024-03-13T14:01:24.000Z</time>
      </trkpt>
      <trkpt lat="43.68452" lon="6.18322">
        <ele>777.5</ele>
        <time>2024-03-13T14:01:32.000Z</time>
      </trkpt>
      <trkpt lat="43.68457" lon="6.18325">
        <ele>778.3</ele>
        <time>2024-03-13T14:01:40.000Z</time>
      </trkpt>
      <trkpt lat="43.68461" lon="6.18326">
        <ele>780.1</ele>
        <time>2024-03-13T14:02:11.000Z</time>
      </trkpt>
      <trkpt lat="43.68465" lon="6.18329">
        <ele>780.4</ele>
        <time>2024-03-13T14:02:27.000Z</time>
      </trkpt>
      <trkpt lat="43.68469" lon="6.18333">
        <ele>780.6</ele>
        <time>2024-03-13T14:02:50.000Z</time>
      </trkpt>
      <trkpt lat="43.68473" lon="6.18337">
        <ele>780.8</ele>
        <time>2024-03-13T14:02:58.000Z</time>
      </trkpt>
      <trkpt lat="43.68477" lon="6.18341">
        <ele>781.2</ele>
        <time>2024-03-13T14:03:07.000Z</time>
      </trkpt>
      <trkpt lat="43.6848" lon="6.18346">
        <ele>782</ele>
        <time>2024-03-13T14:03:14.000Z</time>
      </trkpt>
      <trkpt lat="43.68484" lon="6.18351">
        <ele>782.8</ele>
        <time>2024-03-13T14:03:21.000Z</time>
      </trkpt>
      <trkpt lat="43.68488" lon="6.18356">
        <ele>783.7</ele>
        <time>2024-03-13T14:03:29.000Z</time>
      </trkpt>
      <trkpt lat="43.68491" lon="6.18361">
        <ele>784.7</ele>
        <time>2024-03-13T14:03:36.000Z</time>
      </trkpt>
      <trkpt lat="43.68494" lon="6.18367">
        <ele>785.6</ele>
        <time>2024-03-13T14:03:43.000Z</time>
      </trkpt>
      <trkpt lat="43.68496" lon="6.18372">
        <ele>786.4</ele>
        <time>2024-03-13T14:03:50.000Z</time>
      </trkpt>
      <trkpt lat="43.68499" lon="6.18378">
        <ele>787.5</ele>
        <time>2024-03-13T14:03:58.000Z</time>
      </trkpt>
      <trkpt lat="43.68501" lon="6.18383">
        <ele>788.5</ele>
        <time>2024-03-13T14:04:06.000Z</time>
      </trkpt>
      <trkpt lat="43.68505" lon="6.18389">
        <ele>789.6</ele>
        <time>2024-03-13T14:04:14.000Z</time>
      </trkpt>
      <trkpt lat="43.68508" lon="6.18394">
        <ele>790.7</ele>
        <time>2024-03-13T14:04:21.000Z</time>
      </trkpt>
      <trkpt lat="43.68511" lon="6.18398">
        <ele>791.9</ele>
        <time>2024-03-13T14:04:29.000Z</time>
      </trkpt>
      <trkpt lat="43.68514" lon="6.18403">
        <ele>793.1</ele>
        <time>2024-03-13T14:04:36.000Z</time>
      </trkpt>
      <trkpt lat="43.68517" lon="6.18409">
        <ele>794.2</ele>
        <time>2024-03-13T14:04:45.000Z</time>
      </trkpt>
      <trkpt lat="43.68518" lon="6.18414">
        <ele>795</ele>
        <time>2024-03-13T14:04:52.000Z</time>
      </trkpt>
      <trkpt lat="43.68519" lon="6.18421">
        <ele>795.7</ele>
        <time>2024-03-13T14:04:58.000Z</time>
      </trkpt>
      <trkpt lat="43.6852" lon="6.18427">
        <ele>796.8</ele>
        <time>2024-03-13T14:05:05.000Z</time>
      </trkpt>
      <trkpt lat="43.68524" lon="6.18432">
        <ele>797.7</ele>
        <time>2024-03-13T14:05:12.000Z</time>
      </trkpt>
      <trkpt lat="43.68526" lon="6.18438">
        <ele>798.2</ele>
        <time>2024-03-13T14:05:18.000Z</time>
      </trkpt>
      <trkpt lat="43.68527" lon="6.18445">
        <ele>798.6</ele>
        <time>2024-03-13T14:05:24.000Z</time>
      </trkpt>
      <trkpt lat="43.68529" lon="6.18451">
        <ele>799</ele>
        <time>2024-03-13T14:05:31.000Z</time>
      </trkpt>
      <trkpt lat="43.68532" lon="6.18456">
        <ele>799.6</ele>
        <time>2024-03-13T14:05:40.000Z</time>
      </trkpt>
      <trkpt lat="43.68536" lon="6.18461">
        <ele>800.3</ele>
        <time>2024-03-13T14:05:47.000Z</time>
      </trkpt>
      <trkpt lat="43.68539" lon="6.18465">
        <ele>801</ele>
        <time>2024-03-13T14:05:54.000Z</time>
      </trkpt>
      <trkpt lat="43.68543" lon="6.1847">
        <ele>801.7</ele>
        <time>2024-03-13T14:06:01.000Z</time>
      </trkpt>
      <trkpt lat="43.68544" lon="6.18476">
        <ele>803</ele>
        <time>2024-03-13T14:06:10.000Z</time>
      </trkpt>
      <trkpt lat="43.68544" lon="6.18482">
        <ele>804.2</ele>
        <time>2024-03-13T14:06:19.000Z</time>
      </trkpt>
      <trkpt lat="43.68545" lon="6.18488">
        <ele>805.6</ele>
        <time>2024-03-13T14:06:28.000Z</time>
      </trkpt>
      <trkpt lat="43.68549" lon="6.18493">
        <ele>807</ele>
        <time>2024-03-13T14:06:37.000Z</time>
      </trkpt>
      <trkpt lat="43.68554" lon="6.18496">
        <ele>808.3</ele>
        <time>2024-03-13T14:06:45.000Z</time>
      </trkpt>
      <trkpt lat="43.68557" lon="6.185">
        <ele>809.7</ele>
        <time>2024-03-13T14:06:54.000Z</time>
      </trkpt>
      <trkpt lat="43.68561" lon="6.18504">
        <ele>810.6</ele>
        <time>2024-03-13T14:07:01.000Z</time>
      </trkpt>
      <trkpt lat="43.68566" lon="6.18508">
        <ele>812.5</ele>
        <time>2024-03-13T14:07:12.000Z</time>
      </trkpt>
      <trkpt lat="43.68569" lon="6.18513">
        <ele>813.8</ele>
        <time>2024-03-13T14:07:19.000Z</time>
      </trkpt>
      <trkpt lat="43.68572" lon="6.18517">
        <ele>815.1</ele>
        <time>2024-03-13T14:07:28.000Z</time>
      </trkpt>
      <trkpt lat="43.68576" lon="6.18522">
        <ele>816.4</ele>
        <time>2024-03-13T14:07:36.000Z</time>
      </trkpt>
      <trkpt lat="43.68579" lon="6.18527">
        <ele>817.8</ele>
        <time>2024-03-13T14:07:44.000Z</time>
      </trkpt>
      <trkpt lat="43.68583" lon="6.18531">
        <ele>819.3</ele>
        <time>2024-03-13T14:07:52.000Z</time>
      </trkpt>
      <trkpt lat="43.68586" lon="6.18535">
        <ele>820.2</ele>
        <time>2024-03-13T14:07:59.000Z</time>
      </trkpt>
      <trkpt lat="43.68588" lon="6.18541">
        <ele>821.4</ele>
        <time>2024-03-13T14:08:06.000Z</time>
      </trkpt>
      <trkpt lat="43.6859" lon="6.18547">
        <ele>823</ele>
        <time>2024-03-13T14:08:14.000Z</time>
      </trkpt>
      <trkpt lat="43.68592" lon="6.18554">
        <ele>824.5</ele>
        <time>2024-03-13T14:08:23.000Z</time>
      </trkpt>
      <trkpt lat="43.68594" lon="6.1856">
        <ele>825.7</ele>
        <time>2024-03-13T14:08:30.000Z</time>
      </trkpt>
      <trkpt lat="43.68594" lon="6.18567">
        <ele>826.8</ele>
        <time>2024-03-13T14:08:37.000Z</time>
      </trkpt>
      <trkpt lat="43.68592" lon="6.18572">
        <ele>828.6</ele>
        <time>2024-03-13T14:08:48.000Z</time>
      </trkpt>
      <trkpt lat="43.68588" lon="6.18576">
        <ele>830.3</ele>
        <time>2024-03-13T14:08:59.000Z</time>
      </trkpt>
      <trkpt lat="43.68583" lon="6.18579">
        <ele>831.8</ele>
        <time>2024-03-13T14:09:08.000Z</time>
      </trkpt>
      <trkpt lat="43.68579" lon="6.18581">
        <ele>833</ele>
        <time>2024-03-13T14:09:15.000Z</time>
      </trkpt>
      <trkpt lat="43.68574" lon="6.18584">
        <ele>833.9</ele>
        <time>2024-03-13T14:09:22.000Z</time>
      </trkpt>
      <trkpt lat="43.6857" lon="6.18586">
        <ele>836.4</ele>
        <time>2024-03-13T14:10:58.000Z</time>
      </trkpt>
      <trkpt lat="43.68569" lon="6.1858">
        <ele>836.3</ele>
        <time>2024-03-13T14:11:51.000Z</time>
      </trkpt>
      <trkpt lat="43.6857" lon="6.18586">
        <ele>836.3</ele>
        <time>2024-03-13T14:12:20.000Z</time>
      </trkpt>
      <trkpt lat="43.68567" lon="6.18592">
        <ele>835</ele>
        <time>2024-03-13T14:14:27.000Z</time>
      </trkpt>
      <trkpt lat="43.68571" lon="6.18593">
        <ele>834.1</ele>
        <time>2024-03-13T14:15:27.000Z</time>
      </trkpt>
      <trkpt lat="43.68568" lon="6.18598">
        <ele>834.4</ele>
        <time>2024-03-13T14:16:17.000Z</time>
      </trkpt>
      <trkpt lat="43.68568" lon="6.18605">
        <ele>834.6</ele>
        <time>2024-03-13T14:16:28.000Z</time>
      </trkpt>
      <trkpt lat="43.68573" lon="6.18606">
        <ele>835.1</ele>
        <time>2024-03-13T14:16:41.000Z</time>
      </trkpt>
      <trkpt lat="43.68577" lon="6.18605">
        <ele>835.5</ele>
        <time>2024-03-13T14:16:51.000Z</time>
      </trkpt>
      <trkpt lat="43.68581" lon="6.18609">
        <ele>835.6</ele>
        <time>2024-03-13T14:16:58.000Z</time>
      </trkpt>
      <trkpt lat="43.68585" lon="6.18609">
        <ele>835.7</ele>
        <time>2024-03-13T14:17:08.000Z</time>
      </trkpt>
      <trkpt lat="43.6859" lon="6.18608">
        <ele>835.9</ele>
        <time>2024-03-13T14:17:15.000Z</time>
      </trkpt>
      <trkpt lat="43.68594" lon="6.18604">
        <ele>836.2</ele>
        <time>2024-03-13T14:17:43.000Z</time>
      </trkpt>
      <trkpt lat="43.68598" lon="6.18606">
        <ele>836.3</ele>
        <time>2024-03-13T14:18:05.000Z</time>
      </trkpt>
      <trkpt lat="43.686" lon="6.18612">
        <ele>836.8</ele>
        <time>2024-03-13T14:18:22.000Z</time>
      </trkpt>
      <trkpt lat="43.68603" lon="6.18617">
        <ele>838</ele>
        <time>2024-03-13T14:18:48.000Z</time>
      </trkpt>
      <trkpt lat="43.68608" lon="6.18618">
        <ele>838.2</ele>
        <time>2024-03-13T14:18:55.000Z</time>
      </trkpt>
      <trkpt lat="43.68613" lon="6.18621">
        <ele>838.4</ele>
        <time>2024-03-13T14:19:00.000Z</time>
      </trkpt>
      <trkpt lat="43.68616" lon="6.18625">
        <ele>838.4</ele>
        <time>2024-03-13T14:19:05.000Z</time>
      </trkpt>
      <trkpt lat="43.68618" lon="6.18631">
        <ele>838.7</ele>
        <time>2024-03-13T14:19:14.000Z</time>
      </trkpt>
      <trkpt lat="43.6862" lon="6.18637">
        <ele>839.1</ele>
        <time>2024-03-13T14:19:20.000Z</time>
      </trkpt>
      <trkpt lat="43.68621" lon="6.18644">
        <ele>839.7</ele>
        <time>2024-03-13T14:19:26.000Z</time>
      </trkpt>
      <trkpt lat="43.68624" lon="6.18649">
        <ele>840.3</ele>
        <time>2024-03-13T14:19:35.000Z</time>
      </trkpt>
      <trkpt lat="43.68625" lon="6.18655">
        <ele>841.2</ele>
        <time>2024-03-13T14:19:42.000Z</time>
      </trkpt>
      <trkpt lat="43.68625" lon="6.18662">
        <ele>842.5</ele>
        <time>2024-03-13T14:19:51.000Z</time>
      </trkpt>
      <trkpt lat="43.68625" lon="6.18669">
        <ele>843.7</ele>
        <time>2024-03-13T14:20:00.000Z</time>
      </trkpt>
      <trkpt lat="43.68626" lon="6.18675">
        <ele>844.6</ele>
        <time>2024-03-13T14:20:07.000Z</time>
      </trkpt>
      <trkpt lat="43.68627" lon="6.18682">
        <ele>845.5</ele>
        <time>2024-03-13T14:20:14.000Z</time>
      </trkpt>
      <trkpt lat="43.68627" lon="6.18689">
        <ele>847.2</ele>
        <time>2024-03-13T14:20:26.000Z</time>
      </trkpt>
      <trkpt lat="43.68626" lon="6.18695">
        <ele>848.8</ele>
        <time>2024-03-13T14:20:36.000Z</time>
      </trkpt>
      <trkpt lat="43.68626" lon="6.18702">
        <ele>850.2</ele>
        <time>2024-03-13T14:20:44.000Z</time>
      </trkpt>
      <trkpt lat="43.68627" lon="6.18709">
        <ele>851.7</ele>
        <time>2024-03-13T14:20:54.000Z</time>
      </trkpt>
      <trkpt lat="43.68626" lon="6.18715">
        <ele>854.5</ele>
        <time>2024-03-13T14:21:09.000Z</time>
      </trkpt>
      <trkpt lat="43.68628" lon="6.18721">
        <ele>855.4</ele>
        <time>2024-03-13T14:21:16.000Z</time>
      </trkpt>
      <trkpt lat="43.6863" lon="6.18727">
        <ele>856.1</ele>
        <time>2024-03-13T14:21:23.000Z</time>
      </trkpt>
      <trkpt lat="43.68635" lon="6.1873">
        <ele>857.1</ele>
        <time>2024-03-13T14:21:33.000Z</time>
      </trkpt>
      <trkpt lat="43.68637" lon="6.18735">
        <ele>858.2</ele>
        <time>2024-03-13T14:21:42.000Z</time>
      </trkpt>
      <trkpt lat="43.68637" lon="6.18742">
        <ele>860.3</ele>
        <time>2024-03-13T14:21:56.000Z</time>
      </trkpt>
      <trkpt lat="43.68638" lon="6.18748">
        <ele>862.1</ele>
        <time>2024-03-13T14:22:06.000Z</time>
      </trkpt>
      <trkpt lat="43.68641" lon="6.18753">
        <ele>863.2</ele>
        <time>2024-03-13T14:22:13.000Z</time>
      </trkpt>
      <trkpt lat="43.68645" lon="6.18757">
        <ele>865</ele>
        <time>2024-03-13T14:22:27.000Z</time>
      </trkpt>
      <trkpt lat="43.68647" lon="6.18763">
        <ele>866.7</ele>
        <time>2024-03-13T14:22:38.000Z</time>
      </trkpt>
      <trkpt lat="43.68646" lon="6.1877">
        <ele>868</ele>
        <time>2024-03-13T14:22:46.000Z</time>
      </trkpt>
      <trkpt lat="43.68642" lon="6.18774">
        <ele>869.4</ele>
        <time>2024-03-13T14:22:55.000Z</time>
      </trkpt>
      <trkpt lat="43.6864" lon="6.1878">
        <ele>871.1</ele>
        <time>2024-03-13T14:23:06.000Z</time>
      </trkpt>
      <trkpt lat="43.68638" lon="6.18786">
        <ele>872.4</ele>
        <time>2024-03-13T14:23:16.000Z</time>
      </trkpt>
      <trkpt lat="43.68638" lon="6.18793">
        <ele>873.7</ele>
        <time>2024-03-13T14:23:25.000Z</time>
      </trkpt>
      <trkpt lat="43.68639" lon="6.18799">
        <ele>874.9</ele>
        <time>2024-03-13T14:23:32.000Z</time>
      </trkpt>
      <trkpt lat="43.68642" lon="6.18804">
        <ele>876.1</ele>
        <time>2024-03-13T14:23:39.000Z</time>
      </trkpt>
      <trkpt lat="43.68644" lon="6.1881">
        <ele>877.2</ele>
        <time>2024-03-13T14:23:47.000Z</time>
      </trkpt>
      <trkpt lat="43.68646" lon="6.18816">
        <ele>878.8</ele>
        <time>2024-03-13T14:23:58.000Z</time>
      </trkpt>
      <trkpt lat="43.68641" lon="6.18818">
        <ele>880.4</ele>
        <time>2024-03-13T14:24:09.000Z</time>
      </trkpt>
      <trkpt lat="43.68641" lon="6.18824">
        <ele>882.4</ele>
        <time>2024-03-13T14:24:22.000Z</time>
      </trkpt>
      <trkpt lat="43.6864" lon="6.18831">
        <ele>884.8</ele>
        <time>2024-03-13T14:24:39.000Z</time>
      </trkpt>
      <trkpt lat="43.68641" lon="6.18838">
        <ele>887.1</ele>
        <time>2024-03-13T14:24:56.000Z</time>
      </trkpt>
      <trkpt lat="43.68639" lon="6.18844">
        <ele>890</ele>
        <time>2024-03-13T14:25:15.000Z</time>
      </trkpt>
      <trkpt lat="43.68638" lon="6.18851">
        <ele>891.7</ele>
        <time>2024-03-13T14:25:25.000Z</time>
      </trkpt>
      <trkpt lat="43.68639" lon="6.18857">
        <ele>892.8</ele>
        <time>2024-03-13T14:25:32.000Z</time>
      </trkpt>
      <trkpt lat="43.68639" lon="6.18864">
        <ele>894.4</ele>
        <time>2024-03-13T14:25:43.000Z</time>
      </trkpt>
      <trkpt lat="43.68641" lon="6.1887">
        <ele>895.7</ele>
        <time>2024-03-13T14:25:52.000Z</time>
      </trkpt>
      <trkpt lat="43.6864" lon="6.18876">
        <ele>897</ele>
        <time>2024-03-13T14:26:03.000Z</time>
      </trkpt>
      <trkpt lat="43.68642" lon="6.18882">
        <ele>898.6</ele>
        <time>2024-03-13T14:26:13.000Z</time>
      </trkpt>
      <trkpt lat="43.68642" lon="6.18889">
        <ele>901</ele>
        <time>2024-03-13T14:26:28.000Z</time>
      </trkpt>
      <trkpt lat="43.68639" lon="6.18894">
        <ele>902.9</ele>
        <time>2024-03-13T14:26:40.000Z</time>
      </trkpt>
      <trkpt lat="43.68636" lon="6.18898">
        <ele>904.2</ele>
        <time>2024-03-13T14:26:51.000Z</time>
      </trkpt>
      <trkpt lat="43.68634" lon="6.18904">
        <ele>905.3</ele>
        <time>2024-03-13T14:27:01.000Z</time>
      </trkpt>
      <trkpt lat="43.68631" lon="6.18909">
        <ele>906.6</ele>
        <time>2024-03-13T14:27:14.000Z</time>
      </trkpt>
      <trkpt lat="43.68629" lon="6.18915">
        <ele>908.4</ele>
        <time>2024-03-13T14:27:26.000Z</time>
      </trkpt>
      <trkpt lat="43.68628" lon="6.18921">
        <ele>910.4</ele>
        <time>2024-03-13T14:27:41.000Z</time>
      </trkpt>
      <trkpt lat="43.68629" lon="6.18929">
        <ele>911.8</ele>
        <time>2024-03-13T14:27:51.000Z</time>
      </trkpt>
      <trkpt lat="43.6863" lon="6.18935">
        <ele>912.6</ele>
        <time>2024-03-13T14:27:59.000Z</time>
      </trkpt>
      <trkpt lat="43.6863" lon="6.18942">
        <ele>913.5</ele>
        <time>2024-03-13T14:28:08.000Z</time>
      </trkpt>
      <trkpt lat="43.6863" lon="6.18949">
        <ele>914.8</ele>
        <time>2024-03-13T14:28:18.000Z</time>
      </trkpt>
      <trkpt lat="43.6863" lon="6.18955">
        <ele>916.3</ele>
        <time>2024-03-13T14:28:29.000Z</time>
      </trkpt>
      <trkpt lat="43.68629" lon="6.18962">
        <ele>917.5</ele>
        <time>2024-03-13T14:28:40.000Z</time>
      </trkpt>
      <trkpt lat="43.68631" lon="6.18968">
        <ele>918.5</ele>
        <time>2024-03-13T14:28:48.000Z</time>
      </trkpt>
      <trkpt lat="43.68635" lon="6.18972">
        <ele>919.2</ele>
        <time>2024-03-13T14:28:55.000Z</time>
      </trkpt>
      <trkpt lat="43.68637" lon="6.18979">
        <ele>919.8</ele>
        <time>2024-03-13T14:29:03.000Z</time>
      </trkpt>
      <trkpt lat="43.68638" lon="6.18985">
        <ele>921</ele>
        <time>2024-03-13T14:29:13.000Z</time>
      </trkpt>
      <trkpt lat="43.68636" lon="6.18991">
        <ele>921.6</ele>
        <time>2024-03-13T14:29:20.000Z</time>
      </trkpt>
      <trkpt lat="43.68634" lon="6.18997">
        <ele>922.3</ele>
        <time>2024-03-13T14:29:28.000Z</time>
      </trkpt>
      <trkpt lat="43.68633" lon="6.19004">
        <ele>922.8</ele>
        <time>2024-03-13T14:29:37.000Z</time>
      </trkpt>
      <trkpt lat="43.68634" lon="6.19011">
        <ele>923.3</ele>
        <time>2024-03-13T14:29:45.000Z</time>
      </trkpt>
      <trkpt lat="43.68634" lon="6.19018">
        <ele>924</ele>
        <time>2024-03-13T14:29:55.000Z</time>
      </trkpt>
      <trkpt lat="43.68637" lon="6.19023">
        <ele>924.4</ele>
        <time>2024-03-13T14:30:03.000Z</time>
      </trkpt>
      <trkpt lat="43.68638" lon="6.19029">
        <ele>924.6</ele>
        <time>2024-03-13T14:30:11.000Z</time>
      </trkpt>
      <trkpt lat="43.68641" lon="6.19035">
        <ele>924.8</ele>
        <time>2024-03-13T14:30:17.000Z</time>
      </trkpt>
      <trkpt lat="43.68645" lon="6.19037">
        <ele>925</ele>
        <time>2024-03-13T14:30:24.000Z</time>
      </trkpt>
      <trkpt lat="43.68649" lon="6.19041">
        <ele>925.3</ele>
        <time>2024-03-13T14:30:31.000Z</time>
      </trkpt>
      <trkpt lat="43.68651" lon="6.19047">
        <ele>925.5</ele>
        <time>2024-03-13T14:30:37.000Z</time>
      </trkpt>
      <trkpt lat="43.68653" lon="6.19053">
        <ele>925.6</ele>
        <time>2024-03-13T14:30:43.000Z</time>
      </trkpt>
      <trkpt lat="43.68655" lon="6.19058">
        <ele>925.8</ele>
        <time>2024-03-13T14:30:48.000Z</time>
      </trkpt>
      <trkpt lat="43.68658" lon="6.19063">
        <ele>926.1</ele>
        <time>2024-03-13T14:30:58.000Z</time>
      </trkpt>
      <trkpt lat="43.68663" lon="6.19065">
        <ele>926.3</ele>
        <time>2024-03-13T14:31:10.000Z</time>
      </trkpt>
      <trkpt lat="43.68666" lon="6.19061">
        <ele>926.3</ele>
        <time>2024-03-13T14:31:46.000Z</time>
      </trkpt>
      <trkpt lat="43.68671" lon="6.19059">
        <ele>926.3</ele>
        <time>2024-03-13T14:33:34.000Z</time>
      </trkpt>
      <trkpt lat="43.68675" lon="6.19062">
        <ele>927.5</ele>
        <time>2024-03-13T14:34:53.000Z</time>
      </trkpt>
      <trkpt lat="43.68672" lon="6.19057">
        <ele>928.6</ele>
        <time>2024-03-13T14:36:38.000Z</time>
      </trkpt>
      <trkpt lat="43.68669" lon="6.19063">
        <ele>928.7</ele>
        <time>2024-03-13T14:38:33.000Z</time>
      </trkpt>
      <trkpt lat="43.68674" lon="6.19064">
        <ele>927.8</ele>
        <time>2024-03-13T14:38:59.000Z</time>
      </trkpt>
      <trkpt lat="43.6867" lon="6.19069">
        <ele>927.3</ele>
        <time>2024-03-13T14:40:27.000Z</time>
      </trkpt>
      <trkpt lat="43.68667" lon="6.19074">
        <ele>927.2</ele>
        <time>2024-03-13T14:40:41.000Z</time>
      </trkpt>
      <trkpt lat="43.68665" lon="6.1908">
        <ele>927.2</ele>
        <time>2024-03-13T14:40:58.000Z</time>
      </trkpt>
      <trkpt lat="43.68661" lon="6.19084">
        <ele>927.2</ele>
        <time>2024-03-13T14:41:11.000Z</time>
      </trkpt>
      <trkpt lat="43.68656" lon="6.19088">
        <ele>927.2</ele>
        <time>2024-03-13T14:41:19.000Z</time>
      </trkpt>
      <trkpt lat="43.68655" lon="6.19094">
        <ele>927.6</ele>
        <time>2024-03-13T14:42:19.000Z</time>
      </trkpt>
      <trkpt lat="43.68651" lon="6.19098">
        <ele>927.6</ele>
        <time>2024-03-13T14:42:33.000Z</time>
      </trkpt>
      <trkpt lat="43.68646" lon="6.191">
        <ele>927.6</ele>
        <time>2024-03-13T14:42:40.000Z</time>
      </trkpt>
      <trkpt lat="43.68642" lon="6.19103">
        <ele>927.6</ele>
        <time>2024-03-13T14:42:46.000Z</time>
      </trkpt>
      <trkpt lat="43.68637" lon="6.19106">
        <ele>927.6</ele>
        <time>2024-03-13T14:42:52.000Z</time>
      </trkpt>
      <trkpt lat="43.68633" lon="6.1911">
        <ele>927.6</ele>
        <time>2024-03-13T14:42:57.000Z</time>
      </trkpt>
      <trkpt lat="43.6863" lon="6.19116">
        <ele>927.8</ele>
        <time>2024-03-13T14:43:02.000Z</time>
      </trkpt>
      <trkpt lat="43.68626" lon="6.19121">
        <ele>928.1</ele>
        <time>2024-03-13T14:43:07.000Z</time>
      </trkpt>
      <trkpt lat="43.68623" lon="6.19125">
        <ele>928.5</ele>
        <time>2024-03-13T14:43:14.000Z</time>
      </trkpt>
      <trkpt lat="43.6862" lon="6.1913">
        <ele>929.2</ele>
        <time>2024-03-13T14:43:28.000Z</time>
      </trkpt>
      <trkpt lat="43.68618" lon="6.19136">
        <ele>929.5</ele>
        <time>2024-03-13T14:43:38.000Z</time>
      </trkpt>
      <trkpt lat="43.6862" lon="6.19142">
        <ele>929.7</ele>
        <time>2024-03-13T14:43:46.000Z</time>
      </trkpt>
      <trkpt lat="43.6862" lon="6.19149">
        <ele>930.1</ele>
        <time>2024-03-13T14:43:52.000Z</time>
      </trkpt>
      <trkpt lat="43.68621" lon="6.19156">
        <ele>930.4</ele>
        <time>2024-03-13T14:43:58.000Z</time>
      </trkpt>
      <trkpt lat="43.6862" lon="6.19163">
        <ele>930.5</ele>
        <time>2024-03-13T14:44:05.000Z</time>
      </trkpt>
      <trkpt lat="43.68619" lon="6.1917">
        <ele>930.5</ele>
        <time>2024-03-13T14:44:12.000Z</time>
      </trkpt>
      <trkpt lat="43.68616" lon="6.19175">
        <ele>930.5</ele>
        <time>2024-03-13T14:44:19.000Z</time>
      </trkpt>
      <trkpt lat="43.68615" lon="6.19181">
        <ele>930.6</ele>
        <time>2024-03-13T14:44:26.000Z</time>
      </trkpt>
      <trkpt lat="43.68613" lon="6.19188">
        <ele>930.6</ele>
        <time>2024-03-13T14:44:33.000Z</time>
      </trkpt>
      <trkpt lat="43.68609" lon="6.19192">
        <ele>930.8</ele>
        <time>2024-03-13T14:44:39.000Z</time>
      </trkpt>
      <trkpt lat="43.68606" lon="6.19196">
        <ele>930.9</ele>
        <time>2024-03-13T14:44:44.000Z</time>
      </trkpt>
      <trkpt lat="43.68603" lon="6.19202">
        <ele>931</ele>
        <time>2024-03-13T14:44:51.000Z</time>
      </trkpt>
      <trkpt lat="43.68599" lon="6.19207">
        <ele>931.2</ele>
        <time>2024-03-13T14:44:58.000Z</time>
      </trkpt>
      <trkpt lat="43.68596" lon="6.19212">
        <ele>931.6</ele>
        <time>2024-03-13T14:45:04.000Z</time>
      </trkpt>
      <trkpt lat="43.68591" lon="6.19212">
        <ele>932.1</ele>
        <time>2024-03-13T14:45:11.000Z</time>
      </trkpt>
      <trkpt lat="43.68587" lon="6.19212">
        <ele>932.4</ele>
        <time>2024-03-13T14:45:17.000Z</time>
      </trkpt>
      <trkpt lat="43.68582" lon="6.19214">
        <ele>932.7</ele>
        <time>2024-03-13T14:45:23.000Z</time>
      </trkpt>
      <trkpt lat="43.68578" lon="6.19218">
        <ele>933.3</ele>
        <time>2024-03-13T14:45:29.000Z</time>
      </trkpt>
      <trkpt lat="43.68573" lon="6.1922">
        <ele>933.6</ele>
        <time>2024-03-13T14:45:35.000Z</time>
      </trkpt>
      <trkpt lat="43.68569" lon="6.19225">
        <ele>933.9</ele>
        <time>2024-03-13T14:45:41.000Z</time>
      </trkpt>
      <trkpt lat="43.68565" lon="6.19229">
        <ele>934</ele>
        <time>2024-03-13T14:45:47.000Z</time>
      </trkpt>
      <trkpt lat="43.68562" lon="6.19235">
        <ele>934.2</ele>
        <time>2024-03-13T14:45:52.000Z</time>
      </trkpt>
      <trkpt lat="43.68559" lon="6.19239">
        <ele>934.4</ele>
        <time>2024-03-13T14:45:57.000Z</time>
      </trkpt>
      <trkpt lat="43.68556" lon="6.19244">
        <ele>934.5</ele>
        <time>2024-03-13T14:46:02.000Z</time>
      </trkpt>
      <trkpt lat="43.68554" lon="6.19251">
        <ele>934.5</ele>
        <time>2024-03-13T14:46:07.000Z</time>
      </trkpt>
      <trkpt lat="43.68551" lon="6.19257">
        <ele>934.4</ele>
        <time>2024-03-13T14:46:12.000Z</time>
      </trkpt>
      <trkpt lat="43.68548" lon="6.19262">
        <ele>934.4</ele>
        <time>2024-03-13T14:46:17.000Z</time>
      </trkpt>
      <trkpt lat="43.68544" lon="6.19265">
        <ele>934.5</ele>
        <time>2024-03-13T14:46:21.000Z</time>
      </trkpt>
      <trkpt lat="43.6854" lon="6.1927">
        <ele>934.5</ele>
        <time>2024-03-13T14:46:26.000Z</time>
      </trkpt>
      <trkpt lat="43.68536" lon="6.19274">
        <ele>934.5</ele>
        <time>2024-03-13T14:46:31.000Z</time>
      </trkpt>
      <trkpt lat="43.68532" lon="6.19278">
        <ele>934.6</ele>
        <time>2024-03-13T14:46:35.000Z</time>
      </trkpt>
      <trkpt lat="43.68528" lon="6.19282">
        <ele>934.7</ele>
        <time>2024-03-13T14:46:40.000Z</time>
      </trkpt>
      <trkpt lat="43.68524" lon="6.19285">
        <ele>934.9</ele>
        <time>2024-03-13T14:46:45.000Z</time>
      </trkpt>
      <trkpt lat="43.6852" lon="6.1929">
        <ele>934.9</ele>
        <time>2024-03-13T14:46:50.000Z</time>
      </trkpt>
      <trkpt lat="43.68516" lon="6.19295">
        <ele>935</ele>
        <time>2024-03-13T14:46:55.000Z</time>
      </trkpt>
      <trkpt lat="43.68513" lon="6.193">
        <ele>935.2</ele>
        <time>2024-03-13T14:46:59.000Z</time>
      </trkpt>
      <trkpt lat="43.68509" lon="6.19304">
        <ele>935.3</ele>
        <time>2024-03-13T14:47:04.000Z</time>
      </trkpt>
      <trkpt lat="43.68505" lon="6.19308">
        <ele>935.4</ele>
        <time>2024-03-13T14:47:09.000Z</time>
      </trkpt>
      <trkpt lat="43.68501" lon="6.19312">
        <ele>935.5</ele>
        <time>2024-03-13T14:47:14.000Z</time>
      </trkpt>
      <trkpt lat="43.68496" lon="6.19315">
        <ele>935.7</ele>
        <time>2024-03-13T14:47:20.000Z</time>
      </trkpt>
      <trkpt lat="43.68491" lon="6.19315">
        <ele>936</ele>
        <time>2024-03-13T14:47:26.000Z</time>
      </trkpt>
      <trkpt lat="43.68486" lon="6.19315">
        <ele>936.7</ele>
        <time>2024-03-13T14:47:32.000Z</time>
      </trkpt>
      <trkpt lat="43.68481" lon="6.19315">
        <ele>937.6</ele>
        <time>2024-03-13T14:47:38.000Z</time>
      </trkpt>
      <trkpt lat="43.68477" lon="6.19317">
        <ele>938.2</ele>
        <time>2024-03-13T14:47:43.000Z</time>
      </trkpt>
      <trkpt lat="43.68471" lon="6.19318">
        <ele>938.9</ele>
        <time>2024-03-13T14:47:50.000Z</time>
      </trkpt>
      <trkpt lat="43.68466" lon="6.19319">
        <ele>939.3</ele>
        <time>2024-03-13T14:47:55.000Z</time>
      </trkpt>
      <trkpt lat="43.68461" lon="6.19321">
        <ele>939.8</ele>
        <time>2024-03-13T14:48:00.000Z</time>
      </trkpt>
      <trkpt lat="43.68456" lon="6.19323">
        <ele>940.2</ele>
        <time>2024-03-13T14:48:05.000Z</time>
      </trkpt>
      <trkpt lat="43.68452" lon="6.19326">
        <ele>940.7</ele>
        <time>2024-03-13T14:48:10.000Z</time>
      </trkpt>
      <trkpt lat="43.68447" lon="6.19328">
        <ele>941</ele>
        <time>2024-03-13T14:48:15.000Z</time>
      </trkpt>
      <trkpt lat="43.68442" lon="6.19329">
        <ele>941.3</ele>
        <time>2024-03-13T14:48:20.000Z</time>
      </trkpt>
      <trkpt lat="43.68438" lon="6.19334">
        <ele>941.6</ele>
        <time>2024-03-13T14:48:25.000Z</time>
      </trkpt>
      <trkpt lat="43.68434" lon="6.19338">
        <ele>941.9</ele>
        <time>2024-03-13T14:48:31.000Z</time>
      </trkpt>
      <trkpt lat="43.68431" lon="6.19343">
        <ele>942.2</ele>
        <time>2024-03-13T14:48:36.000Z</time>
      </trkpt>
      <trkpt lat="43.68427" lon="6.19347">
        <ele>942.5</ele>
        <time>2024-03-13T14:48:41.000Z</time>
      </trkpt>
      <trkpt lat="43.68423" lon="6.19351">
        <ele>943</ele>
        <time>2024-03-13T14:48:46.000Z</time>
      </trkpt>
      <trkpt lat="43.68418" lon="6.19353">
        <ele>943.4</ele>
        <time>2024-03-13T14:48:51.000Z</time>
      </trkpt>
      <trkpt lat="43.68414" lon="6.19357">
        <ele>943.9</ele>
        <time>2024-03-13T14:48:58.000Z</time>
      </trkpt>
      <trkpt lat="43.6841" lon="6.19358">
        <ele>944.5</ele>
        <time>2024-03-13T14:49:04.000Z</time>
      </trkpt>
      <trkpt lat="43.68405" lon="6.19359">
        <ele>945</ele>
        <time>2024-03-13T14:49:10.000Z</time>
      </trkpt>
      <trkpt lat="43.684" lon="6.19361">
        <ele>945.4</ele>
        <time>2024-03-13T14:49:15.000Z</time>
      </trkpt>
      <trkpt lat="43.68396" lon="6.19365">
        <ele>946</ele>
        <time>2024-03-13T14:49:22.000Z</time>
      </trkpt>
      <trkpt lat="43.68392" lon="6.19367">
        <ele>946.4</ele>
        <time>2024-03-13T14:49:27.000Z</time>
      </trkpt>
      <trkpt lat="43.68387" lon="6.19369">
        <ele>946.8</ele>
        <time>2024-03-13T14:49:32.000Z</time>
      </trkpt>
      <trkpt lat="43.68383" lon="6.19372">
        <ele>947.2</ele>
        <time>2024-03-13T14:49:37.000Z</time>
      </trkpt>
      <trkpt lat="43.68379" lon="6.19376">
        <ele>947.8</ele>
        <time>2024-03-13T14:49:42.000Z</time>
      </trkpt>
      <trkpt lat="43.68375" lon="6.1938">
        <ele>948.5</ele>
        <time>2024-03-13T14:49:48.000Z</time>
      </trkpt>
      <trkpt lat="43.6837" lon="6.19381">
        <ele>949.2</ele>
        <time>2024-03-13T14:49:54.000Z</time>
      </trkpt>
      <trkpt lat="43.68366" lon="6.19385">
        <ele>949.7</ele>
        <time>2024-03-13T14:50:00.000Z</time>
      </trkpt>
      <trkpt lat="43.68361" lon="6.19389">
        <ele>950</ele>
        <time>2024-03-13T14:50:06.000Z</time>
      </trkpt>
      <trkpt lat="43.68357" lon="6.19393">
        <ele>950.3</ele>
        <time>2024-03-13T14:50:12.000Z</time>
      </trkpt>
      <trkpt lat="43.68354" lon="6.19398">
        <ele>950.7</ele>
        <time>2024-03-13T14:50:17.000Z</time>
      </trkpt>
      <trkpt lat="43.6835" lon="6.19403">
        <ele>951.1</ele>
        <time>2024-03-13T14:50:22.000Z</time>
      </trkpt>
      <trkpt lat="43.68346" lon="6.19406">
        <ele>951.4</ele>
        <time>2024-03-13T14:50:27.000Z</time>
      </trkpt>
      <trkpt lat="43.68342" lon="6.1941">
        <ele>951.7</ele>
        <time>2024-03-13T14:50:32.000Z</time>
      </trkpt>
      <trkpt lat="43.68339" lon="6.19414">
        <ele>952.1</ele>
        <time>2024-03-13T14:50:37.000Z</time>
      </trkpt>
      <trkpt lat="43.68334" lon="6.19417">
        <ele>952.9</ele>
        <time>2024-03-13T14:50:44.000Z</time>
      </trkpt>
      <trkpt lat="43.6833" lon="6.1942">
        <ele>953.4</ele>
        <time>2024-03-13T14:50:50.000Z</time>
      </trkpt>
      <trkpt lat="43.68326" lon="6.19424">
        <ele>953.9</ele>
        <time>2024-03-13T14:50:57.000Z</time>
      </trkpt>
      <trkpt lat="43.68323" lon="6.19429">
        <ele>954.3</ele>
        <time>2024-03-13T14:51:03.000Z</time>
      </trkpt>
      <trkpt lat="43.68318" lon="6.19433">
        <ele>954.8</ele>
        <time>2024-03-13T14:51:09.000Z</time>
      </trkpt>
      <trkpt lat="43.68315" lon="6.19437">
        <ele>955.3</ele>
        <time>2024-03-13T14:51:14.000Z</time>
      </trkpt>
      <trkpt lat="43.68311" lon="6.19442">
        <ele>955.9</ele>
        <time>2024-03-13T14:51:20.000Z</time>
      </trkpt>
      <trkpt lat="43.68307" lon="6.19446">
        <ele>956.7</ele>
        <time>2024-03-13T14:51:27.000Z</time>
      </trkpt>
      <trkpt lat="43.68307" lon="6.19453">
        <ele>957.3</ele>
        <time>2024-03-13T14:51:33.000Z</time>
      </trkpt>
      <trkpt lat="43.68304" lon="6.19458">
        <ele>957.8</ele>
        <time>2024-03-13T14:51:40.000Z</time>
      </trkpt>
      <trkpt lat="43.68303" lon="6.19465">
        <ele>958.3</ele>
        <time>2024-03-13T14:51:47.000Z</time>
      </trkpt>
      <trkpt lat="43.683" lon="6.19469">
        <ele>958.6</ele>
        <time>2024-03-13T14:51:53.000Z</time>
      </trkpt>
      <trkpt lat="43.68296" lon="6.19473">
        <ele>958.9</ele>
        <time>2024-03-13T14:51:59.000Z</time>
      </trkpt>
      <trkpt lat="43.68292" lon="6.19477">
        <ele>959.3</ele>
        <time>2024-03-13T14:52:10.000Z</time>
      </trkpt>
      <trkpt lat="43.6829" lon="6.19483">
        <ele>959.7</ele>
        <time>2024-03-13T14:52:19.000Z</time>
      </trkpt>
      <trkpt lat="43.68288" lon="6.19489">
        <ele>960.3</ele>
        <time>2024-03-13T14:52:27.000Z</time>
      </trkpt>
      <trkpt lat="43.68286" lon="6.19494">
        <ele>960.7</ele>
        <time>2024-03-13T14:52:34.000Z</time>
      </trkpt>
      <trkpt lat="43.68285" lon="6.19501">
        <ele>961</ele>
        <time>2024-03-13T14:52:40.000Z</time>
      </trkpt>
      <trkpt lat="43.68283" lon="6.19507">
        <ele>961.2</ele>
        <time>2024-03-13T14:52:48.000Z</time>
      </trkpt>
      <trkpt lat="43.68281" lon="6.19514">
        <ele>961.5</ele>
        <time>2024-03-13T14:52:54.000Z</time>
      </trkpt>
      <trkpt lat="43.68278" lon="6.1952">
        <ele>961.8</ele>
        <time>2024-03-13T14:53:00.000Z</time>
      </trkpt>
      <trkpt lat="43.68275" lon="6.19524">
        <ele>962.2</ele>
        <time>2024-03-13T14:53:06.000Z</time>
      </trkpt>
      <trkpt lat="43.68272" lon="6.1953">
        <ele>962.7</ele>
        <time>2024-03-13T14:53:12.000Z</time>
      </trkpt>
      <trkpt lat="43.68269" lon="6.19535">
        <ele>963.1</ele>
        <time>2024-03-13T14:53:18.000Z</time>
      </trkpt>
      <trkpt lat="43.68267" lon="6.19541">
        <ele>963.3</ele>
        <time>2024-03-13T14:53:23.000Z</time>
      </trkpt>
      <trkpt lat="43.68265" lon="6.19547">
        <ele>963.5</ele>
        <time>2024-03-13T14:53:28.000Z</time>
      </trkpt>
      <trkpt lat="43.68262" lon="6.19551">
        <ele>963.8</ele>
        <time>2024-03-13T14:53:35.000Z</time>
      </trkpt>
      <trkpt lat="43.68257" lon="6.19549">
        <ele>964.2</ele>
        <time>2024-03-13T14:53:42.000Z</time>
      </trkpt>
      <trkpt lat="43.68252" lon="6.19548">
        <ele>964.6</ele>
        <time>2024-03-13T14:53:50.000Z</time>
      </trkpt>
      <trkpt lat="43.68248" lon="6.19546">
        <ele>965</ele>
        <time>2024-03-13T14:54:00.000Z</time>
      </trkpt>
      <trkpt lat="43.68244" lon="6.19543">
        <ele>965.3</ele>
        <time>2024-03-13T14:54:21.000Z</time>
      </trkpt>
      <trkpt lat="43.6824" lon="6.1954">
        <ele>964.8</ele>
        <time>2024-03-13T14:54:42.000Z</time>
      </trkpt>
      <trkpt lat="43.68235" lon="6.19542">
        <ele>964.2</ele>
        <time>2024-03-13T14:55:00.000Z</time>
      </trkpt>
      <trkpt lat="43.68231" lon="6.19545">
        <ele>964.1</ele>
        <time>2024-03-13T14:55:06.000Z</time>
      </trkpt>
      <trkpt lat="43.68227" lon="6.19548">
        <ele>964.1</ele>
        <time>2024-03-13T14:55:12.000Z</time>
      </trkpt>
      <trkpt lat="43.68222" lon="6.19551">
        <ele>964</ele>
        <time>2024-03-13T14:55:18.000Z</time>
      </trkpt>
      <trkpt lat="43.68218" lon="6.19553">
        <ele>963.4</ele>
        <time>2024-03-13T14:55:26.000Z</time>
      </trkpt>
      <trkpt lat="43.68213" lon="6.19557">
        <ele>963</ele>
        <time>2024-03-13T14:55:32.000Z</time>
      </trkpt>
      <trkpt lat="43.68208" lon="6.19559">
        <ele>962.5</ele>
        <time>2024-03-13T14:55:39.000Z</time>
      </trkpt>
      <trkpt lat="43.68204" lon="6.19562">
        <ele>962.3</ele>
        <time>2024-03-13T14:55:45.000Z</time>
      </trkpt>
      <trkpt lat="43.682" lon="6.19566">
        <ele>962.1</ele>
        <time>2024-03-13T14:55:51.000Z</time>
      </trkpt>
      <trkpt lat="43.68195" lon="6.19568">
        <ele>961.7</ele>
        <time>2024-03-13T14:55:58.000Z</time>
      </trkpt>
      <trkpt lat="43.68191" lon="6.1957">
        <ele>960.9</ele>
        <time>2024-03-13T14:56:07.000Z</time>
      </trkpt>
      <trkpt lat="43.68186" lon="6.19571">
        <ele>959.9</ele>
        <time>2024-03-13T14:56:15.000Z</time>
      </trkpt>
      <trkpt lat="43.68181" lon="6.19574">
        <ele>959.1</ele>
        <time>2024-03-13T14:56:22.000Z</time>
      </trkpt>
      <trkpt lat="43.68177" lon="6.19573">
        <ele>958.7</ele>
        <time>2024-03-13T14:56:26.000Z</time>
      </trkpt>
      <trkpt lat="43.68172" lon="6.19574">
        <ele>958.2</ele>
        <time>2024-03-13T14:56:31.000Z</time>
      </trkpt>
      <trkpt lat="43.68167" lon="6.19573">
        <ele>957.6</ele>
        <time>2024-03-13T14:56:38.000Z</time>
      </trkpt>
      <trkpt lat="43.68162" lon="6.19575">
        <ele>957</ele>
        <time>2024-03-13T14:56:44.000Z</time>
      </trkpt>
      <trkpt lat="43.68157" lon="6.19577">
        <ele>956.5</ele>
        <time>2024-03-13T14:56:49.000Z</time>
      </trkpt>
      <trkpt lat="43.68153" lon="6.1958">
        <ele>956.2</ele>
        <time>2024-03-13T14:56:54.000Z</time>
      </trkpt>
      <trkpt lat="43.68148" lon="6.19581">
        <ele>956</ele>
        <time>2024-03-13T14:57:00.000Z</time>
      </trkpt>
      <trkpt lat="43.68143" lon="6.19583">
        <ele>955.8</ele>
        <time>2024-03-13T14:57:07.000Z</time>
      </trkpt>
      <trkpt lat="43.68138" lon="6.19583">
        <ele>955.8</ele>
        <time>2024-03-13T14:57:12.000Z</time>
      </trkpt>
      <trkpt lat="43.68133" lon="6.19584">
        <ele>955.9</ele>
        <time>2024-03-13T14:57:16.000Z</time>
      </trkpt>
      <trkpt lat="43.68128" lon="6.19585">
        <ele>955.9</ele>
        <time>2024-03-13T14:57:21.000Z</time>
      </trkpt>
      <trkpt lat="43.68123" lon="6.19587">
        <ele>956</ele>
        <time>2024-03-13T14:57:26.000Z</time>
      </trkpt>
      <trkpt lat="43.68119" lon="6.1959">
        <ele>956</ele>
        <time>2024-03-13T14:57:31.000Z</time>
      </trkpt>
      <trkpt lat="43.68114" lon="6.19593">
        <ele>956.2</ele>
        <time>2024-03-13T14:57:36.000Z</time>
      </trkpt>
      <trkpt lat="43.6811" lon="6.19596">
        <ele>956.3</ele>
        <time>2024-03-13T14:57:41.000Z</time>
      </trkpt>
      <trkpt lat="43.68105" lon="6.19597">
        <ele>956.5</ele>
        <time>2024-03-13T14:57:46.000Z</time>
      </trkpt>
      <trkpt lat="43.681" lon="6.196">
        <ele>956.8</ele>
        <time>2024-03-13T14:57:51.000Z</time>
      </trkpt>
      <trkpt lat="43.68096" lon="6.19603">
        <ele>957</ele>
        <time>2024-03-13T14:57:56.000Z</time>
      </trkpt>
      <trkpt lat="43.68091" lon="6.19604">
        <ele>957.3</ele>
        <time>2024-03-13T14:58:02.000Z</time>
      </trkpt>
      <trkpt lat="43.68085" lon="6.19604">
        <ele>957.7</ele>
        <time>2024-03-13T14:58:07.000Z</time>
      </trkpt>
      <trkpt lat="43.68081" lon="6.19608">
        <ele>958.2</ele>
        <time>2024-03-13T14:58:12.000Z</time>
      </trkpt>
      <trkpt lat="43.68077" lon="6.19611">
        <ele>958.6</ele>
        <time>2024-03-13T14:58:17.000Z</time>
      </trkpt>
      <trkpt lat="43.68073" lon="6.19613">
        <ele>959</ele>
        <time>2024-03-13T14:58:22.000Z</time>
      </trkpt>
      <trkpt lat="43.68068" lon="6.19615">
        <ele>959.6</ele>
        <time>2024-03-13T14:58:29.000Z</time>
      </trkpt>
      <trkpt lat="43.68063" lon="6.19617">
        <ele>960.2</ele>
        <time>2024-03-13T14:58:35.000Z</time>
      </trkpt>
      <trkpt lat="43.68059" lon="6.19619">
        <ele>960.6</ele>
        <time>2024-03-13T14:58:41.000Z</time>
      </trkpt>
      <trkpt lat="43.68054" lon="6.19622">
        <ele>961</ele>
        <time>2024-03-13T14:58:46.000Z</time>
      </trkpt>
      <trkpt lat="43.6805" lon="6.19625">
        <ele>961.6</ele>
        <time>2024-03-13T14:58:52.000Z</time>
      </trkpt>
      <trkpt lat="43.68046" lon="6.1963">
        <ele>962</ele>
        <time>2024-03-13T14:58:58.000Z</time>
      </trkpt>
      <trkpt lat="43.68042" lon="6.19634">
        <ele>962.5</ele>
        <time>2024-03-13T14:59:03.000Z</time>
      </trkpt>
      <trkpt lat="43.68038" lon="6.19637">
        <ele>962.9</ele>
        <time>2024-03-13T14:59:08.000Z</time>
      </trkpt>
      <trkpt lat="43.68033" lon="6.19638">
        <ele>963.7</ele>
        <time>2024-03-13T14:59:15.000Z</time>
      </trkpt>
      <trkpt lat="43.68028" lon="6.19637">
        <ele>964.2</ele>
        <time>2024-03-13T14:59:20.000Z</time>
      </trkpt>
      <trkpt lat="43.68023" lon="6.1964">
        <ele>964.9</ele>
        <time>2024-03-13T14:59:26.000Z</time>
      </trkpt>
      <trkpt lat="43.68018" lon="6.1964">
        <ele>965.6</ele>
        <time>2024-03-13T14:59:32.000Z</time>
      </trkpt>
      <trkpt lat="43.68013" lon="6.19642">
        <ele>966.1</ele>
        <time>2024-03-13T14:59:38.000Z</time>
      </trkpt>
      <trkpt lat="43.68009" lon="6.19644">
        <ele>966.5</ele>
        <time>2024-03-13T14:59:44.000Z</time>
      </trkpt>
      <trkpt lat="43.68005" lon="6.19647">
        <ele>967</ele>
        <time>2024-03-13T14:59:51.000Z</time>
      </trkpt>
      <trkpt lat="43.68002" lon="6.19652">
        <ele>969</ele>
        <time>2024-03-13T15:02:44.000Z</time>
      </trkpt>
      <trkpt lat="43.67997" lon="6.19652">
        <ele>968.9</ele>
        <time>2024-03-13T15:05:33.000Z</time>
      </trkpt>
      <trkpt lat="43.67992" lon="6.19653">
        <ele>968.9</ele>
        <time>2024-03-13T15:05:40.000Z</time>
      </trkpt>
      <trkpt lat="43.67988" lon="6.19654">
        <ele>968.9</ele>
        <time>2024-03-13T15:05:45.000Z</time>
      </trkpt>
      <trkpt lat="43.67982" lon="6.19654">
        <ele>968.9</ele>
        <time>2024-03-13T15:05:51.000Z</time>
      </trkpt>
      <trkpt lat="43.67977" lon="6.19653">
        <ele>969</ele>
        <time>2024-03-13T15:05:56.000Z</time>
      </trkpt>
      <trkpt lat="43.67973" lon="6.19653">
        <ele>969</ele>
        <time>2024-03-13T15:06:01.000Z</time>
      </trkpt>
      <trkpt lat="43.67968" lon="6.19655">
        <ele>968.9</ele>
        <time>2024-03-13T15:06:06.000Z</time>
      </trkpt>
      <trkpt lat="43.67963" lon="6.19656">
        <ele>968.9</ele>
        <time>2024-03-13T15:06:11.000Z</time>
      </trkpt>
      <trkpt lat="43.6796" lon="6.19659">
        <ele>968.8</ele>
        <time>2024-03-13T15:06:16.000Z</time>
      </trkpt>
      <trkpt lat="43.67957" lon="6.19665">
        <ele>968.1</ele>
        <time>2024-03-13T15:06:22.000Z</time>
      </trkpt>
      <trkpt lat="43.67954" lon="6.19669">
        <ele>967.5</ele>
        <time>2024-03-13T15:06:28.000Z</time>
      </trkpt>
      <trkpt lat="43.6795" lon="6.19674">
        <ele>967</ele>
        <time>2024-03-13T15:06:34.000Z</time>
      </trkpt>
      <trkpt lat="43.67946" lon="6.19679">
        <ele>966.6</ele>
        <time>2024-03-13T15:06:40.000Z</time>
      </trkpt>
      <trkpt lat="43.67941" lon="6.19682">
        <ele>966.4</ele>
        <time>2024-03-13T15:06:46.000Z</time>
      </trkpt>
      <trkpt lat="43.67937" lon="6.19684">
        <ele>966.2</ele>
        <time>2024-03-13T15:06:51.000Z</time>
      </trkpt>
      <trkpt lat="43.67933" lon="6.19688">
        <ele>965.7</ele>
        <time>2024-03-13T15:06:56.000Z</time>
      </trkpt>
      <trkpt lat="43.6793" lon="6.19693">
        <ele>965.2</ele>
        <time>2024-03-13T15:07:01.000Z</time>
      </trkpt>
      <trkpt lat="43.67925" lon="6.19697">
        <ele>964.7</ele>
        <time>2024-03-13T15:07:06.000Z</time>
      </trkpt>
      <trkpt lat="43.67921" lon="6.197">
        <ele>964.4</ele>
        <time>2024-03-13T15:07:10.000Z</time>
      </trkpt>
      <trkpt lat="43.67918" lon="6.19705">
        <ele>963.8</ele>
        <time>2024-03-13T15:07:15.000Z</time>
      </trkpt>
      <trkpt lat="43.67914" lon="6.19708">
        <ele>963.3</ele>
        <time>2024-03-13T15:07:19.000Z</time>
      </trkpt>
      <trkpt lat="43.6791" lon="6.19712">
        <ele>962.7</ele>
        <time>2024-03-13T15:07:25.000Z</time>
      </trkpt>
      <trkpt lat="43.67908" lon="6.19718">
        <ele>961.7</ele>
        <time>2024-03-13T15:08:00.000Z</time>
      </trkpt>
      <trkpt lat="43.67903" lon="6.19722">
        <ele>961.5</ele>
        <time>2024-03-13T15:08:07.000Z</time>
      </trkpt>
      <trkpt lat="43.679" lon="6.19726">
        <ele>961.3</ele>
        <time>2024-03-13T15:08:13.000Z</time>
      </trkpt>
      <trkpt lat="43.67896" lon="6.19731">
        <ele>961.2</ele>
        <time>2024-03-13T15:08:18.000Z</time>
      </trkpt>
      <trkpt lat="43.67894" lon="6.19737">
        <ele>961.2</ele>
        <time>2024-03-13T15:08:24.000Z</time>
      </trkpt>
      <trkpt lat="43.67891" lon="6.19742">
        <ele>961.2</ele>
        <time>2024-03-13T15:08:29.000Z</time>
      </trkpt>
      <trkpt lat="43.67889" lon="6.19747">
        <ele>961.2</ele>
        <time>2024-03-13T15:08:35.000Z</time>
      </trkpt>
      <trkpt lat="43.67885" lon="6.19752">
        <ele>961.2</ele>
        <time>2024-03-13T15:08:43.000Z</time>
      </trkpt>
      <trkpt lat="43.67881" lon="6.19757">
        <ele>961.1</ele>
        <time>2024-03-13T15:08:48.000Z</time>
      </trkpt>
      <trkpt lat="43.67879" lon="6.19762">
        <ele>961</ele>
        <time>2024-03-13T15:08:53.000Z</time>
      </trkpt>
      <trkpt lat="43.67876" lon="6.19768">
        <ele>960.6</ele>
        <time>2024-03-13T15:09:00.000Z</time>
      </trkpt>
      <trkpt lat="43.67872" lon="6.19772">
        <ele>960.4</ele>
        <time>2024-03-13T15:09:07.000Z</time>
      </trkpt>
      <trkpt lat="43.67868" lon="6.19778">
        <ele>960.3</ele>
        <time>2024-03-13T15:09:11.000Z</time>
      </trkpt>
      <trkpt lat="43.67866" lon="6.19783">
        <ele>960.1</ele>
        <time>2024-03-13T15:09:15.000Z</time>
      </trkpt>
      <trkpt lat="43.67863" lon="6.19789">
        <ele>959.9</ele>
        <time>2024-03-13T15:09:20.000Z</time>
      </trkpt>
      <trkpt lat="43.6786" lon="6.19794">
        <ele>959.9</ele>
        <time>2024-03-13T15:09:24.000Z</time>
      </trkpt>
      <trkpt lat="43.67857" lon="6.19798">
        <ele>959.8</ele>
        <time>2024-03-13T15:09:29.000Z</time>
      </trkpt>
      <trkpt lat="43.67852" lon="6.19801">
        <ele>960.1</ele>
        <time>2024-03-13T15:09:35.000Z</time>
      </trkpt>
      <trkpt lat="43.67848" lon="6.19803">
        <ele>960.5</ele>
        <time>2024-03-13T15:09:43.000Z</time>
      </trkpt>
      <trkpt lat="43.67843" lon="6.19804">
        <ele>961.4</ele>
        <time>2024-03-13T15:09:53.000Z</time>
      </trkpt>
      <trkpt lat="43.67839" lon="6.19807">
        <ele>961.9</ele>
        <time>2024-03-13T15:09:59.000Z</time>
      </trkpt>
      <trkpt lat="43.67835" lon="6.19808">
        <ele>962.9</ele>
        <time>2024-03-13T15:10:07.000Z</time>
      </trkpt>
      <trkpt lat="43.67831" lon="6.19811">
        <ele>963.6</ele>
        <time>2024-03-13T15:10:12.000Z</time>
      </trkpt>
      <trkpt lat="43.67828" lon="6.19816">
        <ele>964.2</ele>
        <time>2024-03-13T15:10:17.000Z</time>
      </trkpt>
      <trkpt lat="43.67825" lon="6.19821">
        <ele>964.9</ele>
        <time>2024-03-13T15:10:22.000Z</time>
      </trkpt>
      <trkpt lat="43.6782" lon="6.19824">
        <ele>965.8</ele>
        <time>2024-03-13T15:10:28.000Z</time>
      </trkpt>
      <trkpt lat="43.67816" lon="6.19823">
        <ele>966.8</ele>
        <time>2024-03-13T15:10:35.000Z</time>
      </trkpt>
      <trkpt lat="43.67811" lon="6.19822">
        <ele>967.6</ele>
        <time>2024-03-13T15:10:41.000Z</time>
      </trkpt>
      <trkpt lat="43.67807" lon="6.19827">
        <ele>969</ele>
        <time>2024-03-13T15:10:52.000Z</time>
      </trkpt>
      <trkpt lat="43.67803" lon="6.19831">
        <ele>969.4</ele>
        <time>2024-03-13T15:10:56.000Z</time>
      </trkpt>
      <trkpt lat="43.67799" lon="6.19834">
        <ele>969.9</ele>
        <time>2024-03-13T15:11:01.000Z</time>
      </trkpt>
      <trkpt lat="43.67796" lon="6.19838">
        <ele>970.5</ele>
        <time>2024-03-13T15:11:07.000Z</time>
      </trkpt>
      <trkpt lat="43.67792" lon="6.19843">
        <ele>971</ele>
        <time>2024-03-13T15:11:13.000Z</time>
      </trkpt>
      <trkpt lat="43.67789" lon="6.19848">
        <ele>971.3</ele>
        <time>2024-03-13T15:11:19.000Z</time>
      </trkpt>
      <trkpt lat="43.67786" lon="6.19853">
        <ele>971.7</ele>
        <time>2024-03-13T15:11:25.000Z</time>
      </trkpt>
      <trkpt lat="43.67783" lon="6.19859">
        <ele>972.4</ele>
        <time>2024-03-13T15:11:33.000Z</time>
      </trkpt>
      <trkpt lat="43.6778" lon="6.19863">
        <ele>973</ele>
        <time>2024-03-13T15:11:40.000Z</time>
      </trkpt>
      <trkpt lat="43.67775" lon="6.19864">
        <ele>973.4</ele>
        <time>2024-03-13T15:11:44.000Z</time>
      </trkpt>
      <trkpt lat="43.67771" lon="6.19867">
        <ele>974.1</ele>
        <time>2024-03-13T15:11:49.000Z</time>
      </trkpt>
      <trkpt lat="43.67766" lon="6.19868">
        <ele>974.9</ele>
        <time>2024-03-13T15:11:54.000Z</time>
      </trkpt>
      <trkpt lat="43.67762" lon="6.19871">
        <ele>976</ele>
        <time>2024-03-13T15:12:01.000Z</time>
      </trkpt>
      <trkpt lat="43.67757" lon="6.19873">
        <ele>977.3</ele>
        <time>2024-03-13T15:12:14.000Z</time>
      </trkpt>
      <trkpt lat="43.67754" lon="6.19878">
        <ele>979</ele>
        <time>2024-03-13T15:12:44.000Z</time>
      </trkpt>
      <trkpt lat="43.67751" lon="6.19884">
        <ele>979.2</ele>
        <time>2024-03-13T15:12:52.000Z</time>
      </trkpt>
      <trkpt lat="43.67747" lon="6.19889">
        <ele>979.3</ele>
        <time>2024-03-13T15:13:00.000Z</time>
      </trkpt>
      <trkpt lat="43.67744" lon="6.19893">
        <ele>979.6</ele>
        <time>2024-03-13T15:13:11.000Z</time>
      </trkpt>
      <trkpt lat="43.67741" lon="6.19899">
        <ele>980</ele>
        <time>2024-03-13T15:13:23.000Z</time>
      </trkpt>
      <trkpt lat="43.67737" lon="6.19901">
        <ele>980.4</ele>
        <time>2024-03-13T15:13:30.000Z</time>
      </trkpt>
      <trkpt lat="43.67733" lon="6.19904">
        <ele>981</ele>
        <time>2024-03-13T15:13:38.000Z</time>
      </trkpt>
      <trkpt lat="43.67729" lon="6.19907">
        <ele>982.8</ele>
        <time>2024-03-13T15:14:11.000Z</time>
      </trkpt>
      <trkpt lat="43.67725" lon="6.19912">
        <ele>984.5</ele>
        <time>2024-03-13T15:15:24.000Z</time>
      </trkpt>
      <trkpt lat="43.67723" lon="6.19918">
        <ele>984.6</ele>
        <time>2024-03-13T15:15:31.000Z</time>
      </trkpt>
      <trkpt lat="43.67723" lon="6.19925">
        <ele>984.6</ele>
        <time>2024-03-13T15:15:38.000Z</time>
      </trkpt>
      <trkpt lat="43.67721" lon="6.19931">
        <ele>984.6</ele>
        <time>2024-03-13T15:15:44.000Z</time>
      </trkpt>
      <trkpt lat="43.67719" lon="6.19937">
        <ele>984.7</ele>
        <time>2024-03-13T15:15:52.000Z</time>
      </trkpt>
      <trkpt lat="43.67715" lon="6.19941">
        <ele>984.9</ele>
        <time>2024-03-13T15:15:59.000Z</time>
      </trkpt>
      <trkpt lat="43.67711" lon="6.19943">
        <ele>985.3</ele>
        <time>2024-03-13T15:16:06.000Z</time>
      </trkpt>
      <trkpt lat="43.67706" lon="6.19947">
        <ele>986.3</ele>
        <time>2024-03-13T15:16:14.000Z</time>
      </trkpt>
      <trkpt lat="43.67702" lon="6.1995">
        <ele>987.7</ele>
        <time>2024-03-13T15:16:23.000Z</time>
      </trkpt>
      <trkpt lat="43.67698" lon="6.1995">
        <ele>989.5</ele>
        <time>2024-03-13T15:16:36.000Z</time>
      </trkpt>
      <trkpt lat="43.67694" lon="6.19954">
        <ele>991.3</ele>
        <time>2024-03-13T15:16:49.000Z</time>
      </trkpt>
      <trkpt lat="43.6769" lon="6.19958">
        <ele>993.8</ele>
        <time>2024-03-13T15:17:11.000Z</time>
      </trkpt>
      <trkpt lat="43.67695" lon="6.19957">
        <ele>995.2</ele>
        <time>2024-03-13T15:17:50.000Z</time>
      </trkpt>
      <trkpt lat="43.6769" lon="6.19957">
        <ele>995.3</ele>
        <time>2024-03-13T15:18:09.000Z</time>
      </trkpt>
      <trkpt lat="43.67693" lon="6.19963">
        <ele>995.4</ele>
        <time>2024-03-13T15:18:56.000Z</time>
      </trkpt>
      <trkpt lat="43.67688" lon="6.19962">
        <ele>995.4</ele>
        <time>2024-03-13T15:19:11.000Z</time>
      </trkpt>
      <trkpt lat="43.67684" lon="6.19965">
        <ele>996</ele>
        <time>2024-03-13T15:19:28.000Z</time>
      </trkpt>
      <trkpt lat="43.67684" lon="6.19971">
        <ele>994.6</ele>
        <time>2024-03-13T15:27:07.000Z</time>
      </trkpt>
      <trkpt lat="43.67684" lon="6.19978">
        <ele>993.1</ele>
        <time>2024-03-13T15:27:24.000Z</time>
      </trkpt>
      <trkpt lat="43.67682" lon="6.19984">
        <ele>989.1</ele>
        <time>2024-03-13T15:28:12.000Z</time>
      </trkpt>
      <trkpt lat="43.67682" lon="6.19991">
        <ele>987.4</ele>
        <time>2024-03-13T15:28:35.000Z</time>
      </trkpt>
      <trkpt lat="43.67681" lon="6.19997">
        <ele>985.8</ele>
        <time>2024-03-13T15:28:49.000Z</time>
      </trkpt>
      <trkpt lat="43.67683" lon="6.20003">
        <ele>982.9</ele>
        <time>2024-03-13T15:29:12.000Z</time>
      </trkpt>
      <trkpt lat="43.67685" lon="6.20009">
        <ele>981</ele>
        <time>2024-03-13T15:29:29.000Z</time>
      </trkpt>
      <trkpt lat="43.67683" lon="6.20014">
        <ele>976.9</ele>
        <time>2024-03-13T15:30:27.000Z</time>
      </trkpt>
      <trkpt lat="43.6768" lon="6.20019">
        <ele>976.2</ele>
        <time>2024-03-13T15:30:35.000Z</time>
      </trkpt>
      <trkpt lat="43.67682" lon="6.20025">
        <ele>975.7</ele>
        <time>2024-03-13T15:30:43.000Z</time>
      </trkpt>
      <trkpt lat="43.67682" lon="6.20031">
        <ele>974.2</ele>
        <time>2024-03-13T15:30:53.000Z</time>
      </trkpt>
      <trkpt lat="43.67681" lon="6.20038">
        <ele>970.4</ele>
        <time>2024-03-13T15:31:22.000Z</time>
      </trkpt>
      <trkpt lat="43.67685" lon="6.20043">
        <ele>969.6</ele>
        <time>2024-03-13T15:31:29.000Z</time>
      </trkpt>
      <trkpt lat="43.67688" lon="6.20047">
        <ele>968.7</ele>
        <time>2024-03-13T15:31:39.000Z</time>
      </trkpt>
      <trkpt lat="43.67687" lon="6.20054">
        <ele>967</ele>
        <time>2024-03-13T15:31:49.000Z</time>
      </trkpt>
      <trkpt lat="43.67688" lon="6.2006">
        <ele>966.2</ele>
        <time>2024-03-13T15:31:59.000Z</time>
      </trkpt>
      <trkpt lat="43.6769" lon="6.20066">
        <ele>964.5</ele>
        <time>2024-03-13T15:32:57.000Z</time>
      </trkpt>
      <trkpt lat="43.67685" lon="6.20068">
        <ele>965.5</ele>
        <time>2024-03-13T15:33:46.000Z</time>
      </trkpt>
      <trkpt lat="43.67683" lon="6.20074">
        <ele>966</ele>
        <time>2024-03-13T15:33:54.000Z</time>
      </trkpt>
      <trkpt lat="43.67683" lon="6.20081">
        <ele>965.8</ele>
        <time>2024-03-13T15:34:07.000Z</time>
      </trkpt>
      <trkpt lat="43.67684" lon="6.20087">
        <ele>965.6</ele>
        <time>2024-03-13T15:34:11.000Z</time>
      </trkpt>
      <trkpt lat="43.67683" lon="6.20095">
        <ele>965.5</ele>
        <time>2024-03-13T15:34:16.000Z</time>
      </trkpt>
      <trkpt lat="43.67683" lon="6.20103">
        <ele>965.1</ele>
        <time>2024-03-13T15:34:22.000Z</time>
      </trkpt>
      <trkpt lat="43.67681" lon="6.20109">
        <ele>964.4</ele>
        <time>2024-03-13T15:34:27.000Z</time>
      </trkpt>
      <trkpt lat="43.67678" lon="6.20113">
        <ele>964.2</ele>
        <time>2024-03-13T15:34:32.000Z</time>
      </trkpt>
      <trkpt lat="43.67675" lon="6.20119">
        <ele>963.8</ele>
        <time>2024-03-13T15:34:38.000Z</time>
      </trkpt>
      <trkpt lat="43.67674" lon="6.20126">
        <ele>963.9</ele>
        <time>2024-03-13T15:34:42.000Z</time>
      </trkpt>
      <trkpt lat="43.67672" lon="6.20134">
        <ele>963.9</ele>
        <time>2024-03-13T15:34:46.000Z</time>
      </trkpt>
      <trkpt lat="43.67672" lon="6.20142">
        <ele>964.1</ele>
        <time>2024-03-13T15:34:52.000Z</time>
      </trkpt>
      <trkpt lat="43.6767" lon="6.20149">
        <ele>964.4</ele>
        <time>2024-03-13T15:34:57.000Z</time>
      </trkpt>
      <trkpt lat="43.67669" lon="6.20155">
        <ele>964.6</ele>
        <time>2024-03-13T15:35:02.000Z</time>
      </trkpt>
      <trkpt lat="43.67667" lon="6.20161">
        <ele>965</ele>
        <time>2024-03-13T15:35:08.000Z</time>
      </trkpt>
      <trkpt lat="43.67669" lon="6.20167">
        <ele>965.4</ele>
        <time>2024-03-13T15:35:13.000Z</time>
      </trkpt>
      <trkpt lat="43.67668" lon="6.20173">
        <ele>966.1</ele>
        <time>2024-03-13T15:35:20.000Z</time>
      </trkpt>
      <trkpt lat="43.67668" lon="6.2018">
        <ele>966.7</ele>
        <time>2024-03-13T15:35:24.000Z</time>
      </trkpt>
      <trkpt lat="43.67669" lon="6.20188">
        <ele>967.1</ele>
        <time>2024-03-13T15:35:29.000Z</time>
      </trkpt>
      <trkpt lat="43.67666" lon="6.20193">
        <ele>967.2</ele>
        <time>2024-03-13T15:35:33.000Z</time>
      </trkpt>
      <trkpt lat="43.67663" lon="6.20198">
        <ele>967.3</ele>
        <time>2024-03-13T15:35:42.000Z</time>
      </trkpt>
      <trkpt lat="43.67658" lon="6.20203">
        <ele>967.1</ele>
        <time>2024-03-13T15:35:48.000Z</time>
      </trkpt>
      <trkpt lat="43.67654" lon="6.20207">
        <ele>966.8</ele>
        <time>2024-03-13T15:35:52.000Z</time>
      </trkpt>
      <trkpt lat="43.67652" lon="6.20212">
        <ele>966.3</ele>
        <time>2024-03-13T15:35:57.000Z</time>
      </trkpt>
      <trkpt lat="43.67647" lon="6.20213">
        <ele>965.9</ele>
        <time>2024-03-13T15:36:02.000Z</time>
      </trkpt>
      <trkpt lat="43.67642" lon="6.20213">
        <ele>965.5</ele>
        <time>2024-03-13T15:36:06.000Z</time>
      </trkpt>
      <trkpt lat="43.67636" lon="6.20214">
        <ele>965.3</ele>
        <time>2024-03-13T15:36:11.000Z</time>
      </trkpt>
      <trkpt lat="43.67632" lon="6.20217">
        <ele>965.2</ele>
        <time>2024-03-13T15:36:16.000Z</time>
      </trkpt>
      <trkpt lat="43.67628" lon="6.20222">
        <ele>965.1</ele>
        <time>2024-03-13T15:36:21.000Z</time>
      </trkpt>
      <trkpt lat="43.67625" lon="6.20227">
        <ele>965</ele>
        <time>2024-03-13T15:36:25.000Z</time>
      </trkpt>
      <trkpt lat="43.67623" lon="6.20233">
        <ele>965.2</ele>
        <time>2024-03-13T15:36:30.000Z</time>
      </trkpt>
      <trkpt lat="43.67619" lon="6.20238">
        <ele>965.5</ele>
        <time>2024-03-13T15:36:36.000Z</time>
      </trkpt>
      <trkpt lat="43.67615" lon="6.20241">
        <ele>965.8</ele>
        <time>2024-03-13T15:36:41.000Z</time>
      </trkpt>
      <trkpt lat="43.6761" lon="6.20245">
        <ele>966.4</ele>
        <time>2024-03-13T15:36:48.000Z</time>
      </trkpt>
      <trkpt lat="43.67606" lon="6.20248">
        <ele>966.7</ele>
        <time>2024-03-13T15:36:53.000Z</time>
      </trkpt>
      <trkpt lat="43.67602" lon="6.20251">
        <ele>967.2</ele>
        <time>2024-03-13T15:36:58.000Z</time>
      </trkpt>
      <trkpt lat="43.67597" lon="6.20254">
        <ele>967.6</ele>
        <time>2024-03-13T15:37:03.000Z</time>
      </trkpt>
      <trkpt lat="43.67593" lon="6.20256">
        <ele>968</ele>
        <time>2024-03-13T15:37:08.000Z</time>
      </trkpt>
      <trkpt lat="43.67588" lon="6.20258">
        <ele>968.2</ele>
        <time>2024-03-13T15:37:13.000Z</time>
      </trkpt>
      <trkpt lat="43.67583" lon="6.20258">
        <ele>968.6</ele>
        <time>2024-03-13T15:37:20.000Z</time>
      </trkpt>
      <trkpt lat="43.67578" lon="6.20259">
        <ele>968.8</ele>
        <time>2024-03-13T15:37:24.000Z</time>
      </trkpt>
      <trkpt lat="43.67574" lon="6.20261">
        <ele>968.4</ele>
        <time>2024-03-13T15:37:29.000Z</time>
      </trkpt>
      <trkpt lat="43.67569" lon="6.2026">
        <ele>968.1</ele>
        <time>2024-03-13T15:37:34.000Z</time>
      </trkpt>
      <trkpt lat="43.67565" lon="6.20261">
        <ele>967.8</ele>
        <time>2024-03-13T15:37:40.000Z</time>
      </trkpt>
      <trkpt lat="43.6756" lon="6.20264">
        <ele>967.4</ele>
        <time>2024-03-13T15:37:47.000Z</time>
      </trkpt>
      <trkpt lat="43.67555" lon="6.20267">
        <ele>966.9</ele>
        <time>2024-03-13T15:37:54.000Z</time>
      </trkpt>
      <trkpt lat="43.67551" lon="6.20269">
        <ele>966.5</ele>
        <time>2024-03-13T15:37:59.000Z</time>
      </trkpt>
      <trkpt lat="43.67546" lon="6.2027">
        <ele>966.2</ele>
        <time>2024-03-13T15:38:04.000Z</time>
      </trkpt>
      <trkpt lat="43.67541" lon="6.20269">
        <ele>965.8</ele>
        <time>2024-03-13T15:38:08.000Z</time>
      </trkpt>
      <trkpt lat="43.67536" lon="6.2027">
        <ele>965.5</ele>
        <time>2024-03-13T15:38:13.000Z</time>
      </trkpt>
      <trkpt lat="43.67532" lon="6.20273">
        <ele>965.5</ele>
        <time>2024-03-13T15:38:17.000Z</time>
      </trkpt>
      <trkpt lat="43.67528" lon="6.20275">
        <ele>965.2</ele>
        <time>2024-03-13T15:38:23.000Z</time>
      </trkpt>
      <trkpt lat="43.67523" lon="6.20279">
        <ele>965</ele>
        <time>2024-03-13T15:38:27.000Z</time>
      </trkpt>
      <trkpt lat="43.67519" lon="6.20284">
        <ele>964.6</ele>
        <time>2024-03-13T15:38:32.000Z</time>
      </trkpt>
      <trkpt lat="43.67515" lon="6.20287">
        <ele>964.3</ele>
        <time>2024-03-13T15:38:37.000Z</time>
      </trkpt>
      <trkpt lat="43.67511" lon="6.20291">
        <ele>964.2</ele>
        <time>2024-03-13T15:38:43.000Z</time>
      </trkpt>
      <trkpt lat="43.67506" lon="6.20295">
        <ele>963.8</ele>
        <time>2024-03-13T15:38:47.000Z</time>
      </trkpt>
      <trkpt lat="43.67502" lon="6.20299">
        <ele>963.6</ele>
        <time>2024-03-13T15:38:52.000Z</time>
      </trkpt>
      <trkpt lat="43.67498" lon="6.20302">
        <ele>963.4</ele>
        <time>2024-03-13T15:38:57.000Z</time>
      </trkpt>
      <trkpt lat="43.67494" lon="6.20307">
        <ele>963.4</ele>
        <time>2024-03-13T15:39:04.000Z</time>
      </trkpt>
      <trkpt lat="43.6749" lon="6.20309">
        <ele>963.1</ele>
        <time>2024-03-13T15:39:08.000Z</time>
      </trkpt>
      <trkpt lat="43.67485" lon="6.20312">
        <ele>962.9</ele>
        <time>2024-03-13T15:39:12.000Z</time>
      </trkpt>
      <trkpt lat="43.67481" lon="6.20316">
        <ele>962.6</ele>
        <time>2024-03-13T15:39:17.000Z</time>
      </trkpt>
      <trkpt lat="43.67477" lon="6.20318">
        <ele>962.2</ele>
        <time>2024-03-13T15:39:21.000Z</time>
      </trkpt>
      <trkpt lat="43.67472" lon="6.20321">
        <ele>961.8</ele>
        <time>2024-03-13T15:39:25.000Z</time>
      </trkpt>
      <trkpt lat="43.67467" lon="6.20323">
        <ele>961.3</ele>
        <time>2024-03-13T15:39:30.000Z</time>
      </trkpt>
      <trkpt lat="43.67463" lon="6.20327">
        <ele>961.1</ele>
        <time>2024-03-13T15:39:33.000Z</time>
      </trkpt>
      <trkpt lat="43.67459" lon="6.2033">
        <ele>960.8</ele>
        <time>2024-03-13T15:39:37.000Z</time>
      </trkpt>
      <trkpt lat="43.67455" lon="6.20334">
        <ele>960.6</ele>
        <time>2024-03-13T15:39:43.000Z</time>
      </trkpt>
      <trkpt lat="43.67451" lon="6.20337">
        <ele>960.5</ele>
        <time>2024-03-13T15:39:48.000Z</time>
      </trkpt>
      <trkpt lat="43.67448" lon="6.20342">
        <ele>960.4</ele>
        <time>2024-03-13T15:39:53.000Z</time>
      </trkpt>
      <trkpt lat="43.67445" lon="6.20348">
        <ele>960.2</ele>
        <time>2024-03-13T15:39:58.000Z</time>
      </trkpt>
      <trkpt lat="43.67443" lon="6.20355">
        <ele>960.1</ele>
        <time>2024-03-13T15:40:02.000Z</time>
      </trkpt>
      <trkpt lat="43.67439" lon="6.2036">
        <ele>960</ele>
        <time>2024-03-13T15:40:06.000Z</time>
      </trkpt>
      <trkpt lat="43.67435" lon="6.20364">
        <ele>960</ele>
        <time>2024-03-13T15:40:11.000Z</time>
      </trkpt>
      <trkpt lat="43.67431" lon="6.20368">
        <ele>960.2</ele>
        <time>2024-03-13T15:40:17.000Z</time>
      </trkpt>
      <trkpt lat="43.67428" lon="6.20373">
        <ele>960.3</ele>
        <time>2024-03-13T15:40:22.000Z</time>
      </trkpt>
      <trkpt lat="43.67423" lon="6.20376">
        <ele>960.5</ele>
        <time>2024-03-13T15:40:29.000Z</time>
      </trkpt>
      <trkpt lat="43.67418" lon="6.20377">
        <ele>960.9</ele>
        <time>2024-03-13T15:40:32.000Z</time>
      </trkpt>
      <trkpt lat="43.67415" lon="6.20381">
        <ele>961.3</ele>
        <time>2024-03-13T15:40:37.000Z</time>
      </trkpt>
      <trkpt lat="43.67412" lon="6.20387">
        <ele>961.4</ele>
        <time>2024-03-13T15:40:41.000Z</time>
      </trkpt>
      <trkpt lat="43.67407" lon="6.20392">
        <ele>961.3</ele>
        <time>2024-03-13T15:40:45.000Z</time>
      </trkpt>
      <trkpt lat="43.67405" lon="6.20398">
        <ele>961.1</ele>
        <time>2024-03-13T15:40:50.000Z</time>
      </trkpt>
      <trkpt lat="43.674" lon="6.204">
        <ele>960.7</ele>
        <time>2024-03-13T15:40:56.000Z</time>
      </trkpt>
      <trkpt lat="43.67399" lon="6.20407">
        <ele>960.1</ele>
        <time>2024-03-13T15:41:02.000Z</time>
      </trkpt>
      <trkpt lat="43.67397" lon="6.20413">
        <ele>959.5</ele>
        <time>2024-03-13T15:41:07.000Z</time>
      </trkpt>
      <trkpt lat="43.67392" lon="6.20417">
        <ele>958.8</ele>
        <time>2024-03-13T15:41:12.000Z</time>
      </trkpt>
      <trkpt lat="43.67388" lon="6.20422">
        <ele>958.4</ele>
        <time>2024-03-13T15:41:17.000Z</time>
      </trkpt>
      <trkpt lat="43.67385" lon="6.20426">
        <ele>957.9</ele>
        <time>2024-03-13T15:41:21.000Z</time>
      </trkpt>
      <trkpt lat="43.67383" lon="6.20432">
        <ele>957.3</ele>
        <time>2024-03-13T15:41:26.000Z</time>
      </trkpt>
      <trkpt lat="43.67381" lon="6.20439">
        <ele>956.9</ele>
        <time>2024-03-13T15:41:31.000Z</time>
      </trkpt>
      <trkpt lat="43.67379" lon="6.20445">
        <ele>956.5</ele>
        <time>2024-03-13T15:41:35.000Z</time>
      </trkpt>
      <trkpt lat="43.67377" lon="6.20451">
        <ele>955.9</ele>
        <time>2024-03-13T15:41:40.000Z</time>
      </trkpt>
      <trkpt lat="43.67373" lon="6.20456">
        <ele>955.3</ele>
        <time>2024-03-13T15:41:44.000Z</time>
      </trkpt>
      <trkpt lat="43.6737" lon="6.20461">
        <ele>954.6</ele>
        <time>2024-03-13T15:41:49.000Z</time>
      </trkpt>
      <trkpt lat="43.67368" lon="6.20468">
        <ele>954.2</ele>
        <time>2024-03-13T15:41:54.000Z</time>
      </trkpt>
      <trkpt lat="43.67368" lon="6.20475">
        <ele>953.5</ele>
        <time>2024-03-13T15:41:59.000Z</time>
      </trkpt>
      <trkpt lat="43.67367" lon="6.20482">
        <ele>953</ele>
        <time>2024-03-13T15:42:04.000Z</time>
      </trkpt>
      <trkpt lat="43.67366" lon="6.20488">
        <ele>952.2</ele>
        <time>2024-03-13T15:42:10.000Z</time>
      </trkpt>
      <trkpt lat="43.67364" lon="6.20494">
        <ele>951.7</ele>
        <time>2024-03-13T15:42:16.000Z</time>
      </trkpt>
      <trkpt lat="43.67362" lon="6.205">
        <ele>951.1</ele>
        <time>2024-03-13T15:42:21.000Z</time>
      </trkpt>
      <trkpt lat="43.67358" lon="6.20505">
        <ele>950.3</ele>
        <time>2024-03-13T15:42:26.000Z</time>
      </trkpt>
      <trkpt lat="43.67354" lon="6.20509">
        <ele>949.5</ele>
        <time>2024-03-13T15:42:31.000Z</time>
      </trkpt>
      <trkpt lat="43.67351" lon="6.20514">
        <ele>948.8</ele>
        <time>2024-03-13T15:42:37.000Z</time>
      </trkpt>
      <trkpt lat="43.67348" lon="6.2052">
        <ele>947.9</ele>
        <time>2024-03-13T15:42:43.000Z</time>
      </trkpt>
      <trkpt lat="43.67346" lon="6.20526">
        <ele>947.3</ele>
        <time>2024-03-13T15:42:48.000Z</time>
      </trkpt>
      <trkpt lat="43.67345" lon="6.20533">
        <ele>947</ele>
        <time>2024-03-13T15:42:54.000Z</time>
      </trkpt>
      <trkpt lat="43.67342" lon="6.2054">
        <ele>946.3</ele>
        <time>2024-03-13T15:43:00.000Z</time>
      </trkpt>
      <trkpt lat="43.67339" lon="6.20547">
        <ele>945.7</ele>
        <time>2024-03-13T15:43:05.000Z</time>
      </trkpt>
      <trkpt lat="43.67337" lon="6.20553">
        <ele>945.2</ele>
        <time>2024-03-13T15:43:10.000Z</time>
      </trkpt>
      <trkpt lat="43.67334" lon="6.20557">
        <ele>945.4</ele>
        <time>2024-03-13T15:43:14.000Z</time>
      </trkpt>
      <trkpt lat="43.6733" lon="6.20562">
        <ele>945.3</ele>
        <time>2024-03-13T15:43:19.000Z</time>
      </trkpt>
      <trkpt lat="43.67327" lon="6.20566">
        <ele>945.1</ele>
        <time>2024-03-13T15:43:23.000Z</time>
      </trkpt>
      <trkpt lat="43.67324" lon="6.20573">
        <ele>944.8</ele>
        <time>2024-03-13T15:43:28.000Z</time>
      </trkpt>
      <trkpt lat="43.67321" lon="6.20578">
        <ele>944.6</ele>
        <time>2024-03-13T15:43:34.000Z</time>
      </trkpt>
      <trkpt lat="43.67316" lon="6.20578">
        <ele>943.7</ele>
        <time>2024-03-13T15:43:40.000Z</time>
      </trkpt>
      <trkpt lat="43.67311" lon="6.20578">
        <ele>943.5</ele>
        <time>2024-03-13T15:43:45.000Z</time>
      </trkpt>
      <trkpt lat="43.67306" lon="6.2058">
        <ele>943.2</ele>
        <time>2024-03-13T15:43:52.000Z</time>
      </trkpt>
      <trkpt lat="43.67301" lon="6.20579">
        <ele>942.8</ele>
        <time>2024-03-13T15:43:57.000Z</time>
      </trkpt>
      <trkpt lat="43.67296" lon="6.20578">
        <ele>942.4</ele>
        <time>2024-03-13T15:44:03.000Z</time>
      </trkpt>
      <trkpt lat="43.67291" lon="6.20579">
        <ele>942.1</ele>
        <time>2024-03-13T15:44:09.000Z</time>
      </trkpt>
      <trkpt lat="43.67285" lon="6.2058">
        <ele>942.2</ele>
        <time>2024-03-13T15:44:15.000Z</time>
      </trkpt>
      <trkpt lat="43.67281" lon="6.20581">
        <ele>942.5</ele>
        <time>2024-03-13T15:44:20.000Z</time>
      </trkpt>
      <trkpt lat="43.67275" lon="6.20583">
        <ele>942.7</ele>
        <time>2024-03-13T15:44:25.000Z</time>
      </trkpt>
      <trkpt lat="43.6727" lon="6.20585">
        <ele>943.4</ele>
        <time>2024-03-13T15:44:31.000Z</time>
      </trkpt>
      <trkpt lat="43.67267" lon="6.20588">
        <ele>945</ele>
        <time>2024-03-13T15:44:41.000Z</time>
      </trkpt>
      <trkpt lat="43.67262" lon="6.2059">
        <ele>945.7</ele>
        <time>2024-03-13T15:44:48.000Z</time>
      </trkpt>
      <trkpt lat="43.67258" lon="6.20593">
        <ele>946.6</ele>
        <time>2024-03-13T15:44:56.000Z</time>
      </trkpt>
      <trkpt lat="43.67254" lon="6.20597">
        <ele>947.7</ele>
        <time>2024-03-13T15:45:04.000Z</time>
      </trkpt>
      <trkpt lat="43.67249" lon="6.20599">
        <ele>948.8</ele>
        <time>2024-03-13T15:45:12.000Z</time>
      </trkpt>
      <trkpt lat="43.67244" lon="6.206">
        <ele>950.1</ele>
        <time>2024-03-13T15:45:19.000Z</time>
      </trkpt>
      <trkpt lat="43.6724" lon="6.206">
        <ele>951</ele>
        <time>2024-03-13T15:45:24.000Z</time>
      </trkpt>
      <trkpt lat="43.67235" lon="6.20602">
        <ele>951.7</ele>
        <time>2024-03-13T15:45:29.000Z</time>
      </trkpt>
      <trkpt lat="43.6723" lon="6.20604">
        <ele>952.4</ele>
        <time>2024-03-13T15:45:34.000Z</time>
      </trkpt>
      <trkpt lat="43.67226" lon="6.20608">
        <ele>953.2</ele>
        <time>2024-03-13T15:45:40.000Z</time>
      </trkpt>
      <trkpt lat="43.67222" lon="6.20612">
        <ele>954</ele>
        <time>2024-03-13T15:45:46.000Z</time>
      </trkpt>
      <trkpt lat="43.67218" lon="6.20616">
        <ele>955.1</ele>
        <time>2024-03-13T15:45:52.000Z</time>
      </trkpt>
      <trkpt lat="43.67214" lon="6.2062">
        <ele>955.8</ele>
        <time>2024-03-13T15:45:58.000Z</time>
      </trkpt>
      <trkpt lat="43.6721" lon="6.20624">
        <ele>956.2</ele>
        <time>2024-03-13T15:46:04.000Z</time>
      </trkpt>
      <trkpt lat="43.67207" lon="6.2063">
        <ele>956.2</ele>
        <time>2024-03-13T15:46:10.000Z</time>
      </trkpt>
      <trkpt lat="43.67206" lon="6.20636">
        <ele>956</ele>
        <time>2024-03-13T15:46:16.000Z</time>
      </trkpt>
      <trkpt lat="43.67204" lon="6.20643">
        <ele>955.6</ele>
        <time>2024-03-13T15:46:22.000Z</time>
      </trkpt>
      <trkpt lat="43.672" lon="6.20646">
        <ele>954.4</ele>
        <time>2024-03-13T15:46:29.000Z</time>
      </trkpt>
      <trkpt lat="43.67196" lon="6.20649">
        <ele>953.5</ele>
        <time>2024-03-13T15:46:35.000Z</time>
      </trkpt>
      <trkpt lat="43.67191" lon="6.20651">
        <ele>952.8</ele>
        <time>2024-03-13T15:46:41.000Z</time>
      </trkpt>
      <trkpt lat="43.67187" lon="6.20654">
        <ele>951.6</ele>
        <time>2024-03-13T15:46:47.000Z</time>
      </trkpt>
      <trkpt lat="43.67183" lon="6.20657">
        <ele>951</ele>
        <time>2024-03-13T15:46:51.000Z</time>
      </trkpt>
      <trkpt lat="43.67179" lon="6.2066">
        <ele>950.5</ele>
        <time>2024-03-13T15:46:56.000Z</time>
      </trkpt>
      <trkpt lat="43.67176" lon="6.20665">
        <ele>949.6</ele>
        <time>2024-03-13T15:47:02.000Z</time>
      </trkpt>
      <trkpt lat="43.67173" lon="6.2067">
        <ele>948.4</ele>
        <time>2024-03-13T15:47:09.000Z</time>
      </trkpt>
      <trkpt lat="43.67169" lon="6.20673">
        <ele>947.4</ele>
        <time>2024-03-13T15:47:15.000Z</time>
      </trkpt>
      <trkpt lat="43.67165" lon="6.20677">
        <ele>946.4</ele>
        <time>2024-03-13T15:47:22.000Z</time>
      </trkpt>
      <trkpt lat="43.6716" lon="6.2068">
        <ele>945</ele>
        <time>2024-03-13T15:47:28.000Z</time>
      </trkpt>
      <trkpt lat="43.67155" lon="6.20682">
        <ele>944.1</ele>
        <time>2024-03-13T15:47:34.000Z</time>
      </trkpt>
      <trkpt lat="43.6715" lon="6.20684">
        <ele>943</ele>
        <time>2024-03-13T15:47:40.000Z</time>
      </trkpt>
      <trkpt lat="43.67146" lon="6.20686">
        <ele>942.2</ele>
        <time>2024-03-13T15:47:46.000Z</time>
      </trkpt>
      <trkpt lat="43.6714" lon="6.20689">
        <ele>941.5</ele>
        <time>2024-03-13T15:47:52.000Z</time>
      </trkpt>
      <trkpt lat="43.67136" lon="6.20691">
        <ele>940.6</ele>
        <time>2024-03-13T15:47:57.000Z</time>
      </trkpt>
      <trkpt lat="43.67132" lon="6.20694">
        <ele>939.6</ele>
        <time>2024-03-13T15:48:02.000Z</time>
      </trkpt>
      <trkpt lat="43.67128" lon="6.20697">
        <ele>939.6</ele>
        <time>2024-03-13T15:48:06.000Z</time>
      </trkpt>
      <trkpt lat="43.67124" lon="6.207">
        <ele>938.7</ele>
        <time>2024-03-13T15:48:14.000Z</time>
      </trkpt>
      <trkpt lat="43.67121" lon="6.20706">
        <ele>937.1</ele>
        <time>2024-03-13T15:48:24.000Z</time>
      </trkpt>
      <trkpt lat="43.67117" lon="6.20708">
        <ele>936.3</ele>
        <time>2024-03-13T15:48:32.000Z</time>
      </trkpt>
      <trkpt lat="43.67113" lon="6.20712">
        <ele>935.5</ele>
        <time>2024-03-13T15:48:41.000Z</time>
      </trkpt>
      <trkpt lat="43.6711" lon="6.20717">
        <ele>935</ele>
        <time>2024-03-13T15:48:47.000Z</time>
      </trkpt>
      <trkpt lat="43.67106" lon="6.20722">
        <ele>934.1</ele>
        <time>2024-03-13T15:48:53.000Z</time>
      </trkpt>
      <trkpt lat="43.67103" lon="6.20726">
        <ele>933.6</ele>
        <time>2024-03-13T15:48:57.000Z</time>
      </trkpt>
      <trkpt lat="43.67099" lon="6.20731">
        <ele>933</ele>
        <time>2024-03-13T15:49:01.000Z</time>
      </trkpt>
      <trkpt lat="43.67096" lon="6.20736">
        <ele>932.4</ele>
        <time>2024-03-13T15:49:05.000Z</time>
      </trkpt>
      <trkpt lat="43.67092" lon="6.2074">
        <ele>931.7</ele>
        <time>2024-03-13T15:49:09.000Z</time>
      </trkpt>
      <trkpt lat="43.67088" lon="6.20744">
        <ele>931.2</ele>
        <time>2024-03-13T15:49:13.000Z</time>
      </trkpt>
      <trkpt lat="43.67084" lon="6.20748">
        <ele>930.6</ele>
        <time>2024-03-13T15:49:18.000Z</time>
      </trkpt>
      <trkpt lat="43.67079" lon="6.20751">
        <ele>930.5</ele>
        <time>2024-03-13T15:49:23.000Z</time>
      </trkpt>
      <trkpt lat="43.67075" lon="6.20756">
        <ele>930.4</ele>
        <time>2024-03-13T15:49:28.000Z</time>
      </trkpt>
      <trkpt lat="43.67072" lon="6.20761">
        <ele>930.8</ele>
        <time>2024-03-13T15:49:33.000Z</time>
      </trkpt>
      <trkpt lat="43.67069" lon="6.20766">
        <ele>930.8</ele>
        <time>2024-03-13T15:49:38.000Z</time>
      </trkpt>
      <trkpt lat="43.67066" lon="6.20771">
        <ele>930.8</ele>
        <time>2024-03-13T15:49:42.000Z</time>
      </trkpt>
      <trkpt lat="43.67063" lon="6.20776">
        <ele>930.9</ele>
        <time>2024-03-13T15:49:46.000Z</time>
      </trkpt>
      <trkpt lat="43.6706" lon="6.20781">
        <ele>930.6</ele>
        <time>2024-03-13T15:49:51.000Z</time>
      </trkpt>
      <trkpt lat="43.67056" lon="6.20785">
        <ele>930.7</ele>
        <time>2024-03-13T15:49:56.000Z</time>
      </trkpt>
      <trkpt lat="43.67052" lon="6.20791">
        <ele>930.6</ele>
        <time>2024-03-13T15:50:01.000Z</time>
      </trkpt>
      <trkpt lat="43.67049" lon="6.20797">
        <ele>930.2</ele>
        <time>2024-03-13T15:50:07.000Z</time>
      </trkpt>
      <trkpt lat="43.67045" lon="6.208">
        <ele>930</ele>
        <time>2024-03-13T15:50:12.000Z</time>
      </trkpt>
      <trkpt lat="43.67041" lon="6.20805">
        <ele>930</ele>
        <time>2024-03-13T15:50:16.000Z</time>
      </trkpt>
      <trkpt lat="43.67037" lon="6.20809">
        <ele>929.8</ele>
        <time>2024-03-13T15:50:21.000Z</time>
      </trkpt>
      <trkpt lat="43.67032" lon="6.20813">
        <ele>929.7</ele>
        <time>2024-03-13T15:50:26.000Z</time>
      </trkpt>
      <trkpt lat="43.67028" lon="6.20816">
        <ele>929.6</ele>
        <time>2024-03-13T15:50:31.000Z</time>
      </trkpt>
      <trkpt lat="43.67024" lon="6.20819">
        <ele>929.3</ele>
        <time>2024-03-13T15:50:35.000Z</time>
      </trkpt>
      <trkpt lat="43.67019" lon="6.20822">
        <ele>928.8</ele>
        <time>2024-03-13T15:50:41.000Z</time>
      </trkpt>
      <trkpt lat="43.67015" lon="6.20826">
        <ele>928.5</ele>
        <time>2024-03-13T15:50:45.000Z</time>
      </trkpt>
      <trkpt lat="43.67011" lon="6.2083">
        <ele>928.3</ele>
        <time>2024-03-13T15:50:50.000Z</time>
      </trkpt>
      <trkpt lat="43.67007" lon="6.20834">
        <ele>927.8</ele>
        <time>2024-03-13T15:50:54.000Z</time>
      </trkpt>
      <trkpt lat="43.67003" lon="6.20838">
        <ele>927.5</ele>
        <time>2024-03-13T15:50:57.000Z</time>
      </trkpt>
      <trkpt lat="43.66999" lon="6.20843">
        <ele>927.2</ele>
        <time>2024-03-13T15:51:01.000Z</time>
      </trkpt>
      <trkpt lat="43.66994" lon="6.20848">
        <ele>926.7</ele>
        <time>2024-03-13T15:51:06.000Z</time>
      </trkpt>
      <trkpt lat="43.66989" lon="6.20851">
        <ele>926.2</ele>
        <time>2024-03-13T15:51:10.000Z</time>
      </trkpt>
      <trkpt lat="43.66985" lon="6.20855">
        <ele>925.7</ele>
        <time>2024-03-13T15:51:14.000Z</time>
      </trkpt>
      <trkpt lat="43.66981" lon="6.2086">
        <ele>925.1</ele>
        <time>2024-03-13T15:51:19.000Z</time>
      </trkpt>
      <trkpt lat="43.66977" lon="6.20864">
        <ele>924.5</ele>
        <time>2024-03-13T15:51:24.000Z</time>
      </trkpt>
      <trkpt lat="43.66974" lon="6.20869">
        <ele>923.8</ele>
        <time>2024-03-13T15:51:30.000Z</time>
      </trkpt>
      <trkpt lat="43.66971" lon="6.20873">
        <ele>921.2</ele>
        <time>2024-03-13T15:52:29.000Z</time>
      </trkpt>
      <trkpt lat="43.66967" lon="6.20879">
        <ele>920.8</ele>
        <time>2024-03-13T15:52:35.000Z</time>
      </trkpt>
      <trkpt lat="43.66964" lon="6.20885">
        <ele>920.2</ele>
        <time>2024-03-13T15:52:42.000Z</time>
      </trkpt>
      <trkpt lat="43.66963" lon="6.20891">
        <ele>919.2</ele>
        <time>2024-03-13T15:52:48.000Z</time>
      </trkpt>
      <trkpt lat="43.6696" lon="6.20897">
        <ele>918.5</ele>
        <time>2024-03-13T15:52:54.000Z</time>
      </trkpt>
      <trkpt lat="43.66957" lon="6.20903">
        <ele>917.8</ele>
        <time>2024-03-13T15:53:00.000Z</time>
      </trkpt>
      <trkpt lat="43.66955" lon="6.2091">
        <ele>916.9</ele>
        <time>2024-03-13T15:53:06.000Z</time>
      </trkpt>
      <trkpt lat="43.66953" lon="6.20916">
        <ele>916.2</ele>
        <time>2024-03-13T15:53:11.000Z</time>
      </trkpt>
      <trkpt lat="43.66951" lon="6.20922">
        <ele>915.3</ele>
        <time>2024-03-13T15:53:16.000Z</time>
      </trkpt>
      <trkpt lat="43.66949" lon="6.20929">
        <ele>914.6</ele>
        <time>2024-03-13T15:53:21.000Z</time>
      </trkpt>
      <trkpt lat="43.66947" lon="6.20935">
        <ele>913.9</ele>
        <time>2024-03-13T15:53:26.000Z</time>
      </trkpt>
      <trkpt lat="43.66943" lon="6.20941">
        <ele>913.4</ele>
        <time>2024-03-13T15:53:31.000Z</time>
      </trkpt>
      <trkpt lat="43.66941" lon="6.20946">
        <ele>913</ele>
        <time>2024-03-13T15:53:35.000Z</time>
      </trkpt>
      <trkpt lat="43.66938" lon="6.20952">
        <ele>912.3</ele>
        <time>2024-03-13T15:53:40.000Z</time>
      </trkpt>
      <trkpt lat="43.66936" lon="6.20958">
        <ele>911.4</ele>
        <time>2024-03-13T15:53:45.000Z</time>
      </trkpt>
      <trkpt lat="43.66934" lon="6.20966">
        <ele>910.6</ele>
        <time>2024-03-13T15:53:50.000Z</time>
      </trkpt>
      <trkpt lat="43.66931" lon="6.20972">
        <ele>909.7</ele>
        <time>2024-03-13T15:53:55.000Z</time>
      </trkpt>
      <trkpt lat="43.66928" lon="6.20978">
        <ele>909</ele>
        <time>2024-03-13T15:54:00.000Z</time>
      </trkpt>
      <trkpt lat="43.66925" lon="6.20985">
        <ele>908.3</ele>
        <time>2024-03-13T15:54:05.000Z</time>
      </trkpt>
      <trkpt lat="43.66923" lon="6.20991">
        <ele>907.8</ele>
        <time>2024-03-13T15:54:10.000Z</time>
      </trkpt>
      <trkpt lat="43.6692" lon="6.20997">
        <ele>907.3</ele>
        <time>2024-03-13T15:54:15.000Z</time>
      </trkpt>
      <trkpt lat="43.66917" lon="6.21002">
        <ele>907</ele>
        <time>2024-03-13T15:54:20.000Z</time>
      </trkpt>
      <trkpt lat="43.66915" lon="6.21008">
        <ele>906.7</ele>
        <time>2024-03-13T15:54:24.000Z</time>
      </trkpt>
      <trkpt lat="43.66911" lon="6.21014">
        <ele>906.3</ele>
        <time>2024-03-13T15:54:28.000Z</time>
      </trkpt>
      <trkpt lat="43.66908" lon="6.2102">
        <ele>905.9</ele>
        <time>2024-03-13T15:54:32.000Z</time>
      </trkpt>
      <trkpt lat="43.66906" lon="6.21026">
        <ele>905.5</ele>
        <time>2024-03-13T15:54:36.000Z</time>
      </trkpt>
      <trkpt lat="43.66903" lon="6.21032">
        <ele>905.2</ele>
        <time>2024-03-13T15:54:40.000Z</time>
      </trkpt>
      <trkpt lat="43.669" lon="6.21037">
        <ele>904.8</ele>
        <time>2024-03-13T15:54:44.000Z</time>
      </trkpt>
      <trkpt lat="43.66896" lon="6.21042">
        <ele>904.5</ele>
        <time>2024-03-13T15:54:49.000Z</time>
      </trkpt>
      <trkpt lat="43.66893" lon="6.21047">
        <ele>904</ele>
        <time>2024-03-13T15:54:58.000Z</time>
      </trkpt>
      <trkpt lat="43.66888" lon="6.2105">
        <ele>904</ele>
        <time>2024-03-13T15:55:02.000Z</time>
      </trkpt>
      <trkpt lat="43.66884" lon="6.21053">
        <ele>903.4</ele>
        <time>2024-03-13T15:55:06.000Z</time>
      </trkpt>
      <trkpt lat="43.66879" lon="6.21057">
        <ele>903.3</ele>
        <time>2024-03-13T15:55:11.000Z</time>
      </trkpt>
      <trkpt lat="43.66874" lon="6.21059">
        <ele>903.1</ele>
        <time>2024-03-13T15:55:16.000Z</time>
      </trkpt>
      <trkpt lat="43.6687" lon="6.21063">
        <ele>902.6</ele>
        <time>2024-03-13T15:55:22.000Z</time>
      </trkpt>
      <trkpt lat="43.66867" lon="6.21068">
        <ele>901.4</ele>
        <time>2024-03-13T15:55:28.000Z</time>
      </trkpt>
      <trkpt lat="43.66862" lon="6.21073">
        <ele>900.6</ele>
        <time>2024-03-13T15:55:34.000Z</time>
      </trkpt>
      <trkpt lat="43.66857" lon="6.21075">
        <ele>899.6</ele>
        <time>2024-03-13T15:55:39.000Z</time>
      </trkpt>
      <trkpt lat="43.66853" lon="6.21076">
        <ele>898.6</ele>
        <time>2024-03-13T15:55:45.000Z</time>
      </trkpt>
      <trkpt lat="43.66848" lon="6.21078">
        <ele>897.8</ele>
        <time>2024-03-13T15:55:50.000Z</time>
      </trkpt>
      <trkpt lat="43.66844" lon="6.21081">
        <ele>896.4</ele>
        <time>2024-03-13T15:55:56.000Z</time>
      </trkpt>
      <trkpt lat="43.6684" lon="6.21085">
        <ele>895.8</ele>
        <time>2024-03-13T15:56:02.000Z</time>
      </trkpt>
      <trkpt lat="43.66835" lon="6.21087">
        <ele>895</ele>
        <time>2024-03-13T15:56:08.000Z</time>
      </trkpt>
      <trkpt lat="43.6683" lon="6.21091">
        <ele>894.2</ele>
        <time>2024-03-13T15:56:14.000Z</time>
      </trkpt>
      <trkpt lat="43.66827" lon="6.21096">
        <ele>893.5</ele>
        <time>2024-03-13T15:56:20.000Z</time>
      </trkpt>
      <trkpt lat="43.66824" lon="6.21102">
        <ele>892.7</ele>
        <time>2024-03-13T15:56:26.000Z</time>
      </trkpt>
      <trkpt lat="43.6682" lon="6.21105">
        <ele>891.7</ele>
        <time>2024-03-13T15:56:32.000Z</time>
      </trkpt>
      <trkpt lat="43.66816" lon="6.21109">
        <ele>890.7</ele>
        <time>2024-03-13T15:56:37.000Z</time>
      </trkpt>
      <trkpt lat="43.66812" lon="6.21113">
        <ele>890</ele>
        <time>2024-03-13T15:56:41.000Z</time>
      </trkpt>
      <trkpt lat="43.66808" lon="6.21117">
        <ele>889.4</ele>
        <time>2024-03-13T15:56:45.000Z</time>
      </trkpt>
      <trkpt lat="43.66804" lon="6.2112">
        <ele>888.8</ele>
        <time>2024-03-13T15:56:49.000Z</time>
      </trkpt>
      <trkpt lat="43.66799" lon="6.21122">
        <ele>888</ele>
        <time>2024-03-13T15:56:53.000Z</time>
      </trkpt>
      <trkpt lat="43.66795" lon="6.21125">
        <ele>887.4</ele>
        <time>2024-03-13T15:56:57.000Z</time>
      </trkpt>
      <trkpt lat="43.66791" lon="6.21131">
        <ele>886.9</ele>
        <time>2024-03-13T15:57:01.000Z</time>
      </trkpt>
      <trkpt lat="43.66789" lon="6.21137">
        <ele>886.1</ele>
        <time>2024-03-13T15:57:06.000Z</time>
      </trkpt>
      <trkpt lat="43.66786" lon="6.21143">
        <ele>885.4</ele>
        <time>2024-03-13T15:57:12.000Z</time>
      </trkpt>
      <trkpt lat="43.66783" lon="6.21149">
        <ele>884.2</ele>
        <time>2024-03-13T15:57:18.000Z</time>
      </trkpt>
      <trkpt lat="43.6678" lon="6.21153">
        <ele>883</ele>
        <time>2024-03-13T15:57:24.000Z</time>
      </trkpt>
      <trkpt lat="43.66776" lon="6.21158">
        <ele>882.2</ele>
        <time>2024-03-13T15:57:29.000Z</time>
      </trkpt>
      <trkpt lat="43.66772" lon="6.21162">
        <ele>881.4</ele>
        <time>2024-03-13T15:57:34.000Z</time>
      </trkpt>
      <trkpt lat="43.66768" lon="6.21166">
        <ele>880.7</ele>
        <time>2024-03-13T15:57:38.000Z</time>
      </trkpt>
      <trkpt lat="43.66764" lon="6.21171">
        <ele>880</ele>
        <time>2024-03-13T15:57:42.000Z</time>
      </trkpt>
      <trkpt lat="43.6676" lon="6.21176">
        <ele>879.4</ele>
        <time>2024-03-13T15:57:46.000Z</time>
      </trkpt>
      <trkpt lat="43.66757" lon="6.2118">
        <ele>878.6</ele>
        <time>2024-03-13T15:57:50.000Z</time>
      </trkpt>
      <trkpt lat="43.66753" lon="6.21184">
        <ele>877.4</ele>
        <time>2024-03-13T15:57:56.000Z</time>
      </trkpt>
      <trkpt lat="43.66749" lon="6.21189">
        <ele>876.2</ele>
        <time>2024-03-13T15:58:02.000Z</time>
      </trkpt>
      <trkpt lat="43.66745" lon="6.21193">
        <ele>875</ele>
        <time>2024-03-13T15:58:07.000Z</time>
      </trkpt>
      <trkpt lat="43.66741" lon="6.21198">
        <ele>874.5</ele>
        <time>2024-03-13T15:58:13.000Z</time>
      </trkpt>
      <trkpt lat="43.66737" lon="6.21203">
        <ele>873.4</ele>
        <time>2024-03-13T15:58:19.000Z</time>
      </trkpt>
      <trkpt lat="43.66733" lon="6.21207">
        <ele>872.7</ele>
        <time>2024-03-13T15:58:25.000Z</time>
      </trkpt>
      <trkpt lat="43.6673" lon="6.21212">
        <ele>871.9</ele>
        <time>2024-03-13T15:58:32.000Z</time>
      </trkpt>
      <trkpt lat="43.66727" lon="6.21217">
        <ele>871.5</ele>
        <time>2024-03-13T15:58:39.000Z</time>
      </trkpt>
      <trkpt lat="43.66723" lon="6.21221">
        <ele>871.2</ele>
        <time>2024-03-13T15:58:45.000Z</time>
      </trkpt>
      <trkpt lat="43.6672" lon="6.21226">
        <ele>870.6</ele>
        <time>2024-03-13T15:58:51.000Z</time>
      </trkpt>
      <trkpt lat="43.66717" lon="6.21231">
        <ele>869.4</ele>
        <time>2024-03-13T15:58:57.000Z</time>
      </trkpt>
      <trkpt lat="43.66713" lon="6.21236">
        <ele>868.4</ele>
        <time>2024-03-13T15:59:04.000Z</time>
      </trkpt>
      <trkpt lat="43.6671" lon="6.21241">
        <ele>867.5</ele>
        <time>2024-03-13T15:59:10.000Z</time>
      </trkpt>
      <trkpt lat="43.66706" lon="6.21245">
        <ele>866.7</ele>
        <time>2024-03-13T15:59:16.000Z</time>
      </trkpt>
      <trkpt lat="43.66703" lon="6.21249">
        <ele>865.9</ele>
        <time>2024-03-13T15:59:21.000Z</time>
      </trkpt>
      <trkpt lat="43.667" lon="6.21254">
        <ele>865.4</ele>
        <time>2024-03-13T15:59:26.000Z</time>
      </trkpt>
      <trkpt lat="43.66697" lon="6.21259">
        <ele>864</ele>
        <time>2024-03-13T15:59:32.000Z</time>
      </trkpt>
      <trkpt lat="43.66692" lon="6.21262">
        <ele>863.1</ele>
        <time>2024-03-13T15:59:37.000Z</time>
      </trkpt>
      <trkpt lat="43.66688" lon="6.21266">
        <ele>862.1</ele>
        <time>2024-03-13T15:59:42.000Z</time>
      </trkpt>
      <trkpt lat="43.66684" lon="6.21271">
        <ele>861.3</ele>
        <time>2024-03-13T15:59:47.000Z</time>
      </trkpt>
      <trkpt lat="43.66681" lon="6.21276">
        <ele>860.8</ele>
        <time>2024-03-13T15:59:52.000Z</time>
      </trkpt>
      <trkpt lat="43.66677" lon="6.21281">
        <ele>859.7</ele>
        <time>2024-03-13T15:59:57.000Z</time>
      </trkpt>
      <trkpt lat="43.66675" lon="6.21288">
        <ele>859</ele>
        <time>2024-03-13T16:00:02.000Z</time>
      </trkpt>
      <trkpt lat="43.66672" lon="6.21293">
        <ele>858.4</ele>
        <time>2024-03-13T16:00:06.000Z</time>
      </trkpt>
      <trkpt lat="43.66668" lon="6.21296">
        <ele>857.6</ele>
        <time>2024-03-13T16:00:10.000Z</time>
      </trkpt>
      <trkpt lat="43.66663" lon="6.21299">
        <ele>856.7</ele>
        <time>2024-03-13T16:00:14.000Z</time>
      </trkpt>
      <trkpt lat="43.66659" lon="6.21301">
        <ele>856.1</ele>
        <time>2024-03-13T16:00:18.000Z</time>
      </trkpt>
      <trkpt lat="43.66655" lon="6.21305">
        <ele>855.5</ele>
        <time>2024-03-13T16:00:22.000Z</time>
      </trkpt>
      <trkpt lat="43.66651" lon="6.21309">
        <ele>854.9</ele>
        <time>2024-03-13T16:00:26.000Z</time>
      </trkpt>
      <trkpt lat="43.66645" lon="6.21313">
        <ele>854.5</ele>
        <time>2024-03-13T16:00:30.000Z</time>
      </trkpt>
      <trkpt lat="43.66641" lon="6.21315">
        <ele>854</ele>
        <time>2024-03-13T16:00:34.000Z</time>
      </trkpt>
      <trkpt lat="43.66636" lon="6.21318">
        <ele>853.8</ele>
        <time>2024-03-13T16:00:38.000Z</time>
      </trkpt>
      <trkpt lat="43.66631" lon="6.2132">
        <ele>853.5</ele>
        <time>2024-03-13T16:00:42.000Z</time>
      </trkpt>
      <trkpt lat="43.66626" lon="6.21321">
        <ele>853.2</ele>
        <time>2024-03-13T16:00:46.000Z</time>
      </trkpt>
      <trkpt lat="43.66621" lon="6.21323">
        <ele>853</ele>
        <time>2024-03-13T16:00:51.000Z</time>
      </trkpt>
      <trkpt lat="43.66616" lon="6.21325">
        <ele>852.3</ele>
        <time>2024-03-13T16:01:00.000Z</time>
      </trkpt>
      <trkpt lat="43.66613" lon="6.21321">
        <ele>851</ele>
        <time>2024-03-13T16:01:40.000Z</time>
      </trkpt>
      <trkpt lat="43.66612" lon="6.21313">
        <ele>850.7</ele>
        <time>2024-03-13T16:01:46.000Z</time>
      </trkpt>
      <trkpt lat="43.66614" lon="6.21307">
        <ele>850.7</ele>
        <time>2024-03-13T16:01:52.000Z</time>
      </trkpt>
      <trkpt lat="43.66618" lon="6.21302">
        <ele>850.1</ele>
        <time>2024-03-13T16:01:59.000Z</time>
      </trkpt>
      <trkpt lat="43.6662" lon="6.21297">
        <ele>849.9</ele>
        <time>2024-03-13T16:02:03.000Z</time>
      </trkpt>
      <trkpt lat="43.66624" lon="6.21291">
        <ele>849.6</ele>
        <time>2024-03-13T16:02:08.000Z</time>
      </trkpt>
      <trkpt lat="43.66628" lon="6.21287">
        <ele>849.4</ele>
        <time>2024-03-13T16:02:14.000Z</time>
      </trkpt>
      <trkpt lat="43.66631" lon="6.21282">
        <ele>849.3</ele>
        <time>2024-03-13T16:02:18.000Z</time>
      </trkpt>
      <trkpt lat="43.66634" lon="6.21277">
        <ele>849.1</ele>
        <time>2024-03-13T16:02:22.000Z</time>
      </trkpt>
      <trkpt lat="43.66637" lon="6.21272">
        <ele>848.9</ele>
        <time>2024-03-13T16:02:26.000Z</time>
      </trkpt>
      <trkpt lat="43.66641" lon="6.21268">
        <ele>848.9</ele>
        <time>2024-03-13T16:02:30.000Z</time>
      </trkpt>
      <trkpt lat="43.66644" lon="6.21263">
        <ele>848.6</ele>
        <time>2024-03-13T16:02:34.000Z</time>
      </trkpt>
      <trkpt lat="43.66647" lon="6.21258">
        <ele>848.6</ele>
        <time>2024-03-13T16:02:38.000Z</time>
      </trkpt>
      <trkpt lat="43.66651" lon="6.21254">
        <ele>848.7</ele>
        <time>2024-03-13T16:02:43.000Z</time>
      </trkpt>
      <trkpt lat="43.66656" lon="6.21249">
        <ele>849</ele>
        <time>2024-03-13T16:02:48.000Z</time>
      </trkpt>
      <trkpt lat="43.6666" lon="6.21245">
        <ele>849.2</ele>
        <time>2024-03-13T16:02:53.000Z</time>
      </trkpt>
      <trkpt lat="43.66664" lon="6.2124">
        <ele>849.7</ele>
        <time>2024-03-13T16:02:58.000Z</time>
      </trkpt>
      <trkpt lat="43.66669" lon="6.21237">
        <ele>850.5</ele>
        <time>2024-03-13T16:03:03.000Z</time>
      </trkpt>
      <trkpt lat="43.66672" lon="6.21233">
        <ele>850.9</ele>
        <time>2024-03-13T16:03:08.000Z</time>
      </trkpt>
      <trkpt lat="43.66676" lon="6.21228">
        <ele>851.4</ele>
        <time>2024-03-13T16:03:13.000Z</time>
      </trkpt>
      <trkpt lat="43.66679" lon="6.21225">
        <ele>851.9</ele>
        <time>2024-03-13T16:03:17.899Z</time>
      </trkpt>
      <trkpt lat="43.66683" lon="6.2122">
        <ele>852.5</ele>
        <time>2024-03-13T16:03:23.000Z</time>
      </trkpt>
      <trkpt lat="43.66687" lon="6.21216">
        <ele>853</ele>
        <time>2024-03-13T16:03:29.000Z</time>
      </trkpt>
      <trkpt lat="43.6669" lon="6.21211">
        <ele>853.6</ele>
        <time>2024-03-13T16:03:34.000Z</time>
      </trkpt>
      <trkpt lat="43.66693" lon="6.21206">
        <ele>854.2</ele>
        <time>2024-03-13T16:03:39.000Z</time>
      </trkpt>
      <trkpt lat="43.66697" lon="6.21202">
        <ele>854.8</ele>
        <time>2024-03-13T16:03:44.000Z</time>
      </trkpt>
      <trkpt lat="43.667" lon="6.21197">
        <ele>855.6</ele>
        <time>2024-03-13T16:03:49.000Z</time>
      </trkpt>
      <trkpt lat="43.66703" lon="6.21191">
        <ele>856.5</ele>
        <time>2024-03-13T16:03:54.000Z</time>
      </trkpt>
      <trkpt lat="43.66707" lon="6.21187">
        <ele>857.4</ele>
        <time>2024-03-13T16:03:59.000Z</time>
      </trkpt>
      <trkpt lat="43.66709" lon="6.21182">
        <ele>858.3</ele>
        <time>2024-03-13T16:04:04.000Z</time>
      </trkpt>
      <trkpt lat="43.66712" lon="6.21176">
        <ele>859.5</ele>
        <time>2024-03-13T16:04:10.000Z</time>
      </trkpt>
      <trkpt lat="43.66715" lon="6.21171">
        <ele>860.3</ele>
        <time>2024-03-13T16:04:16.000Z</time>
      </trkpt>
      <trkpt lat="43.66719" lon="6.21167">
        <ele>861.1</ele>
        <time>2024-03-13T16:04:22.000Z</time>
      </trkpt>
      <trkpt lat="43.66723" lon="6.21162">
        <ele>862.1</ele>
        <time>2024-03-13T16:04:28.000Z</time>
      </trkpt>
      <trkpt lat="43.66726" lon="6.21157">
        <ele>862.9</ele>
        <time>2024-03-13T16:04:34.000Z</time>
      </trkpt>
      <trkpt lat="43.6673" lon="6.21151">
        <ele>863.6</ele>
        <time>2024-03-13T16:04:40.000Z</time>
      </trkpt>
      <trkpt lat="43.66733" lon="6.21146">
        <ele>864.2</ele>
        <time>2024-03-13T16:04:45.000Z</time>
      </trkpt>
      <trkpt lat="43.66736" lon="6.2114">
        <ele>865.1</ele>
        <time>2024-03-13T16:04:51.000Z</time>
      </trkpt>
      <trkpt lat="43.66739" lon="6.21136">
        <ele>865.6</ele>
        <time>2024-03-13T16:04:56.000Z</time>
      </trkpt>
      <trkpt lat="43.66742" lon="6.21131">
        <ele>866</ele>
        <time>2024-03-13T16:05:01.000Z</time>
      </trkpt>
      <trkpt lat="43.66745" lon="6.21125">
        <ele>866.5</ele>
        <time>2024-03-13T16:05:07.000Z</time>
      </trkpt>
      <trkpt lat="43.66748" lon="6.2112">
        <ele>866.6</ele>
        <time>2024-03-13T16:05:12.000Z</time>
      </trkpt>
      <trkpt lat="43.66751" lon="6.21115">
        <ele>867.4</ele>
        <time>2024-03-13T16:05:17.000Z</time>
      </trkpt>
      <trkpt lat="43.66754" lon="6.2111">
        <ele>867.9</ele>
        <time>2024-03-13T16:05:22.000Z</time>
      </trkpt>
      <trkpt lat="43.66757" lon="6.21105">
        <ele>868.5</ele>
        <time>2024-03-13T16:05:27.000Z</time>
      </trkpt>
      <trkpt lat="43.6676" lon="6.21099">
        <ele>869.3</ele>
        <time>2024-03-13T16:05:33.000Z</time>
      </trkpt>
      <trkpt lat="43.66763" lon="6.21093">
        <ele>870.3</ele>
        <time>2024-03-13T16:05:39.000Z</time>
      </trkpt>
      <trkpt lat="43.66765" lon="6.21088">
        <ele>870.9</ele>
        <time>2024-03-13T16:05:44.000Z</time>
      </trkpt>
      <trkpt lat="43.66769" lon="6.21083">
        <ele>871.5</ele>
        <time>2024-03-13T16:05:49.000Z</time>
      </trkpt>
      <trkpt lat="43.66773" lon="6.21078">
        <ele>871.8</ele>
        <time>2024-03-13T16:05:54.000Z</time>
      </trkpt>
      <trkpt lat="43.66777" lon="6.21075">
        <ele>872.2</ele>
        <time>2024-03-13T16:05:59.000Z</time>
      </trkpt>
      <trkpt lat="43.66781" lon="6.21072">
        <ele>872.4</ele>
        <time>2024-03-13T16:06:03.000Z</time>
      </trkpt>
      <trkpt lat="43.66785" lon="6.21069">
        <ele>872.3</ele>
        <time>2024-03-13T16:06:07.000Z</time>
      </trkpt>
      <trkpt lat="43.66789" lon="6.21064">
        <ele>872.1</ele>
        <time>2024-03-13T16:06:12.000Z</time>
      </trkpt>
      <trkpt lat="43.66794" lon="6.21059">
        <ele>871.9</ele>
        <time>2024-03-13T16:06:17.000Z</time>
      </trkpt>
      <trkpt lat="43.66797" lon="6.21054">
        <ele>871.7</ele>
        <time>2024-03-13T16:06:21.000Z</time>
      </trkpt>
      <trkpt lat="43.668" lon="6.21049">
        <ele>871.5</ele>
        <time>2024-03-13T16:06:25.000Z</time>
      </trkpt>
      <trkpt lat="43.66804" lon="6.21044">
        <ele>871.2</ele>
        <time>2024-03-13T16:06:30.000Z</time>
      </trkpt>
      <trkpt lat="43.66807" lon="6.21038">
        <ele>870.9</ele>
        <time>2024-03-13T16:06:35.000Z</time>
      </trkpt>
      <trkpt lat="43.6681" lon="6.21033">
        <ele>870.4</ele>
        <time>2024-03-13T16:06:39.000Z</time>
      </trkpt>
      <trkpt lat="43.66813" lon="6.21028">
        <ele>870.1</ele>
        <time>2024-03-13T16:06:43.000Z</time>
      </trkpt>
      <trkpt lat="43.66816" lon="6.21021">
        <ele>869.9</ele>
        <time>2024-03-13T16:06:48.000Z</time>
      </trkpt>
      <trkpt lat="43.66819" lon="6.21015">
        <ele>869.8</ele>
        <time>2024-03-13T16:06:52.000Z</time>
      </trkpt>
      <trkpt lat="43.66822" lon="6.2101">
        <ele>869.2</ele>
        <time>2024-03-13T16:06:56.000Z</time>
      </trkpt>
      <trkpt lat="43.66824" lon="6.21004">
        <ele>868.8</ele>
        <time>2024-03-13T16:07:00.000Z</time>
      </trkpt>
      <trkpt lat="43.66827" lon="6.20998">
        <ele>868.1</ele>
        <time>2024-03-13T16:07:05.000Z</time>
      </trkpt>
      <trkpt lat="43.66829" lon="6.20992">
        <ele>867.4</ele>
        <time>2024-03-13T16:07:09.000Z</time>
      </trkpt>
      <trkpt lat="43.6683" lon="6.20985">
        <ele>866.7</ele>
        <time>2024-03-13T16:07:14.000Z</time>
      </trkpt>
      <trkpt lat="43.66832" lon="6.20978">
        <ele>866.2</ele>
        <time>2024-03-13T16:07:18.000Z</time>
      </trkpt>
      <trkpt lat="43.66833" lon="6.20971">
        <ele>865.6</ele>
        <time>2024-03-13T16:07:22.000Z</time>
      </trkpt>
      <trkpt lat="43.66835" lon="6.20964">
        <ele>865.3</ele>
        <time>2024-03-13T16:07:26.000Z</time>
      </trkpt>
      <trkpt lat="43.66837" lon="6.20957">
        <ele>865.1</ele>
        <time>2024-03-13T16:07:30.000Z</time>
      </trkpt>
      <trkpt lat="43.66838" lon="6.20951">
        <ele>864.8</ele>
        <time>2024-03-13T16:07:34.000Z</time>
      </trkpt>
      <trkpt lat="43.6684" lon="6.20944">
        <ele>864.6</ele>
        <time>2024-03-13T16:07:38.000Z</time>
      </trkpt>
      <trkpt lat="43.66841" lon="6.20938">
        <ele>864.3</ele>
        <time>2024-03-13T16:07:42.000Z</time>
      </trkpt>
      <trkpt lat="43.66843" lon="6.20931">
        <ele>864.1</ele>
        <time>2024-03-13T16:07:46.000Z</time>
      </trkpt>
      <trkpt lat="43.66844" lon="6.20924">
        <ele>863.9</ele>
        <time>2024-03-13T16:07:50.000Z</time>
      </trkpt>
      <trkpt lat="43.66846" lon="6.20918">
        <ele>863.5</ele>
        <time>2024-03-13T16:07:54.000Z</time>
      </trkpt>
      <trkpt lat="43.66847" lon="6.20912">
        <ele>863.1</ele>
        <time>2024-03-13T16:07:58.000Z</time>
      </trkpt>
      <trkpt lat="43.66849" lon="6.20905">
        <ele>862.8</ele>
        <time>2024-03-13T16:08:02.000Z</time>
      </trkpt>
      <trkpt lat="43.6685" lon="6.20899">
        <ele>862.7</ele>
        <time>2024-03-13T16:08:06.000Z</time>
      </trkpt>
      <trkpt lat="43.66852" lon="6.20892">
        <ele>862.2</ele>
        <time>2024-03-13T16:08:10.000Z</time>
      </trkpt>
      <trkpt lat="43.66854" lon="6.20886">
        <ele>861.7</ele>
        <time>2024-03-13T16:08:15.000Z</time>
      </trkpt>
      <trkpt lat="43.66855" lon="6.20879">
        <ele>861.4</ele>
        <time>2024-03-13T16:08:19.000Z</time>
      </trkpt>
      <trkpt lat="43.66857" lon="6.20872">
        <ele>861.2</ele>
        <time>2024-03-13T16:08:24.000Z</time>
      </trkpt>
      <trkpt lat="43.66858" lon="6.20865">
        <ele>860.8</ele>
        <time>2024-03-13T16:08:28.000Z</time>
      </trkpt>
      <trkpt lat="43.6686" lon="6.20858">
        <ele>860.5</ele>
        <time>2024-03-13T16:08:32.000Z</time>
      </trkpt>
      <trkpt lat="43.66862" lon="6.20852">
        <ele>860.5</ele>
        <time>2024-03-13T16:08:36.000Z</time>
      </trkpt>
      <trkpt lat="43.66862" lon="6.20845">
        <ele>860.4</ele>
        <time>2024-03-13T16:08:40.000Z</time>
      </trkpt>
      <trkpt lat="43.66863" lon="6.20838">
        <ele>860.8</ele>
        <time>2024-03-13T16:08:44.000Z</time>
      </trkpt>
      <trkpt lat="43.66864" lon="6.20831">
        <ele>860.9</ele>
        <time>2024-03-13T16:08:49.000Z</time>
      </trkpt>
      <trkpt lat="43.66866" lon="6.20825">
        <ele>861</ele>
        <time>2024-03-13T16:08:53.000Z</time>
      </trkpt>
      <trkpt lat="43.66867" lon="6.20818">
        <ele>861.1</ele>
        <time>2024-03-13T16:08:57.000Z</time>
      </trkpt>
      <trkpt lat="43.66869" lon="6.20812">
        <ele>860.8</ele>
        <time>2024-03-13T16:09:01.000Z</time>
      </trkpt>
      <trkpt lat="43.66871" lon="6.20804">
        <ele>860.4</ele>
        <time>2024-03-13T16:09:06.000Z</time>
      </trkpt>
      <trkpt lat="43.66872" lon="6.20798">
        <ele>860.3</ele>
        <time>2024-03-13T16:09:10.000Z</time>
      </trkpt>
      <trkpt lat="43.66872" lon="6.20791">
        <ele>860.4</ele>
        <time>2024-03-13T16:09:14.000Z</time>
      </trkpt>
      <trkpt lat="43.66872" lon="6.20784">
        <ele>860.6</ele>
        <time>2024-03-13T16:09:18.000Z</time>
      </trkpt>
      <trkpt lat="43.66872" lon="6.20777">
        <ele>860.7</ele>
        <time>2024-03-13T16:09:22.000Z</time>
      </trkpt>
      <trkpt lat="43.66871" lon="6.20771">
        <ele>860.9</ele>
        <time>2024-03-13T16:09:26.000Z</time>
      </trkpt>
      <trkpt lat="43.66871" lon="6.20764">
        <ele>860.8</ele>
        <time>2024-03-13T16:09:30.000Z</time>
      </trkpt>
      <trkpt lat="43.66871" lon="6.20757">
        <ele>860.8</ele>
        <time>2024-03-13T16:09:34.000Z</time>
      </trkpt>
      <trkpt lat="43.66871" lon="6.2075">
        <ele>860.8</ele>
        <time>2024-03-13T16:09:38.000Z</time>
      </trkpt>
      <trkpt lat="43.66871" lon="6.20744">
        <ele>860.8</ele>
        <time>2024-03-13T16:09:42.000Z</time>
      </trkpt>
      <trkpt lat="43.66872" lon="6.20738">
        <ele>861.1</ele>
        <time>2024-03-13T16:09:46.000Z</time>
      </trkpt>
      <trkpt lat="43.66872" lon="6.20731">
        <ele>861.4</ele>
        <time>2024-03-13T16:09:50.000Z</time>
      </trkpt>
      <trkpt lat="43.66873" lon="6.20725">
        <ele>861.5</ele>
        <time>2024-03-13T16:09:54.000Z</time>
      </trkpt>
      <trkpt lat="43.66874" lon="6.20717">
        <ele>862</ele>
        <time>2024-03-13T16:09:59.000Z</time>
      </trkpt>
      <trkpt lat="43.66875" lon="6.2071">
        <ele>862.3</ele>
        <time>2024-03-13T16:10:04.000Z</time>
      </trkpt>
      <trkpt lat="43.66878" lon="6.20703">
        <ele>862.4</ele>
        <time>2024-03-13T16:10:09.000Z</time>
      </trkpt>
      <trkpt lat="43.66881" lon="6.20698">
        <ele>862.6</ele>
        <time>2024-03-13T16:10:14.000Z</time>
      </trkpt>
      <trkpt lat="43.66885" lon="6.20693">
        <ele>862.7</ele>
        <time>2024-03-13T16:10:19.000Z</time>
      </trkpt>
      <trkpt lat="43.66889" lon="6.20688">
        <ele>862.8</ele>
        <time>2024-03-13T16:10:23.000Z</time>
      </trkpt>
      <trkpt lat="43.66893" lon="6.20684">
        <ele>862.6</ele>
        <time>2024-03-13T16:10:27.000Z</time>
      </trkpt>
      <trkpt lat="43.66897" lon="6.2068">
        <ele>862.5</ele>
        <time>2024-03-13T16:10:31.000Z</time>
      </trkpt>
      <trkpt lat="43.66901" lon="6.20676">
        <ele>862.3</ele>
        <time>2024-03-13T16:10:36.000Z</time>
      </trkpt>
      <trkpt lat="43.66905" lon="6.20671">
        <ele>861.9</ele>
        <time>2024-03-13T16:10:41.000Z</time>
      </trkpt>
      <trkpt lat="43.66908" lon="6.20666">
        <ele>861.1</ele>
        <time>2024-03-13T16:10:46.000Z</time>
      </trkpt>
      <trkpt lat="43.66912" lon="6.20661">
        <ele>860.7</ele>
        <time>2024-03-13T16:10:52.000Z</time>
      </trkpt>
      <trkpt lat="43.66916" lon="6.20658">
        <ele>860</ele>
        <time>2024-03-13T16:10:58.000Z</time>
      </trkpt>
      <trkpt lat="43.66921" lon="6.20654">
        <ele>859.2</ele>
        <time>2024-03-13T16:11:04.000Z</time>
      </trkpt>
      <trkpt lat="43.66925" lon="6.20649">
        <ele>858.5</ele>
        <time>2024-03-13T16:11:09.000Z</time>
      </trkpt>
      <trkpt lat="43.6693" lon="6.20646">
        <ele>857.9</ele>
        <time>2024-03-13T16:11:14.000Z</time>
      </trkpt>
      <trkpt lat="43.66934" lon="6.20642">
        <ele>857.4</ele>
        <time>2024-03-13T16:11:19.000Z</time>
      </trkpt>
      <trkpt lat="43.66938" lon="6.2064">
        <ele>856.8</ele>
        <time>2024-03-13T16:11:24.000Z</time>
      </trkpt>
      <trkpt lat="43.66942" lon="6.20637">
        <ele>856.4</ele>
        <time>2024-03-13T16:11:28.000Z</time>
      </trkpt>
      <trkpt lat="43.66948" lon="6.20634">
        <ele>855.5</ele>
        <time>2024-03-13T16:11:33.000Z</time>
      </trkpt>
      <trkpt lat="43.66952" lon="6.20632">
        <ele>854.9</ele>
        <time>2024-03-13T16:11:37.000Z</time>
      </trkpt>
      <trkpt lat="43.66957" lon="6.2063">
        <ele>854</ele>
        <time>2024-03-13T16:11:42.000Z</time>
      </trkpt>
      <trkpt lat="43.66961" lon="6.20628">
        <ele>853.2</ele>
        <time>2024-03-13T16:11:46.000Z</time>
      </trkpt>
      <trkpt lat="43.66965" lon="6.20625">
        <ele>852.3</ele>
        <time>2024-03-13T16:11:50.000Z</time>
      </trkpt>
      <trkpt lat="43.6697" lon="6.20621">
        <ele>851.5</ele>
        <time>2024-03-13T16:11:55.000Z</time>
      </trkpt>
      <trkpt lat="43.66974" lon="6.20617">
        <ele>851</ele>
        <time>2024-03-13T16:11:59.000Z</time>
      </trkpt>
      <trkpt lat="43.66978" lon="6.20613">
        <ele>850.4</ele>
        <time>2024-03-13T16:12:03.000Z</time>
      </trkpt>
      <trkpt lat="43.66981" lon="6.20607">
        <ele>850.2</ele>
        <time>2024-03-13T16:12:07.000Z</time>
      </trkpt>
      <trkpt lat="43.66983" lon="6.206">
        <ele>849.9</ele>
        <time>2024-03-13T16:12:11.000Z</time>
      </trkpt>
      <trkpt lat="43.66984" lon="6.20593">
        <ele>849.6</ele>
        <time>2024-03-13T16:12:15.000Z</time>
      </trkpt>
      <trkpt lat="43.66984" lon="6.20585">
        <ele>849.4</ele>
        <time>2024-03-13T16:12:20.000Z</time>
      </trkpt>
      <trkpt lat="43.66984" lon="6.20578">
        <ele>849.2</ele>
        <time>2024-03-13T16:12:25.000Z</time>
      </trkpt>
      <trkpt lat="43.66983" lon="6.20572">
        <ele>848.7</ele>
        <time>2024-03-13T16:12:29.000Z</time>
      </trkpt>
      <trkpt lat="43.66982" lon="6.20565">
        <ele>848.3</ele>
        <time>2024-03-13T16:12:33.000Z</time>
      </trkpt>
      <trkpt lat="43.66982" lon="6.20558">
        <ele>847.8</ele>
        <time>2024-03-13T16:12:38.000Z</time>
      </trkpt>
      <trkpt lat="43.66982" lon="6.20551">
        <ele>847.4</ele>
        <time>2024-03-13T16:12:43.000Z</time>
      </trkpt>
      <trkpt lat="43.66982" lon="6.20543">
        <ele>846.5</ele>
        <time>2024-03-13T16:12:48.000Z</time>
      </trkpt>
      <trkpt lat="43.66982" lon="6.20537">
        <ele>845.8</ele>
        <time>2024-03-13T16:12:52.000Z</time>
      </trkpt>
      <trkpt lat="43.66981" lon="6.2053">
        <ele>845.5</ele>
        <time>2024-03-13T16:12:55.000Z</time>
      </trkpt>
      <trkpt lat="43.66982" lon="6.20524">
        <ele>844.8</ele>
        <time>2024-03-13T16:13:00.000Z</time>
      </trkpt>
      <trkpt lat="43.66982" lon="6.20517">
        <ele>843.7</ele>
        <time>2024-03-13T16:13:05.000Z</time>
      </trkpt>
      <trkpt lat="43.66984" lon="6.2051">
        <ele>842.7</ele>
        <time>2024-03-13T16:13:10.000Z</time>
      </trkpt>
      <trkpt lat="43.66986" lon="6.20503">
        <ele>842</ele>
        <time>2024-03-13T16:13:15.000Z</time>
      </trkpt>
      <trkpt lat="43.66989" lon="6.20497">
        <ele>841.4</ele>
        <time>2024-03-13T16:13:19.000Z</time>
      </trkpt>
      <trkpt lat="43.66993" lon="6.20494">
        <ele>840.9</ele>
        <time>2024-03-13T16:13:23.000Z</time>
      </trkpt>
      <trkpt lat="43.66998" lon="6.20492">
        <ele>840.6</ele>
        <time>2024-03-13T16:13:27.000Z</time>
      </trkpt>
      <trkpt lat="43.67003" lon="6.20491">
        <ele>840.5</ele>
        <time>2024-03-13T16:13:31.000Z</time>
      </trkpt>
      <trkpt lat="43.67008" lon="6.2049">
        <ele>840.4</ele>
        <time>2024-03-13T16:13:35.000Z</time>
      </trkpt>
      <trkpt lat="43.67013" lon="6.20488">
        <ele>840.1</ele>
        <time>2024-03-13T16:13:39.000Z</time>
      </trkpt>
      <trkpt lat="43.67017" lon="6.20485">
        <ele>840.1</ele>
        <time>2024-03-13T16:13:43.000Z</time>
      </trkpt>
      <trkpt lat="43.6702" lon="6.2048">
        <ele>840.1</ele>
        <time>2024-03-13T16:13:47.000Z</time>
      </trkpt>
      <trkpt lat="43.67022" lon="6.20472">
        <ele>840</ele>
        <time>2024-03-13T16:13:52.000Z</time>
      </trkpt>
      <trkpt lat="43.67023" lon="6.20466">
        <ele>840.3</ele>
        <time>2024-03-13T16:13:56.000Z</time>
      </trkpt>
      <trkpt lat="43.67024" lon="6.20459">
        <ele>840.3</ele>
        <time>2024-03-13T16:14:00.000Z</time>
      </trkpt>
      <trkpt lat="43.67024" lon="6.20452">
        <ele>840.3</ele>
        <time>2024-03-13T16:14:04.000Z</time>
      </trkpt>
      <trkpt lat="43.67024" lon="6.20444">
        <ele>840.2</ele>
        <time>2024-03-13T16:14:09.000Z</time>
      </trkpt>
      <trkpt lat="43.67024" lon="6.20437">
        <ele>839.8</ele>
        <time>2024-03-13T16:14:13.000Z</time>
      </trkpt>
      <trkpt lat="43.67025" lon="6.2043">
        <ele>839.8</ele>
        <time>2024-03-13T16:14:17.000Z</time>
      </trkpt>
      <trkpt lat="43.67025" lon="6.20423">
        <ele>839.6</ele>
        <time>2024-03-13T16:14:21.000Z</time>
      </trkpt>
      <trkpt lat="43.67026" lon="6.20417">
        <ele>839.3</ele>
        <time>2024-03-13T16:14:25.000Z</time>
      </trkpt>
      <trkpt lat="43.67028" lon="6.20411">
        <ele>839.1</ele>
        <time>2024-03-13T16:14:29.000Z</time>
      </trkpt>
      <trkpt lat="43.67031" lon="6.20406">
        <ele>838.7</ele>
        <time>2024-03-13T16:14:35.000Z</time>
      </trkpt>
      <trkpt lat="43.67036" lon="6.20403">
        <ele>838.2</ele>
        <time>2024-03-13T16:14:40.000Z</time>
      </trkpt>
      <trkpt lat="43.6704" lon="6.20403">
        <ele>837.8</ele>
        <time>2024-03-13T16:14:45.000Z</time>
      </trkpt>
      <trkpt lat="43.67045" lon="6.20401">
        <ele>837</ele>
        <time>2024-03-13T16:14:50.000Z</time>
      </trkpt>
      <trkpt lat="43.67049" lon="6.20398">
        <ele>836.1</ele>
        <time>2024-03-13T16:14:55.000Z</time>
      </trkpt>
      <trkpt lat="43.67054" lon="6.20396">
        <ele>835.3</ele>
        <time>2024-03-13T16:15:00.000Z</time>
      </trkpt>
      <trkpt lat="43.67058" lon="6.20392">
        <ele>834.9</ele>
        <time>2024-03-13T16:15:05.000Z</time>
      </trkpt>
      <trkpt lat="43.67062" lon="6.20388">
        <ele>834.6</ele>
        <time>2024-03-13T16:15:10.000Z</time>
      </trkpt>
      <trkpt lat="43.67067" lon="6.20384">
        <ele>833.8</ele>
        <time>2024-03-13T16:15:15.000Z</time>
      </trkpt>
      <trkpt lat="43.67072" lon="6.20381">
        <ele>833.1</ele>
        <time>2024-03-13T16:15:20.000Z</time>
      </trkpt>
      <trkpt lat="43.67076" lon="6.2038">
        <ele>832.9</ele>
        <time>2024-03-13T16:15:24.000Z</time>
      </trkpt>
      <trkpt lat="43.67081" lon="6.20378">
        <ele>832.5</ele>
        <time>2024-03-13T16:15:28.000Z</time>
      </trkpt>
      <trkpt lat="43.67086" lon="6.20377">
        <ele>832</ele>
        <time>2024-03-13T16:15:32.000Z</time>
      </trkpt>
      <trkpt lat="43.67091" lon="6.20375">
        <ele>831.9</ele>
        <time>2024-03-13T16:15:37.000Z</time>
      </trkpt>
      <trkpt lat="43.67096" lon="6.20372">
        <ele>831.5</ele>
        <time>2024-03-13T16:15:42.000Z</time>
      </trkpt>
      <trkpt lat="43.67101" lon="6.20369">
        <ele>831</ele>
        <time>2024-03-13T16:15:47.000Z</time>
      </trkpt>
      <trkpt lat="43.67105" lon="6.20364">
        <ele>830.7</ele>
        <time>2024-03-13T16:15:52.000Z</time>
      </trkpt>
      <trkpt lat="43.67107" lon="6.20358">
        <ele>830.6</ele>
        <time>2024-03-13T16:15:57.000Z</time>
      </trkpt>
      <trkpt lat="43.67108" lon="6.20352">
        <ele>829.9</ele>
        <time>2024-03-13T16:16:02.000Z</time>
      </trkpt>
      <trkpt lat="43.67105" lon="6.20346">
        <ele>829.4</ele>
        <time>2024-03-13T16:16:07.000Z</time>
      </trkpt>
      <trkpt lat="43.67101" lon="6.20342">
        <ele>828.6</ele>
        <time>2024-03-13T16:16:12.000Z</time>
      </trkpt>
      <trkpt lat="43.67098" lon="6.20337">
        <ele>827.9</ele>
        <time>2024-03-13T16:16:17.000Z</time>
      </trkpt>
      <trkpt lat="43.67095" lon="6.20332">
        <ele>827.5</ele>
        <time>2024-03-13T16:16:21.000Z</time>
      </trkpt>
      <trkpt lat="43.67092" lon="6.20326">
        <ele>827.3</ele>
        <time>2024-03-13T16:16:26.000Z</time>
      </trkpt>
      <trkpt lat="43.67088" lon="6.20322">
        <ele>826.9</ele>
        <time>2024-03-13T16:16:32.000Z</time>
      </trkpt>
      <trkpt lat="43.67084" lon="6.20319">
        <ele>826.5</ele>
        <time>2024-03-13T16:16:37.000Z</time>
      </trkpt>
      <trkpt lat="43.6708" lon="6.20315">
        <ele>826.2</ele>
        <time>2024-03-13T16:16:41.000Z</time>
      </trkpt>
      <trkpt lat="43.67075" lon="6.20312">
        <ele>826.2</ele>
        <time>2024-03-13T16:16:45.000Z</time>
      </trkpt>
      <trkpt lat="43.6707" lon="6.2031">
        <ele>826.1</ele>
        <time>2024-03-13T16:16:50.000Z</time>
      </trkpt>
      <trkpt lat="43.67065" lon="6.20309">
        <ele>826.3</ele>
        <time>2024-03-13T16:16:55.000Z</time>
      </trkpt>
      <trkpt lat="43.67059" lon="6.20307">
        <ele>826</ele>
        <time>2024-03-13T16:16:59.000Z</time>
      </trkpt>
      <trkpt lat="43.67054" lon="6.20304">
        <ele>825.9</ele>
        <time>2024-03-13T16:17:03.000Z</time>
      </trkpt>
      <trkpt lat="43.6705" lon="6.20301">
        <ele>825.7</ele>
        <time>2024-03-13T16:17:06.000Z</time>
      </trkpt>
      <trkpt lat="43.67046" lon="6.20297">
        <ele>825.5</ele>
        <time>2024-03-13T16:17:10.000Z</time>
      </trkpt>
      <trkpt lat="43.67043" lon="6.20292">
        <ele>825.4</ele>
        <time>2024-03-13T16:17:14.000Z</time>
      </trkpt>
      <trkpt lat="43.67039" lon="6.20287">
        <ele>825.2</ele>
        <time>2024-03-13T16:17:18.000Z</time>
      </trkpt>
      <trkpt lat="43.67036" lon="6.20282">
        <ele>825.3</ele>
        <time>2024-03-13T16:17:23.000Z</time>
      </trkpt>
      <trkpt lat="43.67032" lon="6.20277">
        <ele>825</ele>
        <time>2024-03-13T16:17:28.000Z</time>
      </trkpt>
      <trkpt lat="43.6703" lon="6.2027">
        <ele>824.6</ele>
        <time>2024-03-13T16:17:33.000Z</time>
      </trkpt>
      <trkpt lat="43.67026" lon="6.20266">
        <ele>824.1</ele>
        <time>2024-03-13T16:17:38.000Z</time>
      </trkpt>
      <trkpt lat="43.67023" lon="6.20261">
        <ele>823.2</ele>
        <time>2024-03-13T16:17:44.000Z</time>
      </trkpt>
      <trkpt lat="43.6702" lon="6.20255">
        <ele>822.8</ele>
        <time>2024-03-13T16:17:49.000Z</time>
      </trkpt>
      <trkpt lat="43.67017" lon="6.2025">
        <ele>822.4</ele>
        <time>2024-03-13T16:17:54.000Z</time>
      </trkpt>
      <trkpt lat="43.67013" lon="6.20244">
        <ele>822.2</ele>
        <time>2024-03-13T16:17:59.000Z</time>
      </trkpt>
      <trkpt lat="43.6701" lon="6.20238">
        <ele>821.4</ele>
        <time>2024-03-13T16:18:04.000Z</time>
      </trkpt>
      <trkpt lat="43.67008" lon="6.20232">
        <ele>820.7</ele>
        <time>2024-03-13T16:18:09.000Z</time>
      </trkpt>
      <trkpt lat="43.67005" lon="6.20227">
        <ele>819.9</ele>
        <time>2024-03-13T16:18:14.000Z</time>
      </trkpt>
      <trkpt lat="43.67001" lon="6.20222">
        <ele>819.5</ele>
        <time>2024-03-13T16:18:19.000Z</time>
      </trkpt>
      <trkpt lat="43.66999" lon="6.20216">
        <ele>818.9</ele>
        <time>2024-03-13T16:18:24.000Z</time>
      </trkpt>
      <trkpt lat="43.66997" lon="6.2021">
        <ele>818.3</ele>
        <time>2024-03-13T16:18:29.000Z</time>
      </trkpt>
      <trkpt lat="43.66994" lon="6.20205">
        <ele>817.8</ele>
        <time>2024-03-13T16:18:34.000Z</time>
      </trkpt>
      <trkpt lat="43.66991" lon="6.202">
        <ele>816.9</ele>
        <time>2024-03-13T16:18:39.000Z</time>
      </trkpt>
      <trkpt lat="43.66989" lon="6.20194">
        <ele>815.9</ele>
        <time>2024-03-13T16:18:44.000Z</time>
      </trkpt>
      <trkpt lat="43.66987" lon="6.20187">
        <ele>815.3</ele>
        <time>2024-03-13T16:18:49.000Z</time>
      </trkpt>
      <trkpt lat="43.66986" lon="6.20181">
        <ele>814.6</ele>
        <time>2024-03-13T16:18:53.000Z</time>
      </trkpt>
      <trkpt lat="43.66983" lon="6.20176">
        <ele>814.2</ele>
        <time>2024-03-13T16:18:57.000Z</time>
      </trkpt>
      <trkpt lat="43.6698" lon="6.2017">
        <ele>814</ele>
        <time>2024-03-13T16:19:01.000Z</time>
      </trkpt>
      <trkpt lat="43.66978" lon="6.20163">
        <ele>814</ele>
        <time>2024-03-13T16:19:05.000Z</time>
      </trkpt>
      <trkpt lat="43.66975" lon="6.20158">
        <ele>813.8</ele>
        <time>2024-03-13T16:19:09.000Z</time>
      </trkpt>
      <trkpt lat="43.66971" lon="6.20153">
        <ele>813.7</ele>
        <time>2024-03-13T16:19:13.000Z</time>
      </trkpt>
      <trkpt lat="43.66968" lon="6.20148">
        <ele>813.5</ele>
        <time>2024-03-13T16:19:17.000Z</time>
      </trkpt>
      <trkpt lat="43.66964" lon="6.20143">
        <ele>813.3</ele>
        <time>2024-03-13T16:19:21.000Z</time>
      </trkpt>
      <trkpt lat="43.6696" lon="6.20139">
        <ele>813</ele>
        <time>2024-03-13T16:19:25.000Z</time>
      </trkpt>
      <trkpt lat="43.66956" lon="6.20134">
        <ele>812.6</ele>
        <time>2024-03-13T16:19:29.000Z</time>
      </trkpt>
      <trkpt lat="43.66953" lon="6.20128">
        <ele>811.9</ele>
        <time>2024-03-13T16:19:34.000Z</time>
      </trkpt>
      <trkpt lat="43.66949" lon="6.20123">
        <ele>811.3</ele>
        <time>2024-03-13T16:19:39.000Z</time>
      </trkpt>
      <trkpt lat="43.66945" lon="6.20118">
        <ele>810.7</ele>
        <time>2024-03-13T16:19:44.000Z</time>
      </trkpt>
      <trkpt lat="43.66941" lon="6.20114">
        <ele>810.6</ele>
        <time>2024-03-13T16:19:47.000Z</time>
      </trkpt>
      <trkpt lat="43.66937" lon="6.20109">
        <ele>810.4</ele>
        <time>2024-03-13T16:19:52.000Z</time>
      </trkpt>
      <trkpt lat="43.66933" lon="6.20106">
        <ele>809.9</ele>
        <time>2024-03-13T16:19:56.000Z</time>
      </trkpt>
      <trkpt lat="43.66929" lon="6.20103">
        <ele>809.5</ele>
        <time>2024-03-13T16:20:01.000Z</time>
      </trkpt>
      <trkpt lat="43.66925" lon="6.20099">
        <ele>809.4</ele>
        <time>2024-03-13T16:20:05.000Z</time>
      </trkpt>
      <trkpt lat="43.66922" lon="6.20095">
        <ele>809</ele>
        <time>2024-03-13T16:20:09.000Z</time>
      </trkpt>
      <trkpt lat="43.66917" lon="6.2009">
        <ele>808.4</ele>
        <time>2024-03-13T16:20:14.000Z</time>
      </trkpt>
      <trkpt lat="43.66913" lon="6.20085">
        <ele>808</ele>
        <time>2024-03-13T16:20:18.000Z</time>
      </trkpt>
      <trkpt lat="43.66911" lon="6.2008">
        <ele>807.9</ele>
        <time>2024-03-13T16:20:22.000Z</time>
      </trkpt>
      <trkpt lat="43.66907" lon="6.20075">
        <ele>807.7</ele>
        <time>2024-03-13T16:20:26.000Z</time>
      </trkpt>
      <trkpt lat="43.66904" lon="6.20069">
        <ele>807.8</ele>
        <time>2024-03-13T16:20:30.000Z</time>
      </trkpt>
      <trkpt lat="43.669" lon="6.20063">
        <ele>808</ele>
        <time>2024-03-13T16:20:35.000Z</time>
      </trkpt>
      <trkpt lat="43.66897" lon="6.20057">
        <ele>808.3</ele>
        <time>2024-03-13T16:20:39.000Z</time>
      </trkpt>
      <trkpt lat="43.66895" lon="6.20052">
        <ele>808.3</ele>
        <time>2024-03-13T16:20:43.000Z</time>
      </trkpt>
      <trkpt lat="43.66892" lon="6.20046">
        <ele>808.1</ele>
        <time>2024-03-13T16:20:47.000Z</time>
      </trkpt>
      <trkpt lat="43.66889" lon="6.20041">
        <ele>807.8</ele>
        <time>2024-03-13T16:20:51.000Z</time>
      </trkpt>
      <trkpt lat="43.66887" lon="6.20035">
        <ele>807.7</ele>
        <time>2024-03-13T16:20:55.000Z</time>
      </trkpt>
      <trkpt lat="43.66885" lon="6.20029">
        <ele>807.8</ele>
        <time>2024-03-13T16:20:59.000Z</time>
      </trkpt>
      <trkpt lat="43.66883" lon="6.20023">
        <ele>807.8</ele>
        <time>2024-03-13T16:21:04.000Z</time>
      </trkpt>
      <trkpt lat="43.66881" lon="6.20017">
        <ele>807.8</ele>
        <time>2024-03-13T16:21:08.000Z</time>
      </trkpt>
      <trkpt lat="43.66879" lon="6.20011">
        <ele>808</ele>
        <time>2024-03-13T16:21:12.000Z</time>
      </trkpt>
      <trkpt lat="43.66877" lon="6.20004">
        <ele>808.5</ele>
        <time>2024-03-13T16:21:17.000Z</time>
      </trkpt>
      <trkpt lat="43.66875" lon="6.19998">
        <ele>808.7</ele>
        <time>2024-03-13T16:21:21.000Z</time>
      </trkpt>
      <trkpt lat="43.66873" lon="6.19992">
        <ele>809.1</ele>
        <time>2024-03-13T16:21:26.000Z</time>
      </trkpt>
      <trkpt lat="43.66871" lon="6.19985">
        <ele>809.6</ele>
        <time>2024-03-13T16:21:31.000Z</time>
      </trkpt>
      <trkpt lat="43.6687" lon="6.19978">
        <ele>810.3</ele>
        <time>2024-03-13T16:21:36.000Z</time>
      </trkpt>
      <trkpt lat="43.66868" lon="6.19971">
        <ele>811.1</ele>
        <time>2024-03-13T16:21:41.000Z</time>
      </trkpt>
      <trkpt lat="43.66867" lon="6.19964">
        <ele>811.8</ele>
        <time>2024-03-13T16:21:46.000Z</time>
      </trkpt>
      <trkpt lat="43.66866" lon="6.19957">
        <ele>812.1</ele>
        <time>2024-03-13T16:21:51.000Z</time>
      </trkpt>
      <trkpt lat="43.66864" lon="6.19951">
        <ele>812.4</ele>
        <time>2024-03-13T16:21:56.000Z</time>
      </trkpt>
      <trkpt lat="43.66862" lon="6.19945">
        <ele>812.7</ele>
        <time>2024-03-13T16:22:00.000Z</time>
      </trkpt>
      <trkpt lat="43.66859" lon="6.1994">
        <ele>813.3</ele>
        <time>2024-03-13T16:22:05.000Z</time>
      </trkpt>
      <trkpt lat="43.66857" lon="6.19934">
        <ele>814</ele>
        <time>2024-03-13T16:22:10.000Z</time>
      </trkpt>
      <trkpt lat="43.66855" lon="6.19929">
        <ele>814.3</ele>
        <time>2024-03-13T16:22:15.000Z</time>
      </trkpt>
      <trkpt lat="43.66853" lon="6.19922">
        <ele>814.4</ele>
        <time>2024-03-13T16:22:22.000Z</time>
      </trkpt>
      <trkpt lat="43.66852" lon="6.19916">
        <ele>815</ele>
        <time>2024-03-13T16:22:36.000Z</time>
      </trkpt>
      <trkpt lat="43.6685" lon="6.1991">
        <ele>815</ele>
        <time>2024-03-13T16:22:46.000Z</time>
      </trkpt>
      <trkpt lat="43.66845" lon="6.19909">
        <ele>814.8</ele>
        <time>2024-03-13T16:24:24.000Z</time>
      </trkpt>
      <trkpt lat="43.6684" lon="6.1991">
        <ele>815</ele>
        <time>2024-03-13T16:24:31.000Z</time>
      </trkpt>
      <trkpt lat="43.66835" lon="6.19908">
        <ele>815.1</ele>
        <time>2024-03-13T16:24:36.000Z</time>
      </trkpt>
      <trkpt lat="43.66831" lon="6.19907">
        <ele>814.9</ele>
        <time>2024-03-13T16:24:41.000Z</time>
      </trkpt>
      <trkpt lat="43.66826" lon="6.19907">
        <ele>815</ele>
        <time>2024-03-13T16:24:47.000Z</time>
      </trkpt>
      <trkpt lat="43.66821" lon="6.19905">
        <ele>815.4</ele>
        <time>2024-03-13T16:24:52.000Z</time>
      </trkpt>
      <trkpt lat="43.66816" lon="6.19904">
        <ele>815.4</ele>
        <time>2024-03-13T16:24:57.000Z</time>
      </trkpt>
      <trkpt lat="43.66811" lon="6.19902">
        <ele>815.6</ele>
        <time>2024-03-13T16:25:03.000Z</time>
      </trkpt>
      <trkpt lat="43.66806" lon="6.199">
        <ele>816.3</ele>
        <time>2024-03-13T16:25:10.000Z</time>
      </trkpt>
      <trkpt lat="43.66801" lon="6.19899">
        <ele>817.1</ele>
        <time>2024-03-13T16:25:16.000Z</time>
      </trkpt>
      <trkpt lat="43.66796" lon="6.19895">
        <ele>817.7</ele>
        <time>2024-03-13T16:25:21.000Z</time>
      </trkpt>
      <trkpt lat="43.66791" lon="6.19894">
        <ele>818.1</ele>
        <time>2024-03-13T16:25:26.000Z</time>
      </trkpt>
      <trkpt lat="43.66786" lon="6.19892">
        <ele>818.5</ele>
        <time>2024-03-13T16:25:31.000Z</time>
      </trkpt>
      <trkpt lat="43.66781" lon="6.19891">
        <ele>818.7</ele>
        <time>2024-03-13T16:25:36.000Z</time>
      </trkpt>
      <trkpt lat="43.66775" lon="6.1989">
        <ele>819.2</ele>
        <time>2024-03-13T16:25:41.000Z</time>
      </trkpt>
      <trkpt lat="43.6677" lon="6.1989">
        <ele>819.4</ele>
        <time>2024-03-13T16:25:46.000Z</time>
      </trkpt>
      <trkpt lat="43.66765" lon="6.19889">
        <ele>819.8</ele>
        <time>2024-03-13T16:25:51.000Z</time>
      </trkpt>
      <trkpt lat="43.6676" lon="6.19887">
        <ele>820.1</ele>
        <time>2024-03-13T16:25:56.000Z</time>
      </trkpt>
      <trkpt lat="43.66755" lon="6.19886">
        <ele>820.3</ele>
        <time>2024-03-13T16:26:02.000Z</time>
      </trkpt>
      <trkpt lat="43.66751" lon="6.19884">
        <ele>820.5</ele>
        <time>2024-03-13T16:26:07.000Z</time>
      </trkpt>
      <trkpt lat="43.66746" lon="6.19881">
        <ele>821</ele>
        <time>2024-03-13T16:26:12.000Z</time>
      </trkpt>
      <trkpt lat="43.66742" lon="6.19877">
        <ele>821.5</ele>
        <time>2024-03-13T16:26:18.000Z</time>
      </trkpt>
      <trkpt lat="43.66737" lon="6.19874">
        <ele>822</ele>
        <time>2024-03-13T16:26:23.000Z</time>
      </trkpt>
      <trkpt lat="43.66732" lon="6.19873">
        <ele>822.4</ele>
        <time>2024-03-13T16:26:28.000Z</time>
      </trkpt>
      <trkpt lat="43.66727" lon="6.19873">
        <ele>823</ele>
        <time>2024-03-13T16:26:33.000Z</time>
      </trkpt>
      <trkpt lat="43.66723" lon="6.19872">
        <ele>823.6</ele>
        <time>2024-03-13T16:26:38.000Z</time>
      </trkpt>
      <trkpt lat="43.66718" lon="6.1987">
        <ele>824</ele>
        <time>2024-03-13T16:26:43.000Z</time>
      </trkpt>
      <trkpt lat="43.66714" lon="6.19868">
        <ele>824.3</ele>
        <time>2024-03-13T16:26:48.000Z</time>
      </trkpt>
      <trkpt lat="43.66709" lon="6.19866">
        <ele>824.2</ele>
        <time>2024-03-13T16:26:53.000Z</time>
      </trkpt>
      <trkpt lat="43.66705" lon="6.19863">
        <ele>824</ele>
        <time>2024-03-13T16:26:59.000Z</time>
      </trkpt>
      <trkpt lat="43.66701" lon="6.19859">
        <ele>823.7</ele>
        <time>2024-03-13T16:27:06.000Z</time>
      </trkpt>
      <trkpt lat="43.66697" lon="6.19857">
        <ele>822.7</ele>
        <time>2024-03-13T16:27:28.000Z</time>
      </trkpt>
      <trkpt lat="43.667" lon="6.19861">
        <ele>823.2</ele>
        <time>2024-03-13T16:28:32.000Z</time>
      </trkpt>
      <trkpt lat="43.66705" lon="6.19863">
        <ele>823.5</ele>
        <time>2024-03-13T16:28:41.000Z</time>
      </trkpt>
      <trkpt lat="43.66709" lon="6.19866">
        <ele>823.5</ele>
        <time>2024-03-13T16:28:47.000Z</time>
      </trkpt>
      <trkpt lat="43.66714" lon="6.19869">
        <ele>823.9</ele>
        <time>2024-03-13T16:28:53.000Z</time>
      </trkpt>
      <trkpt lat="43.66718" lon="6.19871">
        <ele>824.5</ele>
        <time>2024-03-13T16:28:59.000Z</time>
      </trkpt>
      <trkpt lat="43.66723" lon="6.19871">
        <ele>824.9</ele>
        <time>2024-03-13T16:29:08.000Z</time>
      </trkpt>
      <trkpt lat="43.66727" lon="6.19871">
        <ele>825.1</ele>
        <time>2024-03-13T16:29:15.000Z</time>
      </trkpt>
      <trkpt lat="43.66732" lon="6.19872">
        <ele>824.9</ele>
        <time>2024-03-13T16:29:21.000Z</time>
      </trkpt>
      <trkpt lat="43.66736" lon="6.19873">
        <ele>824.6</ele>
        <time>2024-03-13T16:29:26.000Z</time>
      </trkpt>
      <trkpt lat="43.66741" lon="6.19876">
        <ele>823.9</ele>
        <time>2024-03-13T16:29:32.000Z</time>
      </trkpt>
      <trkpt lat="43.66745" lon="6.1988">
        <ele>823.3</ele>
        <time>2024-03-13T16:29:37.000Z</time>
      </trkpt>
      <trkpt lat="43.66749" lon="6.19883">
        <ele>822.9</ele>
        <time>2024-03-13T16:29:42.000Z</time>
      </trkpt>
      <trkpt lat="43.66753" lon="6.19885">
        <ele>822.2</ele>
        <time>2024-03-13T16:29:47.000Z</time>
      </trkpt>
      <trkpt lat="43.66758" lon="6.19886">
        <ele>821.9</ele>
        <time>2024-03-13T16:29:52.000Z</time>
      </trkpt>
      <trkpt lat="43.66764" lon="6.19888">
        <ele>821.5</ele>
        <time>2024-03-13T16:29:57.000Z</time>
      </trkpt>
      <trkpt lat="43.66769" lon="6.19889">
        <ele>820.3</ele>
        <time>2024-03-13T16:30:12.000Z</time>
      </trkpt>
      <trkpt lat="43.66773" lon="6.1989">
        <ele>819.8</ele>
        <time>2024-03-13T16:30:17.000Z</time>
      </trkpt>
      <trkpt lat="43.66778" lon="6.19891">
        <ele>819.6</ele>
        <time>2024-03-13T16:30:22.000Z</time>
      </trkpt>
      <trkpt lat="43.66784" lon="6.19892">
        <ele>819.3</ele>
        <time>2024-03-13T16:30:27.000Z</time>
      </trkpt>
      <trkpt lat="43.66788" lon="6.19894">
        <ele>819</ele>
        <time>2024-03-13T16:30:32.000Z</time>
      </trkpt>
      <trkpt lat="43.66794" lon="6.19896">
        <ele>818.7</ele>
        <time>2024-03-13T16:30:37.000Z</time>
      </trkpt>
      <trkpt lat="43.66798" lon="6.19898">
        <ele>818</ele>
        <time>2024-03-13T16:30:42.000Z</time>
      </trkpt>
      <trkpt lat="43.66803" lon="6.19899">
        <ele>818</ele>
        <time>2024-03-13T16:30:47.000Z</time>
      </trkpt>
      <trkpt lat="43.66807" lon="6.199">
        <ele>817.6</ele>
        <time>2024-03-13T16:30:54.000Z</time>
      </trkpt>
      <trkpt lat="43.66812" lon="6.19902">
        <ele>816.9</ele>
        <time>2024-03-13T16:30:59.000Z</time>
      </trkpt>
      <trkpt lat="43.66818" lon="6.19904">
        <ele>816.3</ele>
        <time>2024-03-13T16:31:04.000Z</time>
      </trkpt>
      <trkpt lat="43.66822" lon="6.19906">
        <ele>815.9</ele>
        <time>2024-03-13T16:31:09.000Z</time>
      </trkpt>
      <trkpt lat="43.66827" lon="6.19908">
        <ele>815.2</ele>
        <time>2024-03-13T16:31:14.000Z</time>
      </trkpt>
      <trkpt lat="43.66833" lon="6.19908">
        <ele>814.7</ele>
        <time>2024-03-13T16:31:19.000Z</time>
      </trkpt>
      <trkpt lat="43.66838" lon="6.19909">
        <ele>814.5</ele>
        <time>2024-03-13T16:31:23.899Z</time>
      </trkpt>
      <trkpt lat="43.66842" lon="6.19908">
        <ele>814.2</ele>
        <time>2024-03-13T16:31:30.000Z</time>
      </trkpt>
      <trkpt lat="43.66847" lon="6.19906">
        <ele>814.1</ele>
        <time>2024-03-13T16:31:38.000Z</time>
      </trkpt>
      <trkpt lat="43.6685" lon="6.19901">
        <ele>813.7</ele>
        <time>2024-03-13T16:31:46.000Z</time>
      </trkpt>
      <trkpt lat="43.66852" lon="6.19895">
        <ele>813.2</ele>
        <time>2024-03-13T16:31:52.000Z</time>
      </trkpt>
      <trkpt lat="43.66853" lon="6.19889">
        <ele>812.3</ele>
        <time>2024-03-13T16:31:59.000Z</time>
      </trkpt>
      <trkpt lat="43.66853" lon="6.19882">
        <ele>811.4</ele>
        <time>2024-03-13T16:32:06.000Z</time>
      </trkpt>
      <trkpt lat="43.66853" lon="6.19876">
        <ele>810.4</ele>
        <time>2024-03-13T16:32:13.000Z</time>
      </trkpt>
      <trkpt lat="43.66852" lon="6.19869">
        <ele>809.5</ele>
        <time>2024-03-13T16:32:20.000Z</time>
      </trkpt>
      <trkpt lat="43.6685" lon="6.19862">
        <ele>808.4</ele>
        <time>2024-03-13T16:32:27.000Z</time>
      </trkpt>
      <trkpt lat="43.66848" lon="6.19856">
        <ele>807.6</ele>
        <time>2024-03-13T16:32:33.000Z</time>
      </trkpt>
      <trkpt lat="43.66847" lon="6.1985">
        <ele>806.9</ele>
        <time>2024-03-13T16:32:39.000Z</time>
      </trkpt>
      <trkpt lat="43.66845" lon="6.19842">
        <ele>805.8</ele>
        <time>2024-03-13T16:32:45.000Z</time>
      </trkpt>
      <trkpt lat="43.66844" lon="6.19835">
        <ele>805.1</ele>
        <time>2024-03-13T16:32:50.000Z</time>
      </trkpt>
      <trkpt lat="43.66842" lon="6.19829">
        <ele>804.4</ele>
        <time>2024-03-13T16:32:54.000Z</time>
      </trkpt>
      <trkpt lat="43.66839" lon="6.19823">
        <ele>803.7</ele>
        <time>2024-03-13T16:32:59.000Z</time>
      </trkpt>
      <trkpt lat="43.66837" lon="6.19817">
        <ele>802.6</ele>
        <time>2024-03-13T16:33:08.000Z</time>
      </trkpt>
      <trkpt lat="43.66836" lon="6.19811">
        <ele>802.2</ele>
        <time>2024-03-13T16:33:16.000Z</time>
      </trkpt>
      <trkpt lat="43.66835" lon="6.19804">
        <ele>801.8</ele>
        <time>2024-03-13T16:33:21.000Z</time>
      </trkpt>
      <trkpt lat="43.66834" lon="6.19797">
        <ele>801.4</ele>
        <time>2024-03-13T16:33:26.000Z</time>
      </trkpt>
      <trkpt lat="43.66832" lon="6.1979">
        <ele>801</ele>
        <time>2024-03-13T16:33:31.000Z</time>
      </trkpt>
      <trkpt lat="43.66831" lon="6.19784">
        <ele>800.7</ele>
        <time>2024-03-13T16:33:35.000Z</time>
      </trkpt>
      <trkpt lat="43.66829" lon="6.19777">
        <ele>800</ele>
        <time>2024-03-13T16:33:39.000Z</time>
      </trkpt>
      <trkpt lat="43.66828" lon="6.19771">
        <ele>799.5</ele>
        <time>2024-03-13T16:33:43.000Z</time>
      </trkpt>
      <trkpt lat="43.66826" lon="6.19764">
        <ele>799.2</ele>
        <time>2024-03-13T16:33:48.000Z</time>
      </trkpt>
      <trkpt lat="43.66825" lon="6.19758">
        <ele>799</ele>
        <time>2024-03-13T16:33:52.000Z</time>
      </trkpt>
      <trkpt lat="43.66824" lon="6.19752">
        <ele>798.8</ele>
        <time>2024-03-13T16:33:56.000Z</time>
      </trkpt>
      <trkpt lat="43.66823" lon="6.19745">
        <ele>798.3</ele>
        <time>2024-03-13T16:34:00.000Z</time>
      </trkpt>
      <trkpt lat="43.66822" lon="6.19739">
        <ele>797.3</ele>
        <time>2024-03-13T16:34:09.000Z</time>
      </trkpt>
      <trkpt lat="43.6682" lon="6.19733">
        <ele>796.9</ele>
        <time>2024-03-13T16:34:14.000Z</time>
      </trkpt>
      <trkpt lat="43.66818" lon="6.19726">
        <ele>796.5</ele>
        <time>2024-03-13T16:34:20.000Z</time>
      </trkpt>
      <trkpt lat="43.66817" lon="6.19718">
        <ele>796.2</ele>
        <time>2024-03-13T16:34:25.000Z</time>
      </trkpt>
      <trkpt lat="43.66815" lon="6.19712">
        <ele>795.6</ele>
        <time>2024-03-13T16:34:30.000Z</time>
      </trkpt>
      <trkpt lat="43.66813" lon="6.19704">
        <ele>795.1</ele>
        <time>2024-03-13T16:34:35.000Z</time>
      </trkpt>
      <trkpt lat="43.66811" lon="6.19698">
        <ele>794.6</ele>
        <time>2024-03-13T16:34:40.000Z</time>
      </trkpt>
      <trkpt lat="43.66809" lon="6.19691">
        <ele>794.2</ele>
        <time>2024-03-13T16:34:45.000Z</time>
      </trkpt>
      <trkpt lat="43.66807" lon="6.19685">
        <ele>794</ele>
        <time>2024-03-13T16:34:50.000Z</time>
      </trkpt>
      <trkpt lat="43.66805" lon="6.19679">
        <ele>793.4</ele>
        <time>2024-03-13T16:34:55.000Z</time>
      </trkpt>
      <trkpt lat="43.66804" lon="6.19672">
        <ele>792.5</ele>
        <time>2024-03-13T16:35:00.000Z</time>
      </trkpt>
      <trkpt lat="43.66802" lon="6.19665">
        <ele>791.5</ele>
        <time>2024-03-13T16:35:05.000Z</time>
      </trkpt>
      <trkpt lat="43.66801" lon="6.19659">
        <ele>791.1</ele>
        <time>2024-03-13T16:35:09.000Z</time>
      </trkpt>
      <trkpt lat="43.66799" lon="6.19652">
        <ele>790.4</ele>
        <time>2024-03-13T16:35:14.000Z</time>
      </trkpt>
      <trkpt lat="43.66798" lon="6.19645">
        <ele>789.7</ele>
        <time>2024-03-13T16:35:19.000Z</time>
      </trkpt>
      <trkpt lat="43.66797" lon="6.19639">
        <ele>788.7</ele>
        <time>2024-03-13T16:35:24.000Z</time>
      </trkpt>
      <trkpt lat="43.66796" lon="6.19632">
        <ele>788.3</ele>
        <time>2024-03-13T16:35:29.000Z</time>
      </trkpt>
      <trkpt lat="43.66795" lon="6.19625">
        <ele>787.7</ele>
        <time>2024-03-13T16:35:34.000Z</time>
      </trkpt>
      <trkpt lat="43.66794" lon="6.19618">
        <ele>787</ele>
        <time>2024-03-13T16:35:39.000Z</time>
      </trkpt>
      <trkpt lat="43.66793" lon="6.19611">
        <ele>786.5</ele>
        <time>2024-03-13T16:35:44.000Z</time>
      </trkpt>
      <trkpt lat="43.66792" lon="6.19603">
        <ele>785.9</ele>
        <time>2024-03-13T16:35:49.000Z</time>
      </trkpt>
      <trkpt lat="43.66791" lon="6.19596">
        <ele>785.3</ele>
        <time>2024-03-13T16:35:54.000Z</time>
      </trkpt>
      <trkpt lat="43.66791" lon="6.1959">
        <ele>784.5</ele>
        <time>2024-03-13T16:35:59.000Z</time>
      </trkpt>
      <trkpt lat="43.6679" lon="6.19583">
        <ele>783.8</ele>
        <time>2024-03-13T16:36:04.000Z</time>
      </trkpt>
      <trkpt lat="43.66789" lon="6.19576">
        <ele>783</ele>
        <time>2024-03-13T16:36:09.000Z</time>
      </trkpt>
      <trkpt lat="43.66788" lon="6.1957">
        <ele>782</ele>
        <time>2024-03-13T16:36:15.000Z</time>
      </trkpt>
      <trkpt lat="43.66785" lon="6.19564">
        <ele>781.4</ele>
        <time>2024-03-13T16:36:20.000Z</time>
      </trkpt>
      <trkpt lat="43.66782" lon="6.19559">
        <ele>780.6</ele>
        <time>2024-03-13T16:36:25.000Z</time>
      </trkpt>
      <trkpt lat="43.6678" lon="6.19553">
        <ele>779.5</ele>
        <time>2024-03-13T16:36:30.000Z</time>
      </trkpt>
      <trkpt lat="43.66777" lon="6.19547">
        <ele>779.1</ele>
        <time>2024-03-13T16:36:35.000Z</time>
      </trkpt>
      <trkpt lat="43.66774" lon="6.1954">
        <ele>778.4</ele>
        <time>2024-03-13T16:36:40.000Z</time>
      </trkpt>
      <trkpt lat="43.66772" lon="6.19535">
        <ele>777.8</ele>
        <time>2024-03-13T16:36:44.000Z</time>
      </trkpt>
      <trkpt lat="43.6677" lon="6.19529">
        <ele>777.5</ele>
        <time>2024-03-13T16:36:48.000Z</time>
      </trkpt>
      <trkpt lat="43.66767" lon="6.19524">
        <ele>777</ele>
        <time>2024-03-13T16:36:52.000Z</time>
      </trkpt>
      <trkpt lat="43.66764" lon="6.19518">
        <ele>776.3</ele>
        <time>2024-03-13T16:36:57.000Z</time>
      </trkpt>
      <trkpt lat="43.66761" lon="6.19514">
        <ele>775.6</ele>
        <time>2024-03-13T16:37:01.000Z</time>
      </trkpt>
      <trkpt lat="43.66758" lon="6.19507">
        <ele>775.2</ele>
        <time>2024-03-13T16:37:06.000Z</time>
      </trkpt>
      <trkpt lat="43.66755" lon="6.19501">
        <ele>775</ele>
        <time>2024-03-13T16:37:11.000Z</time>
      </trkpt>
      <trkpt lat="43.66754" lon="6.19495">
        <ele>774.7</ele>
        <time>2024-03-13T16:37:15.000Z</time>
      </trkpt>
      <trkpt lat="43.66753" lon="6.19488">
        <ele>774</ele>
        <time>2024-03-13T16:37:19.000Z</time>
      </trkpt>
      <trkpt lat="43.66752" lon="6.19481">
        <ele>773.5</ele>
        <time>2024-03-13T16:37:23.000Z</time>
      </trkpt>
      <trkpt lat="43.66753" lon="6.19474">
        <ele>773</ele>
        <time>2024-03-13T16:37:27.000Z</time>
      </trkpt>
      <trkpt lat="43.66752" lon="6.19468">
        <ele>772.6</ele>
        <time>2024-03-13T16:37:31.000Z</time>
      </trkpt>
      <trkpt lat="43.66752" lon="6.19461">
        <ele>772.2</ele>
        <time>2024-03-13T16:37:35.000Z</time>
      </trkpt>
      <trkpt lat="43.66752" lon="6.19455">
        <ele>771.9</ele>
        <time>2024-03-13T16:37:39.000Z</time>
      </trkpt>
      <trkpt lat="43.66751" lon="6.19447">
        <ele>771.7</ele>
        <time>2024-03-13T16:37:44.000Z</time>
      </trkpt>
      <trkpt lat="43.66751" lon="6.19441">
        <ele>771.7</ele>
        <time>2024-03-13T16:37:48.000Z</time>
      </trkpt>
      <trkpt lat="43.66751" lon="6.19434">
        <ele>771.7</ele>
        <time>2024-03-13T16:37:53.000Z</time>
      </trkpt>
      <trkpt lat="43.66752" lon="6.19428">
        <ele>771.5</ele>
        <time>2024-03-13T16:38:00.000Z</time>
      </trkpt>
      <trkpt lat="43.66748" lon="6.19432">
        <ele>770.5</ele>
        <time>2024-03-13T16:40:37.000Z</time>
      </trkpt>
      <trkpt lat="43.66752" lon="6.19426">
        <ele>770</ele>
        <time>2024-03-13T16:41:16.000Z</time>
      </trkpt>
      <trkpt lat="43.66756" lon="6.1942">
        <ele>769.9</ele>
        <time>2024-03-13T16:41:20.000Z</time>
      </trkpt>
      <trkpt lat="43.6676" lon="6.19415">
        <ele>769.9</ele>
        <time>2024-03-13T16:41:24.000Z</time>
      </trkpt>
      <trkpt lat="43.66763" lon="6.1941">
        <ele>770.2</ele>
        <time>2024-03-13T16:41:28.000Z</time>
      </trkpt>
      <trkpt lat="43.66767" lon="6.19406">
        <ele>770.2</ele>
        <time>2024-03-13T16:41:33.000Z</time>
      </trkpt>
      <trkpt lat="43.6677" lon="6.194">
        <ele>770.1</ele>
        <time>2024-03-13T16:41:39.000Z</time>
      </trkpt>
      <trkpt lat="43.66773" lon="6.19394">
        <ele>770.5</ele>
        <time>2024-03-13T16:41:45.000Z</time>
      </trkpt>
      <trkpt lat="43.66776" lon="6.19388">
        <ele>770.8</ele>
        <time>2024-03-13T16:41:50.000Z</time>
      </trkpt>
      <trkpt lat="43.66779" lon="6.19382">
        <ele>771.4</ele>
        <time>2024-03-13T16:41:55.000Z</time>
      </trkpt>
      <trkpt lat="43.66782" lon="6.19378">
        <ele>771.7</ele>
        <time>2024-03-13T16:42:00.000Z</time>
      </trkpt>
      <trkpt lat="43.66786" lon="6.19372">
        <ele>772.1</ele>
        <time>2024-03-13T16:42:06.000Z</time>
      </trkpt>
      <trkpt lat="43.66789" lon="6.19366">
        <ele>772.1</ele>
        <time>2024-03-13T16:42:11.000Z</time>
      </trkpt>
      <trkpt lat="43.66791" lon="6.1936">
        <ele>772.7</ele>
        <time>2024-03-13T16:42:17.000Z</time>
      </trkpt>
      <trkpt lat="43.66793" lon="6.19353">
        <ele>773.4</ele>
        <time>2024-03-13T16:42:22.000Z</time>
      </trkpt>
      <trkpt lat="43.66795" lon="6.19347">
        <ele>773.7</ele>
        <time>2024-03-13T16:42:27.000Z</time>
      </trkpt>
      <trkpt lat="43.66797" lon="6.19341">
        <ele>774.1</ele>
        <time>2024-03-13T16:42:32.000Z</time>
      </trkpt>
      <trkpt lat="43.668" lon="6.19335">
        <ele>774.5</ele>
        <time>2024-03-13T16:42:37.000Z</time>
      </trkpt>
      <trkpt lat="43.66803" lon="6.19328">
        <ele>774.9</ele>
        <time>2024-03-13T16:42:42.000Z</time>
      </trkpt>
      <trkpt lat="43.66805" lon="6.19323">
        <ele>775</ele>
        <time>2024-03-13T16:42:46.000Z</time>
      </trkpt>
      <trkpt lat="43.66808" lon="6.19317">
        <ele>775</ele>
        <time>2024-03-13T16:42:50.000Z</time>
      </trkpt>
      <trkpt lat="43.66812" lon="6.19312">
        <ele>775.1</ele>
        <time>2024-03-13T16:42:55.000Z</time>
      </trkpt>
      <trkpt lat="43.66815" lon="6.19306">
        <ele>775.2</ele>
        <time>2024-03-13T16:43:00.000Z</time>
      </trkpt>
      <trkpt lat="43.66818" lon="6.19301">
        <ele>775.2</ele>
        <time>2024-03-13T16:43:04.000Z</time>
      </trkpt>
      <trkpt lat="43.66821" lon="6.19295">
        <ele>775.3</ele>
        <time>2024-03-13T16:43:08.000Z</time>
      </trkpt>
      <trkpt lat="43.66825" lon="6.1929">
        <ele>775.2</ele>
        <time>2024-03-13T16:43:12.000Z</time>
      </trkpt>
      <trkpt lat="43.66827" lon="6.19285">
        <ele>775.4</ele>
        <time>2024-03-13T16:43:16.000Z</time>
      </trkpt>
      <trkpt lat="43.66831" lon="6.1928">
        <ele>775.4</ele>
        <time>2024-03-13T16:43:23.000Z</time>
      </trkpt>
      <trkpt lat="43.66835" lon="6.19275">
        <ele>775</ele>
        <time>2024-03-13T16:43:30.000Z</time>
      </trkpt>
      <trkpt lat="43.66839" lon="6.19269">
        <ele>774.8</ele>
        <time>2024-03-13T16:43:35.000Z</time>
      </trkpt>
      <trkpt lat="43.66842" lon="6.19264">
        <ele>774.5</ele>
        <time>2024-03-13T16:43:39.000Z</time>
      </trkpt>
      <trkpt lat="43.66845" lon="6.19258">
        <ele>774.3</ele>
        <time>2024-03-13T16:43:44.000Z</time>
      </trkpt>
      <trkpt lat="43.66848" lon="6.19253">
        <ele>774</ele>
        <time>2024-03-13T16:43:48.000Z</time>
      </trkpt>
      <trkpt lat="43.66851" lon="6.19247">
        <ele>773.8</ele>
        <time>2024-03-13T16:43:52.000Z</time>
      </trkpt>
      <trkpt lat="43.66854" lon="6.19242">
        <ele>773.6</ele>
        <time>2024-03-13T16:43:57.000Z</time>
      </trkpt>
      <trkpt lat="43.66857" lon="6.19236">
        <ele>773.3</ele>
        <time>2024-03-13T16:44:02.000Z</time>
      </trkpt>
      <trkpt lat="43.6686" lon="6.1923">
        <ele>773.2</ele>
        <time>2024-03-13T16:44:07.000Z</time>
      </trkpt>
      <trkpt lat="43.66863" lon="6.19225">
        <ele>772.9</ele>
        <time>2024-03-13T16:44:12.000Z</time>
      </trkpt>
      <trkpt lat="43.66866" lon="6.19218">
        <ele>772.7</ele>
        <time>2024-03-13T16:44:17.000Z</time>
      </trkpt>
      <trkpt lat="43.66869" lon="6.19213">
        <ele>772.5</ele>
        <time>2024-03-13T16:44:22.000Z</time>
      </trkpt>
      <trkpt lat="43.66872" lon="6.19206">
        <ele>772.3</ele>
        <time>2024-03-13T16:44:27.000Z</time>
      </trkpt>
      <trkpt lat="43.66874" lon="6.19201">
        <ele>772.2</ele>
        <time>2024-03-13T16:44:31.000Z</time>
      </trkpt>
      <trkpt lat="43.66875" lon="6.19195">
        <ele>772.1</ele>
        <time>2024-03-13T16:44:35.000Z</time>
      </trkpt>
      <trkpt lat="43.66878" lon="6.19187">
        <ele>772</ele>
        <time>2024-03-13T16:44:40.000Z</time>
      </trkpt>
      <trkpt lat="43.6688" lon="6.19181">
        <ele>771.9</ele>
        <time>2024-03-13T16:44:44.000Z</time>
      </trkpt>
      <trkpt lat="43.66882" lon="6.19174">
        <ele>771.8</ele>
        <time>2024-03-13T16:44:49.000Z</time>
      </trkpt>
      <trkpt lat="43.66884" lon="6.19168">
        <ele>771.6</ele>
        <time>2024-03-13T16:44:53.000Z</time>
      </trkpt>
      <trkpt lat="43.66886" lon="6.19161">
        <ele>771.4</ele>
        <time>2024-03-13T16:44:58.000Z</time>
      </trkpt>
      <trkpt lat="43.66889" lon="6.19155">
        <ele>771.2</ele>
        <time>2024-03-13T16:45:02.000Z</time>
      </trkpt>
      <trkpt lat="43.66891" lon="6.1915">
        <ele>771.1</ele>
        <time>2024-03-13T16:45:06.000Z</time>
      </trkpt>
      <trkpt lat="43.66893" lon="6.19144">
        <ele>770.9</ele>
        <time>2024-03-13T16:45:10.000Z</time>
      </trkpt>
      <trkpt lat="43.66896" lon="6.19138">
        <ele>770.7</ele>
        <time>2024-03-13T16:45:14.000Z</time>
      </trkpt>
      <trkpt lat="43.669" lon="6.19132">
        <ele>770.3</ele>
        <time>2024-03-13T16:45:19.000Z</time>
      </trkpt>
      <trkpt lat="43.66903" lon="6.19127">
        <ele>770.1</ele>
        <time>2024-03-13T16:45:23.000Z</time>
      </trkpt>
      <trkpt lat="43.66906" lon="6.19122">
        <ele>770</ele>
        <time>2024-03-13T16:45:27.000Z</time>
      </trkpt>
      <trkpt lat="43.66909" lon="6.19117">
        <ele>769.6</ele>
        <time>2024-03-13T16:45:31.000Z</time>
      </trkpt>
      <trkpt lat="43.66912" lon="6.19111">
        <ele>769.3</ele>
        <time>2024-03-13T16:45:35.000Z</time>
      </trkpt>
      <trkpt lat="43.66915" lon="6.19106">
        <ele>769.1</ele>
        <time>2024-03-13T16:45:40.000Z</time>
      </trkpt>
      <trkpt lat="43.66918" lon="6.19099">
        <ele>768.5</ele>
        <time>2024-03-13T16:45:45.000Z</time>
      </trkpt>
      <trkpt lat="43.6692" lon="6.19093">
        <ele>768.2</ele>
        <time>2024-03-13T16:45:49.000Z</time>
      </trkpt>
      <trkpt lat="43.66923" lon="6.19087">
        <ele>768</ele>
        <time>2024-03-13T16:45:53.000Z</time>
      </trkpt>
      <trkpt lat="43.66925" lon="6.19081">
        <ele>767.7</ele>
        <time>2024-03-13T16:45:57.000Z</time>
      </trkpt>
      <trkpt lat="43.66928" lon="6.19074">
        <ele>767.5</ele>
        <time>2024-03-13T16:46:01.000Z</time>
      </trkpt>
      <trkpt lat="43.66931" lon="6.19069">
        <ele>767.4</ele>
        <time>2024-03-13T16:46:05.000Z</time>
      </trkpt>
      <trkpt lat="43.66933" lon="6.19062">
        <ele>767.3</ele>
        <time>2024-03-13T16:46:09.000Z</time>
      </trkpt>
      <trkpt lat="43.66936" lon="6.19056">
        <ele>767.1</ele>
        <time>2024-03-13T16:46:13.000Z</time>
      </trkpt>
      <trkpt lat="43.66938" lon="6.19049">
        <ele>766.9</ele>
        <time>2024-03-13T16:46:17.000Z</time>
      </trkpt>
      <trkpt lat="43.66941" lon="6.19044">
        <ele>766.5</ele>
        <time>2024-03-13T16:46:21.000Z</time>
      </trkpt>
      <trkpt lat="43.66943" lon="6.19038">
        <ele>766</ele>
        <time>2024-03-13T16:46:25.000Z</time>
      </trkpt>
      <trkpt lat="43.66945" lon="6.19032">
        <ele>765.7</ele>
        <time>2024-03-13T16:46:29.000Z</time>
      </trkpt>
      <trkpt lat="43.66947" lon="6.19026">
        <ele>765.3</ele>
        <time>2024-03-13T16:46:33.000Z</time>
      </trkpt>
      <trkpt lat="43.66949" lon="6.1902">
        <ele>764.9</ele>
        <time>2024-03-13T16:46:37.000Z</time>
      </trkpt>
      <trkpt lat="43.66952" lon="6.19014">
        <ele>764.7</ele>
        <time>2024-03-13T16:46:41.000Z</time>
      </trkpt>
      <trkpt lat="43.66955" lon="6.19008">
        <ele>764.3</ele>
        <time>2024-03-13T16:46:45.000Z</time>
      </trkpt>
      <trkpt lat="43.66958" lon="6.19002">
        <ele>764</ele>
        <time>2024-03-13T16:46:49.000Z</time>
      </trkpt>
      <trkpt lat="43.66962" lon="6.18997">
        <ele>763.4</ele>
        <time>2024-03-13T16:46:53.000Z</time>
      </trkpt>
      <trkpt lat="43.66965" lon="6.18991">
        <ele>763.1</ele>
        <time>2024-03-13T16:46:57.000Z</time>
      </trkpt>
      <trkpt lat="43.66968" lon="6.18985">
        <ele>762.8</ele>
        <time>2024-03-13T16:47:01.000Z</time>
      </trkpt>
      <trkpt lat="43.6697" lon="6.1898">
        <ele>762.4</ele>
        <time>2024-03-13T16:47:05.000Z</time>
      </trkpt>
      <trkpt lat="43.66973" lon="6.18975">
        <ele>762.2</ele>
        <time>2024-03-13T16:47:09.000Z</time>
      </trkpt>
      <trkpt lat="43.66976" lon="6.18968">
        <ele>762.1</ele>
        <time>2024-03-13T16:47:13.000Z</time>
      </trkpt>
      <trkpt lat="43.66979" lon="6.18962">
        <ele>761.8</ele>
        <time>2024-03-13T16:47:18.000Z</time>
      </trkpt>
      <trkpt lat="43.66983" lon="6.18958">
        <ele>761.5</ele>
        <time>2024-03-13T16:47:23.000Z</time>
      </trkpt>
      <trkpt lat="43.66987" lon="6.18952">
        <ele>761.2</ele>
        <time>2024-03-13T16:47:27.000Z</time>
      </trkpt>
      <trkpt lat="43.66991" lon="6.18947">
        <ele>760.6</ele>
        <time>2024-03-13T16:47:31.000Z</time>
      </trkpt>
      <trkpt lat="43.66995" lon="6.18944">
        <ele>760.3</ele>
        <time>2024-03-13T16:47:34.000Z</time>
      </trkpt>
      <trkpt lat="43.66999" lon="6.18938">
        <ele>760</ele>
        <time>2024-03-13T16:47:38.000Z</time>
      </trkpt>
      <trkpt lat="43.67004" lon="6.18934">
        <ele>759.6</ele>
        <time>2024-03-13T16:47:42.000Z</time>
      </trkpt>
      <trkpt lat="43.67009" lon="6.1893">
        <ele>759.3</ele>
        <time>2024-03-13T16:47:46.000Z</time>
      </trkpt>
      <trkpt lat="43.67013" lon="6.18927">
        <ele>759.5</ele>
        <time>2024-03-13T16:47:49.000Z</time>
      </trkpt>
      <trkpt lat="43.67019" lon="6.18923">
        <ele>759</ele>
        <time>2024-03-13T16:47:54.000Z</time>
      </trkpt>
      <trkpt lat="43.67024" lon="6.1892">
        <ele>759.1</ele>
        <time>2024-03-13T16:47:59.000Z</time>
      </trkpt>
      <trkpt lat="43.67029" lon="6.18917">
        <ele>758.9</ele>
        <time>2024-03-13T16:48:03.000Z</time>
      </trkpt>
      <trkpt lat="43.67033" lon="6.18913">
        <ele>758.7</ele>
        <time>2024-03-13T16:48:08.000Z</time>
      </trkpt>
      <trkpt lat="43.67038" lon="6.18909">
        <ele>758.1</ele>
        <time>2024-03-13T16:48:13.000Z</time>
      </trkpt>
      <trkpt lat="43.67042" lon="6.18904">
        <ele>757.7</ele>
        <time>2024-03-13T16:48:18.000Z</time>
      </trkpt>
      <trkpt lat="43.67046" lon="6.18899">
        <ele>757.3</ele>
        <time>2024-03-13T16:48:23.000Z</time>
      </trkpt>
      <trkpt lat="43.67049" lon="6.18895">
        <ele>757</ele>
        <time>2024-03-13T16:48:27.000Z</time>
      </trkpt>
      <trkpt lat="43.67053" lon="6.1889">
        <ele>756.7</ele>
        <time>2024-03-13T16:48:32.000Z</time>
      </trkpt>
      <trkpt lat="43.67057" lon="6.18885">
        <ele>756.4</ele>
        <time>2024-03-13T16:48:37.000Z</time>
      </trkpt>
      <trkpt lat="43.67061" lon="6.1888">
        <ele>755.9</ele>
        <time>2024-03-13T16:48:42.000Z</time>
      </trkpt>
      <trkpt lat="43.67064" lon="6.18876">
        <ele>755.4</ele>
        <time>2024-03-13T16:48:47.000Z</time>
      </trkpt>
      <trkpt lat="43.67069" lon="6.18874">
        <ele>754.8</ele>
        <time>2024-03-13T16:48:52.000Z</time>
      </trkpt>
      <trkpt lat="43.67073" lon="6.18871">
        <ele>754.3</ele>
        <time>2024-03-13T16:48:58.000Z</time>
      </trkpt>
      <trkpt lat="43.67078" lon="6.18866">
        <ele>753.6</ele>
        <time>2024-03-13T16:49:04.000Z</time>
      </trkpt>
      <trkpt lat="43.67082" lon="6.18863">
        <ele>753.1</ele>
        <time>2024-03-13T16:49:09.000Z</time>
      </trkpt>
      <trkpt lat="43.67086" lon="6.18861">
        <ele>752.6</ele>
        <time>2024-03-13T16:49:14.000Z</time>
      </trkpt>
      <trkpt lat="43.67091" lon="6.18858">
        <ele>752.2</ele>
        <time>2024-03-13T16:49:19.000Z</time>
      </trkpt>
      <trkpt lat="43.67096" lon="6.18855">
        <ele>751.5</ele>
        <time>2024-03-13T16:49:24.000Z</time>
      </trkpt>
      <trkpt lat="43.67101" lon="6.18853">
        <ele>751</ele>
        <time>2024-03-13T16:49:29.000Z</time>
      </trkpt>
      <trkpt lat="43.67105" lon="6.1885">
        <ele>750.5</ele>
        <time>2024-03-13T16:49:34.000Z</time>
      </trkpt>
      <trkpt lat="43.67109" lon="6.18848">
        <ele>749.8</ele>
        <time>2024-03-13T16:49:39.000Z</time>
      </trkpt>
      <trkpt lat="43.67113" lon="6.18844">
        <ele>749.2</ele>
        <time>2024-03-13T16:49:44.000Z</time>
      </trkpt>
      <trkpt lat="43.67117" lon="6.1884">
        <ele>748.6</ele>
        <time>2024-03-13T16:49:49.000Z</time>
      </trkpt>
      <trkpt lat="43.67121" lon="6.18837">
        <ele>748</ele>
        <time>2024-03-13T16:49:56.000Z</time>
      </trkpt>
      <trkpt lat="43.67123" lon="6.18831">
        <ele>747.2</ele>
        <time>2024-03-13T16:50:08.000Z</time>
      </trkpt>
      <trkpt lat="43.67127" lon="6.18826">
        <ele>746.6</ele>
        <time>2024-03-13T16:50:18.000Z</time>
      </trkpt>
      <trkpt lat="43.67131" lon="6.18822">
        <ele>746.3</ele>
        <time>2024-03-13T16:50:23.000Z</time>
      </trkpt>
      <trkpt lat="43.67135" lon="6.18819">
        <ele>745.6</ele>
        <time>2024-03-13T16:50:29.000Z</time>
      </trkpt>
      <trkpt lat="43.67139" lon="6.18814">
        <ele>745.2</ele>
        <time>2024-03-13T16:50:34.000Z</time>
      </trkpt>
      <trkpt lat="43.67142" lon="6.18809">
        <ele>744.7</ele>
        <time>2024-03-13T16:50:39.000Z</time>
      </trkpt>
      <trkpt lat="43.67144" lon="6.18803">
        <ele>744</ele>
        <time>2024-03-13T16:50:44.000Z</time>
      </trkpt>
      <trkpt lat="43.67148" lon="6.18799">
        <ele>743.5</ele>
        <time>2024-03-13T16:50:49.000Z</time>
      </trkpt>
      <trkpt lat="43.67151" lon="6.18794">
        <ele>742.8</ele>
        <time>2024-03-13T16:50:56.000Z</time>
      </trkpt>
      <trkpt lat="43.67153" lon="6.18788">
        <ele>741.9</ele>
        <time>2024-03-13T16:51:05.000Z</time>
      </trkpt>
      <trkpt lat="43.67155" lon="6.18782">
        <ele>741.3</ele>
        <time>2024-03-13T16:51:11.000Z</time>
      </trkpt>
      <trkpt lat="43.67158" lon="6.18777">
        <ele>740.9</ele>
        <time>2024-03-13T16:51:17.000Z</time>
      </trkpt>
      <trkpt lat="43.6716" lon="6.18771">
        <ele>740.4</ele>
        <time>2024-03-13T16:51:23.000Z</time>
      </trkpt>
      <trkpt lat="43.67164" lon="6.18766">
        <ele>740</ele>
        <time>2024-03-13T16:51:28.000Z</time>
      </trkpt>
      <trkpt lat="43.67168" lon="6.18762">
        <ele>739.5</ele>
        <time>2024-03-13T16:51:34.000Z</time>
      </trkpt>
      <trkpt lat="43.67172" lon="6.18758">
        <ele>738.9</ele>
        <time>2024-03-13T16:51:39.000Z</time>
      </trkpt>
      <trkpt lat="43.67176" lon="6.18755">
        <ele>738.4</ele>
        <time>2024-03-13T16:51:43.000Z</time>
      </trkpt>
      <trkpt lat="43.6718" lon="6.18751">
        <ele>737.9</ele>
        <time>2024-03-13T16:51:48.000Z</time>
      </trkpt>
      <trkpt lat="43.67185" lon="6.18747">
        <ele>737.3</ele>
        <time>2024-03-13T16:51:53.000Z</time>
      </trkpt>
      <trkpt lat="43.67189" lon="6.18744">
        <ele>736.8</ele>
        <time>2024-03-13T16:51:58.000Z</time>
      </trkpt>
      <trkpt lat="43.67193" lon="6.1874">
        <ele>736.3</ele>
        <time>2024-03-13T16:52:03.000Z</time>
      </trkpt>
      <trkpt lat="43.67196" lon="6.18736">
        <ele>735.8</ele>
        <time>2024-03-13T16:52:08.000Z</time>
      </trkpt>
      <trkpt lat="43.672" lon="6.18732">
        <ele>735.3</ele>
        <time>2024-03-13T16:52:13.000Z</time>
      </trkpt>
      <trkpt lat="43.67204" lon="6.18727">
        <ele>734.3</ele>
        <time>2024-03-13T16:52:21.000Z</time>
      </trkpt>
      <trkpt lat="43.67208" lon="6.18723">
        <ele>733.7</ele>
        <time>2024-03-13T16:52:27.000Z</time>
      </trkpt>
      <trkpt lat="43.67212" lon="6.18718">
        <ele>733</ele>
        <time>2024-03-13T16:52:32.000Z</time>
      </trkpt>
      <trkpt lat="43.67216" lon="6.18715">
        <ele>732.4</ele>
        <time>2024-03-13T16:52:37.000Z</time>
      </trkpt>
      <trkpt lat="43.6722" lon="6.18711">
        <ele>731.6</ele>
        <time>2024-03-13T16:52:43.000Z</time>
      </trkpt>
      <trkpt lat="43.67224" lon="6.18708">
        <ele>731.1</ele>
        <time>2024-03-13T16:52:48.000Z</time>
      </trkpt>
      <trkpt lat="43.67228" lon="6.18705">
        <ele>730.8</ele>
        <time>2024-03-13T16:52:53.000Z</time>
      </trkpt>
      <trkpt lat="43.67232" lon="6.18699">
        <ele>730.1</ele>
        <time>2024-03-13T16:52:58.000Z</time>
      </trkpt>
      <trkpt lat="43.67235" lon="6.18695">
        <ele>729.4</ele>
        <time>2024-03-13T16:53:02.000Z</time>
      </trkpt>
      <trkpt lat="43.67239" lon="6.1869">
        <ele>728.8</ele>
        <time>2024-03-13T16:53:07.000Z</time>
      </trkpt>
      <trkpt lat="43.67241" lon="6.18685">
        <ele>728.3</ele>
        <time>2024-03-13T16:53:11.000Z</time>
      </trkpt>
      <trkpt lat="43.67243" lon="6.18678">
        <ele>727.7</ele>
        <time>2024-03-13T16:53:16.000Z</time>
      </trkpt>
      <trkpt lat="43.67246" lon="6.18673">
        <ele>727.3</ele>
        <time>2024-03-13T16:53:21.000Z</time>
      </trkpt>
      <trkpt lat="43.67247" lon="6.18666">
        <ele>726.8</ele>
        <time>2024-03-13T16:53:27.000Z</time>
      </trkpt>
      <trkpt lat="43.67247" lon="6.18659">
        <ele>726.3</ele>
        <time>2024-03-13T16:53:32.000Z</time>
      </trkpt>
      <trkpt lat="43.67247" lon="6.18653">
        <ele>725.7</ele>
        <time>2024-03-13T16:53:37.000Z</time>
      </trkpt>
      <trkpt lat="43.67247" lon="6.18645">
        <ele>725.2</ele>
        <time>2024-03-13T16:53:42.000Z</time>
      </trkpt>
      <trkpt lat="43.67248" lon="6.18638">
        <ele>724.8</ele>
        <time>2024-03-13T16:53:47.000Z</time>
      </trkpt>
      <trkpt lat="43.67248" lon="6.18632">
        <ele>724.4</ele>
        <time>2024-03-13T16:53:52.000Z</time>
      </trkpt>
      <trkpt lat="43.6725" lon="6.18625">
        <ele>724.1</ele>
        <time>2024-03-13T16:53:57.000Z</time>
      </trkpt>
      <trkpt lat="43.6725" lon="6.18618">
        <ele>723.7</ele>
        <time>2024-03-13T16:54:03.000Z</time>
      </trkpt>
      <trkpt lat="43.67252" lon="6.18612">
        <ele>722.8</ele>
        <time>2024-03-13T16:54:08.000Z</time>
      </trkpt>
      <trkpt lat="43.67253" lon="6.18605">
        <ele>722.3</ele>
        <time>2024-03-13T16:54:13.000Z</time>
      </trkpt>
      <trkpt lat="43.67256" lon="6.18598">
        <ele>721.8</ele>
        <time>2024-03-13T16:54:18.000Z</time>
      </trkpt>
      <trkpt lat="43.67258" lon="6.18591">
        <ele>721.3</ele>
        <time>2024-03-13T16:54:24.000Z</time>
      </trkpt>
      <trkpt lat="43.6726" lon="6.18584">
        <ele>721</ele>
        <time>2024-03-13T16:54:28.000Z</time>
      </trkpt>
      <trkpt lat="43.67263" lon="6.18579">
        <ele>720.8</ele>
        <time>2024-03-13T16:54:32.000Z</time>
      </trkpt>
      <trkpt lat="43.67266" lon="6.18572">
        <ele>720.6</ele>
        <time>2024-03-13T16:54:37.000Z</time>
      </trkpt>
      <trkpt lat="43.67268" lon="6.18567">
        <ele>720.5</ele>
        <time>2024-03-13T16:54:41.000Z</time>
      </trkpt>
      <trkpt lat="43.67271" lon="6.18561">
        <ele>719.9</ele>
        <time>2024-03-13T16:54:45.000Z</time>
      </trkpt>
      <trkpt lat="43.67273" lon="6.18555">
        <ele>719.3</ele>
        <time>2024-03-13T16:54:50.000Z</time>
      </trkpt>
      <trkpt lat="43.67275" lon="6.18549">
        <ele>718.8</ele>
        <time>2024-03-13T16:54:56.000Z</time>
      </trkpt>
      <trkpt lat="43.67279" lon="6.18545">
        <ele>718.1</ele>
        <time>2024-03-13T16:55:01.000Z</time>
      </trkpt>
      <trkpt lat="43.67283" lon="6.1854">
        <ele>717.6</ele>
        <time>2024-03-13T16:55:06.000Z</time>
      </trkpt>
      <trkpt lat="43.67285" lon="6.18534">
        <ele>717.2</ele>
        <time>2024-03-13T16:55:11.000Z</time>
      </trkpt>
      <trkpt lat="43.67288" lon="6.18528">
        <ele>716.9</ele>
        <time>2024-03-13T16:55:16.000Z</time>
      </trkpt>
      <trkpt lat="43.6729" lon="6.18522">
        <ele>716.6</ele>
        <time>2024-03-13T16:55:21.000Z</time>
      </trkpt>
      <trkpt lat="43.67292" lon="6.18515">
        <ele>716</ele>
        <time>2024-03-13T16:55:27.000Z</time>
      </trkpt>
      <trkpt lat="43.67293" lon="6.18508">
        <ele>715.3</ele>
        <time>2024-03-13T16:55:32.000Z</time>
      </trkpt>
      <trkpt lat="43.67294" lon="6.18501">
        <ele>714.8</ele>
        <time>2024-03-13T16:55:37.000Z</time>
      </trkpt>
      <trkpt lat="43.67295" lon="6.18494">
        <ele>714.4</ele>
        <time>2024-03-13T16:55:42.000Z</time>
      </trkpt>
      <trkpt lat="43.67298" lon="6.18489">
        <ele>714.1</ele>
        <time>2024-03-13T16:55:46.000Z</time>
      </trkpt>
      <trkpt lat="43.67301" lon="6.18484">
        <ele>713.7</ele>
        <time>2024-03-13T16:55:50.000Z</time>
      </trkpt>
      <trkpt lat="43.67303" lon="6.18478">
        <ele>713.3</ele>
        <time>2024-03-13T16:55:55.000Z</time>
      </trkpt>
      <trkpt lat="43.67305" lon="6.18471">
        <ele>712.6</ele>
        <time>2024-03-13T16:56:02.000Z</time>
      </trkpt>
      <trkpt lat="43.67306" lon="6.18465">
        <ele>712.3</ele>
        <time>2024-03-13T16:56:07.000Z</time>
      </trkpt>
      <trkpt lat="43.67308" lon="6.18458">
        <ele>711.8</ele>
        <time>2024-03-13T16:56:12.000Z</time>
      </trkpt>
      <trkpt lat="43.6731" lon="6.18452">
        <ele>711.1</ele>
        <time>2024-03-13T16:56:19.000Z</time>
      </trkpt>
      <trkpt lat="43.6731" lon="6.18445">
        <ele>710</ele>
        <time>2024-03-13T16:56:26.000Z</time>
      </trkpt>
      <trkpt lat="43.67312" lon="6.18439">
        <ele>709.4</ele>
        <time>2024-03-13T16:56:31.000Z</time>
      </trkpt>
      <trkpt lat="43.67314" lon="6.18434">
        <ele>708.9</ele>
        <time>2024-03-13T16:56:36.000Z</time>
      </trkpt>
      <trkpt lat="43.67317" lon="6.18429">
        <ele>708.3</ele>
        <time>2024-03-13T16:56:42.000Z</time>
      </trkpt>
      <trkpt lat="43.67319" lon="6.18423">
        <ele>707.7</ele>
        <time>2024-03-13T16:56:48.000Z</time>
      </trkpt>
      <trkpt lat="43.67322" lon="6.18417">
        <ele>707</ele>
        <time>2024-03-13T16:56:54.000Z</time>
      </trkpt>
      <trkpt lat="43.67324" lon="6.18411">
        <ele>706.5</ele>
        <time>2024-03-13T16:56:59.000Z</time>
      </trkpt>
      <trkpt lat="43.67325" lon="6.18405">
        <ele>705.9</ele>
        <time>2024-03-13T16:57:04.000Z</time>
      </trkpt>
      <trkpt lat="43.67324" lon="6.18397">
        <ele>705.3</ele>
        <time>2024-03-13T16:57:10.000Z</time>
      </trkpt>
      <trkpt lat="43.67322" lon="6.18391">
        <ele>704.7</ele>
        <time>2024-03-13T16:57:16.000Z</time>
      </trkpt>
      <trkpt lat="43.67318" lon="6.18387">
        <ele>703.8</ele>
        <time>2024-03-13T16:57:24.000Z</time>
      </trkpt>
      <trkpt lat="43.67317" lon="6.1838">
        <ele>703.3</ele>
        <time>2024-03-13T16:57:30.000Z</time>
      </trkpt>
      <trkpt lat="43.67317" lon="6.18374">
        <ele>702.5</ele>
        <time>2024-03-13T16:57:38.000Z</time>
      </trkpt>
      <trkpt lat="43.67317" lon="6.18367">
        <ele>701.1</ele>
        <time>2024-03-13T16:57:55.000Z</time>
      </trkpt>
      <trkpt lat="43.67318" lon="6.18361">
        <ele>699.5</ele>
        <time>2024-03-13T16:59:28.899Z</time>
      </trkpt>
      <trkpt lat="43.67319" lon="6.18354">
        <ele>699.4</ele>
        <time>2024-03-13T16:59:38.000Z</time>
      </trkpt>
      <trkpt lat="43.67319" lon="6.18348">
        <ele>699.3</ele>
        <time>2024-03-13T16:59:43.000Z</time>
      </trkpt>
      <trkpt lat="43.67317" lon="6.18342">
        <ele>699.2</ele>
        <time>2024-03-13T16:59:47.000Z</time>
      </trkpt>
      <trkpt lat="43.67315" lon="6.18336">
        <ele>699.1</ele>
        <time>2024-03-13T16:59:52.000Z</time>
      </trkpt>
      <trkpt lat="43.67312" lon="6.18331">
        <ele>698.8</ele>
        <time>2024-03-13T16:59:59.000Z</time>
      </trkpt>
      <trkpt lat="43.67309" lon="6.18326">
        <ele>698.6</ele>
        <time>2024-03-13T17:00:03.000Z</time>
      </trkpt>
      <trkpt lat="43.67306" lon="6.1832">
        <ele>698.4</ele>
        <time>2024-03-13T17:00:07.000Z</time>
      </trkpt>
      <trkpt lat="43.67302" lon="6.18315">
        <ele>698.2</ele>
        <time>2024-03-13T17:00:12.000Z</time>
      </trkpt>
      <trkpt lat="43.67299" lon="6.18309">
        <ele>698.1</ele>
        <time>2024-03-13T17:00:17.000Z</time>
      </trkpt>
      <trkpt lat="43.67296" lon="6.18304">
        <ele>698</ele>
        <time>2024-03-13T17:00:22.000Z</time>
      </trkpt>
      <trkpt lat="43.67292" lon="6.18298">
        <ele>697.9</ele>
        <time>2024-03-13T17:00:26.000Z</time>
      </trkpt>
      <trkpt lat="43.67291" lon="6.18292">
        <ele>697.8</ele>
        <time>2024-03-13T17:00:30.000Z</time>
      </trkpt>
      <trkpt lat="43.6729" lon="6.18286">
        <ele>697.7</ele>
        <time>2024-03-13T17:00:34.000Z</time>
      </trkpt>
      <trkpt lat="43.67288" lon="6.18279">
        <ele>697.3</ele>
        <time>2024-03-13T17:00:38.000Z</time>
      </trkpt>
      <trkpt lat="43.67286" lon="6.18272">
        <ele>696.8</ele>
        <time>2024-03-13T17:00:42.000Z</time>
      </trkpt>
      <trkpt lat="43.67284" lon="6.18265">
        <ele>696.5</ele>
        <time>2024-03-13T17:00:46.000Z</time>
      </trkpt>
      <trkpt lat="43.67283" lon="6.18259">
        <ele>696.2</ele>
        <time>2024-03-13T17:00:50.000Z</time>
      </trkpt>
      <trkpt lat="43.6728" lon="6.18253">
        <ele>696.1</ele>
        <time>2024-03-13T17:00:54.000Z</time>
      </trkpt>
      <trkpt lat="43.67278" lon="6.18247">
        <ele>695.9</ele>
        <time>2024-03-13T17:00:58.000Z</time>
      </trkpt>
      <trkpt lat="43.67276" lon="6.18241">
        <ele>695.6</ele>
        <time>2024-03-13T17:01:02.000Z</time>
      </trkpt>
      <trkpt lat="43.67274" lon="6.18234">
        <ele>695.3</ele>
        <time>2024-03-13T17:01:06.000Z</time>
      </trkpt>
      <trkpt lat="43.67271" lon="6.18228">
        <ele>695.1</ele>
        <time>2024-03-13T17:01:10.000Z</time>
      </trkpt>
      <trkpt lat="43.67269" lon="6.18223">
        <ele>694.9</ele>
        <time>2024-03-13T17:01:14.000Z</time>
      </trkpt>
      <trkpt lat="43.67266" lon="6.18218">
        <ele>694.6</ele>
        <time>2024-03-13T17:01:18.000Z</time>
      </trkpt>
      <trkpt lat="43.67264" lon="6.18211">
        <ele>694.2</ele>
        <time>2024-03-13T17:01:23.000Z</time>
      </trkpt>
      <trkpt lat="43.67262" lon="6.18205">
        <ele>693.6</ele>
        <time>2024-03-13T17:01:28.000Z</time>
      </trkpt>
      <trkpt lat="43.6726" lon="6.18199">
        <ele>693</ele>
        <time>2024-03-13T17:01:33.000Z</time>
      </trkpt>
      <trkpt lat="43.67256" lon="6.18194">
        <ele>692.5</ele>
        <time>2024-03-13T17:01:38.000Z</time>
      </trkpt>
      <trkpt lat="43.67254" lon="6.18187">
        <ele>692</ele>
        <time>2024-03-13T17:01:43.000Z</time>
      </trkpt>
      <trkpt lat="43.67253" lon="6.1818">
        <ele>691.5</ele>
        <time>2024-03-13T17:01:47.000Z</time>
      </trkpt>
      <trkpt lat="43.6725" lon="6.18175">
        <ele>691.2</ele>
        <time>2024-03-13T17:01:51.000Z</time>
      </trkpt>
      <trkpt lat="43.67247" lon="6.1817">
        <ele>690.8</ele>
        <time>2024-03-13T17:01:55.000Z</time>
      </trkpt>
      <trkpt lat="43.67244" lon="6.18164">
        <ele>690.5</ele>
        <time>2024-03-13T17:01:59.000Z</time>
      </trkpt>
      <trkpt lat="43.67244" lon="6.18158">
        <ele>690.2</ele>
        <time>2024-03-13T17:02:03.000Z</time>
      </trkpt>
      <trkpt lat="43.67243" lon="6.1815">
        <ele>689.9</ele>
        <time>2024-03-13T17:02:07.000Z</time>
      </trkpt>
      <trkpt lat="43.6724" lon="6.18144">
        <ele>689.6</ele>
        <time>2024-03-13T17:02:11.000Z</time>
      </trkpt>
      <trkpt lat="43.67237" lon="6.18138">
        <ele>689.3</ele>
        <time>2024-03-13T17:02:16.000Z</time>
      </trkpt>
      <trkpt lat="43.67234" lon="6.18132">
        <ele>688.9</ele>
        <time>2024-03-13T17:02:21.000Z</time>
      </trkpt>
      <trkpt lat="43.67233" lon="6.18125">
        <ele>688.6</ele>
        <time>2024-03-13T17:02:25.000Z</time>
      </trkpt>
      <trkpt lat="43.67232" lon="6.18119">
        <ele>688.3</ele>
        <time>2024-03-13T17:02:29.000Z</time>
      </trkpt>
      <trkpt lat="43.6723" lon="6.18112">
        <ele>688.1</ele>
        <time>2024-03-13T17:02:34.000Z</time>
      </trkpt>
      <trkpt lat="43.6723" lon="6.18105">
        <ele>687.8</ele>
        <time>2024-03-13T17:02:40.000Z</time>
      </trkpt>
      <trkpt lat="43.67229" lon="6.18099">
        <ele>687.2</ele>
        <time>2024-03-13T17:03:17.000Z</time>
      </trkpt>
      <trkpt lat="43.67227" lon="6.18093">
        <ele>687.2</ele>
        <time>2024-03-13T17:03:35.000Z</time>
      </trkpt>
      <trkpt lat="43.67227" lon="6.18086">
        <ele>687</ele>
        <time>2024-03-13T17:03:41.000Z</time>
      </trkpt>
      <trkpt lat="43.67226" lon="6.1808">
        <ele>686.8</ele>
        <time>2024-03-13T17:03:47.000Z</time>
      </trkpt>
      <trkpt lat="43.67223" lon="6.18074">
        <ele>686.4</ele>
        <time>2024-03-13T17:03:57.000Z</time>
      </trkpt>
      <trkpt lat="43.67222" lon="6.18067">
        <ele>686.1</ele>
        <time>2024-03-13T17:04:03.000Z</time>
      </trkpt>
      <trkpt lat="43.6722" lon="6.18061">
        <ele>685.8</ele>
        <time>2024-03-13T17:04:09.000Z</time>
      </trkpt>
      <trkpt lat="43.67219" lon="6.18053">
        <ele>685.5</ele>
        <time>2024-03-13T17:04:15.000Z</time>
      </trkpt>
      <trkpt lat="43.67219" lon="6.18046">
        <ele>685.4</ele>
        <time>2024-03-13T17:04:19.000Z</time>
      </trkpt>
      <trkpt lat="43.67218" lon="6.1804">
        <ele>685.3</ele>
        <time>2024-03-13T17:04:24.000Z</time>
      </trkpt>
      <trkpt lat="43.67219" lon="6.18033">
        <ele>685.1</ele>
        <time>2024-03-13T17:04:29.000Z</time>
      </trkpt>
      <trkpt lat="43.6722" lon="6.18025">
        <ele>685.1</ele>
        <time>2024-03-13T17:04:33.000Z</time>
      </trkpt>
      <trkpt lat="43.6722" lon="6.18018">
        <ele>684.9</ele>
        <time>2024-03-13T17:04:38.000Z</time>
      </trkpt>
      <trkpt lat="43.6722" lon="6.1801">
        <ele>684.7</ele>
        <time>2024-03-13T17:04:43.000Z</time>
      </trkpt>
      <trkpt lat="43.67221" lon="6.18002">
        <ele>684.6</ele>
        <time>2024-03-13T17:04:48.000Z</time>
      </trkpt>
      <trkpt lat="43.67221" lon="6.17995">
        <ele>684.2</ele>
        <time>2024-03-13T17:04:53.000Z</time>
      </trkpt>
      <trkpt lat="43.67222" lon="6.17988">
        <ele>683.7</ele>
        <time>2024-03-13T17:04:58.000Z</time>
      </trkpt>
      <trkpt lat="43.67223" lon="6.17982">
        <ele>683.5</ele>
        <time>2024-03-13T17:05:02.000Z</time>
      </trkpt>
      <trkpt lat="43.67222" lon="6.17975">
        <ele>683.3</ele>
        <time>2024-03-13T17:05:06.000Z</time>
      </trkpt>
      <trkpt lat="43.67222" lon="6.17968">
        <ele>682.7</ele>
        <time>2024-03-13T17:05:10.000Z</time>
      </trkpt>
      <trkpt lat="43.67222" lon="6.17961">
        <ele>682.6</ele>
        <time>2024-03-13T17:05:14.000Z</time>
      </trkpt>
      <trkpt lat="43.67222" lon="6.17955">
        <ele>682.5</ele>
        <time>2024-03-13T17:05:18.000Z</time>
      </trkpt>
      <trkpt lat="43.67223" lon="6.17948">
        <ele>682.3</ele>
        <time>2024-03-13T17:05:22.000Z</time>
      </trkpt>
      <trkpt lat="43.67224" lon="6.17941">
        <ele>682.1</ele>
        <time>2024-03-13T17:05:27.000Z</time>
      </trkpt>
      <trkpt lat="43.67225" lon="6.17934">
        <ele>682</ele>
        <time>2024-03-13T17:05:32.000Z</time>
      </trkpt>
      <trkpt lat="43.67228" lon="6.17928">
        <ele>681.9</ele>
        <time>2024-03-13T17:05:37.000Z</time>
      </trkpt>
      <trkpt lat="43.67231" lon="6.17923">
        <ele>681.7</ele>
        <time>2024-03-13T17:05:41.000Z</time>
      </trkpt>
      <trkpt lat="43.67233" lon="6.17917">
        <ele>681.4</ele>
        <time>2024-03-13T17:05:45.000Z</time>
      </trkpt>
      <trkpt lat="43.67236" lon="6.17911">
        <ele>681.1</ele>
        <time>2024-03-13T17:05:49.000Z</time>
      </trkpt>
      <trkpt lat="43.67237" lon="6.17905">
        <ele>680.9</ele>
        <time>2024-03-13T17:05:54.000Z</time>
      </trkpt>
      <trkpt lat="43.67238" lon="6.17898">
        <ele>680.7</ele>
        <time>2024-03-13T17:05:58.000Z</time>
      </trkpt>
      <trkpt lat="43.67238" lon="6.17891">
        <ele>680.5</ele>
        <time>2024-03-13T17:06:02.000Z</time>
      </trkpt>
      <trkpt lat="43.67239" lon="6.17884">
        <ele>680.3</ele>
        <time>2024-03-13T17:06:06.000Z</time>
      </trkpt>
      <trkpt lat="43.6724" lon="6.17878">
        <ele>680</ele>
        <time>2024-03-13T17:06:10.000Z</time>
      </trkpt>
      <trkpt lat="43.67242" lon="6.17871">
        <ele>679.8</ele>
        <time>2024-03-13T17:06:14.000Z</time>
      </trkpt>
      <trkpt lat="43.67243" lon="6.17864">
        <ele>679.6</ele>
        <time>2024-03-13T17:06:18.000Z</time>
      </trkpt>
      <trkpt lat="43.67245" lon="6.17856">
        <ele>679.5</ele>
        <time>2024-03-13T17:06:22.000Z</time>
      </trkpt>
      <trkpt lat="43.67246" lon="6.17849">
        <ele>679.3</ele>
        <time>2024-03-13T17:06:26.000Z</time>
      </trkpt>
      <trkpt lat="43.67247" lon="6.17843">
        <ele>679.1</ele>
        <time>2024-03-13T17:06:30.000Z</time>
      </trkpt>
      <trkpt lat="43.67249" lon="6.17837">
        <ele>678.9</ele>
        <time>2024-03-13T17:06:34.000Z</time>
      </trkpt>
      <trkpt lat="43.67249" lon="6.1783">
        <ele>678.7</ele>
        <time>2024-03-13T17:06:38.000Z</time>
      </trkpt>
      <trkpt lat="43.67251" lon="6.17824">
        <ele>678.6</ele>
        <time>2024-03-13T17:06:42.000Z</time>
      </trkpt>
      <trkpt lat="43.67252" lon="6.17817">
        <ele>678.6</ele>
        <time>2024-03-13T17:06:46.000Z</time>
      </trkpt>
      <trkpt lat="43.67255" lon="6.17811">
        <ele>678.4</ele>
        <time>2024-03-13T17:06:50.000Z</time>
      </trkpt>
      <trkpt lat="43.67255" lon="6.17804">
        <ele>678.1</ele>
        <time>2024-03-13T17:06:54.000Z</time>
      </trkpt>
      <trkpt lat="43.67256" lon="6.17797">
        <ele>677.9</ele>
        <time>2024-03-13T17:06:58.000Z</time>
      </trkpt>
      <trkpt lat="43.67257" lon="6.1779">
        <ele>677.6</ele>
        <time>2024-03-13T17:07:02.000Z</time>
      </trkpt>
      <trkpt lat="43.67259" lon="6.17784">
        <ele>677.4</ele>
        <time>2024-03-13T17:07:06.000Z</time>
      </trkpt>
      <trkpt lat="43.6726" lon="6.17778">
        <ele>677.3</ele>
        <time>2024-03-13T17:07:10.000Z</time>
      </trkpt>
      <trkpt lat="43.67263" lon="6.17772">
        <ele>677.2</ele>
        <time>2024-03-13T17:07:14.000Z</time>
      </trkpt>
      <trkpt lat="43.67266" lon="6.17766">
        <ele>677</ele>
        <time>2024-03-13T17:07:18.000Z</time>
      </trkpt>
      <trkpt lat="43.67269" lon="6.17761">
        <ele>676.8</ele>
        <time>2024-03-13T17:07:22.000Z</time>
      </trkpt>
      <trkpt lat="43.67272" lon="6.17756">
        <ele>676.7</ele>
        <time>2024-03-13T17:07:26.000Z</time>
      </trkpt>
      <trkpt lat="43.67275" lon="6.17751">
        <ele>676.5</ele>
        <time>2024-03-13T17:07:30.000Z</time>
      </trkpt>
      <trkpt lat="43.67278" lon="6.17745">
        <ele>676.3</ele>
        <time>2024-03-13T17:07:34.000Z</time>
      </trkpt>
      <trkpt lat="43.67281" lon="6.1774">
        <ele>676</ele>
        <time>2024-03-13T17:07:38.000Z</time>
      </trkpt>
      <trkpt lat="43.67283" lon="6.17734">
        <ele>675.7</ele>
        <time>2024-03-13T17:07:42.000Z</time>
      </trkpt>
      <trkpt lat="43.67285" lon="6.17728">
        <ele>675.6</ele>
        <time>2024-03-13T17:07:46.000Z</time>
      </trkpt>
      <trkpt lat="43.67285" lon="6.17722">
        <ele>675.4</ele>
        <time>2024-03-13T17:07:50.000Z</time>
      </trkpt>
      <trkpt lat="43.67287" lon="6.17715">
        <ele>675.1</ele>
        <time>2024-03-13T17:07:55.000Z</time>
      </trkpt>
      <trkpt lat="43.67289" lon="6.1771">
        <ele>674.8</ele>
        <time>2024-03-13T17:08:00.000Z</time>
      </trkpt>
      <trkpt lat="43.67292" lon="6.17703">
        <ele>674.6</ele>
        <time>2024-03-13T17:08:05.000Z</time>
      </trkpt>
      <trkpt lat="43.67294" lon="6.17697">
        <ele>674.5</ele>
        <time>2024-03-13T17:08:09.000Z</time>
      </trkpt>
      <trkpt lat="43.67297" lon="6.17691">
        <ele>674.3</ele>
        <time>2024-03-13T17:08:13.000Z</time>
      </trkpt>
      <trkpt lat="43.67298" lon="6.17684">
        <ele>674.3</ele>
        <time>2024-03-13T17:08:17.000Z</time>
      </trkpt>
      <trkpt lat="43.67297" lon="6.17678">
        <ele>674.1</ele>
        <time>2024-03-13T17:08:23.000Z</time>
      </trkpt>
      <trkpt lat="43.67296" lon="6.17671">
        <ele>674</ele>
        <time>2024-03-13T17:08:28.000Z</time>
      </trkpt>
      <trkpt lat="43.67295" lon="6.17664">
        <ele>674</ele>
        <time>2024-03-13T17:08:32.000Z</time>
      </trkpt>
      <trkpt lat="43.67293" lon="6.17658">
        <ele>674.2</ele>
        <time>2024-03-13T17:08:36.000Z</time>
      </trkpt>
      <trkpt lat="43.67291" lon="6.17651">
        <ele>674.3</ele>
        <time>2024-03-13T17:08:40.000Z</time>
      </trkpt>
      <trkpt lat="43.6729" lon="6.17645">
        <ele>674.4</ele>
        <time>2024-03-13T17:08:44.000Z</time>
      </trkpt>
      <trkpt lat="43.67287" lon="6.17639">
        <ele>674.4</ele>
        <time>2024-03-13T17:08:48.000Z</time>
      </trkpt>
      <trkpt lat="43.67284" lon="6.17634">
        <ele>674.5</ele>
        <time>2024-03-13T17:08:52.000Z</time>
      </trkpt>
      <trkpt lat="43.6728" lon="6.1763">
        <ele>674.6</ele>
        <time>2024-03-13T17:08:56.000Z</time>
      </trkpt>
      <trkpt lat="43.67276" lon="6.17626">
        <ele>674.5</ele>
        <time>2024-03-13T17:09:00.000Z</time>
      </trkpt>
      <trkpt lat="43.67272" lon="6.17625">
        <ele>674.5</ele>
        <time>2024-03-13T17:09:04.000Z</time>
      </trkpt>
      <trkpt lat="43.67267" lon="6.17622">
        <ele>674.4</ele>
        <time>2024-03-13T17:09:09.000Z</time>
      </trkpt>
      <trkpt lat="43.67264" lon="6.17618">
        <ele>674.4</ele>
        <time>2024-03-13T17:09:14.000Z</time>
      </trkpt>
      <trkpt lat="43.6726" lon="6.17613">
        <ele>674.4</ele>
        <time>2024-03-13T17:09:18.000Z</time>
      </trkpt>
      <trkpt lat="43.67256" lon="6.17609">
        <ele>674.4</ele>
        <time>2024-03-13T17:09:22.000Z</time>
      </trkpt>
      <trkpt lat="43.67253" lon="6.17605">
        <ele>674.4</ele>
        <time>2024-03-13T17:09:26.000Z</time>
      </trkpt>
      <trkpt lat="43.67248" lon="6.176">
        <ele>674.4</ele>
        <time>2024-03-13T17:09:30.000Z</time>
      </trkpt>
      <trkpt lat="43.67243" lon="6.17598">
        <ele>674.5</ele>
        <time>2024-03-13T17:09:33.000Z</time>
      </trkpt>
      <trkpt lat="43.67239" lon="6.17593">
        <ele>674.4</ele>
        <time>2024-03-13T17:09:37.000Z</time>
      </trkpt>
      <trkpt lat="43.67236" lon="6.17587">
        <ele>674.4</ele>
        <time>2024-03-13T17:09:41.000Z</time>
      </trkpt>
      <trkpt lat="43.67236" lon="6.1758">
        <ele>674.4</ele>
        <time>2024-03-13T17:09:45.000Z</time>
      </trkpt>
      <trkpt lat="43.67236" lon="6.17573">
        <ele>674.3</ele>
        <time>2024-03-13T17:09:49.000Z</time>
      </trkpt>
      <trkpt lat="43.67236" lon="6.17565">
        <ele>674.1</ele>
        <time>2024-03-13T17:09:53.000Z</time>
      </trkpt>
      <trkpt lat="43.67236" lon="6.17558">
        <ele>673.9</ele>
        <time>2024-03-13T17:09:57.000Z</time>
      </trkpt>
      <trkpt lat="43.67236" lon="6.17552">
        <ele>673.8</ele>
        <time>2024-03-13T17:10:01.000Z</time>
      </trkpt>
      <trkpt lat="43.67235" lon="6.17545">
        <ele>673.7</ele>
        <time>2024-03-13T17:10:05.000Z</time>
      </trkpt>
      <trkpt lat="43.67235" lon="6.17538">
        <ele>673.5</ele>
        <time>2024-03-13T17:10:10.000Z</time>
      </trkpt>
      <trkpt lat="43.67235" lon="6.17531">
        <ele>673.3</ele>
        <time>2024-03-13T17:10:15.000Z</time>
      </trkpt>
      <trkpt lat="43.67235" lon="6.17524">
        <ele>673</ele>
        <time>2024-03-13T17:10:19.000Z</time>
      </trkpt>
      <trkpt lat="43.67236" lon="6.17517">
        <ele>672.6</ele>
        <time>2024-03-13T17:10:23.000Z</time>
      </trkpt>
      <trkpt lat="43.67236" lon="6.17511">
        <ele>672.3</ele>
        <time>2024-03-13T17:10:27.000Z</time>
      </trkpt>
      <trkpt lat="43.67237" lon="6.17504">
        <ele>672</ele>
        <time>2024-03-13T17:10:31.000Z</time>
      </trkpt>
      <trkpt lat="43.67239" lon="6.17496">
        <ele>671.8</ele>
        <time>2024-03-13T17:10:35.000Z</time>
      </trkpt>
      <trkpt lat="43.6724" lon="6.17489">
        <ele>671.6</ele>
        <time>2024-03-13T17:10:39.000Z</time>
      </trkpt>
      <trkpt lat="43.67242" lon="6.17482">
        <ele>671.4</ele>
        <time>2024-03-13T17:10:43.000Z</time>
      </trkpt>
      <trkpt lat="43.67243" lon="6.17475">
        <ele>671.3</ele>
        <time>2024-03-13T17:10:47.000Z</time>
      </trkpt>
      <trkpt lat="43.67244" lon="6.17469">
        <ele>671.2</ele>
        <time>2024-03-13T17:10:50.000Z</time>
      </trkpt>
      <trkpt lat="43.67246" lon="6.17462">
        <ele>670.9</ele>
        <time>2024-03-13T17:10:54.000Z</time>
      </trkpt>
      <trkpt lat="43.67247" lon="6.17455">
        <ele>670.8</ele>
        <time>2024-03-13T17:10:57.000Z</time>
      </trkpt>
      <trkpt lat="43.67249" lon="6.17448">
        <ele>670.6</ele>
        <time>2024-03-13T17:11:01.000Z</time>
      </trkpt>
      <trkpt lat="43.6725" lon="6.17442">
        <ele>670.4</ele>
        <time>2024-03-13T17:11:05.000Z</time>
      </trkpt>
      <trkpt lat="43.67252" lon="6.17436">
        <ele>670.1</ele>
        <time>2024-03-13T17:11:09.000Z</time>
      </trkpt>
      <trkpt lat="43.67253" lon="6.1743">
        <ele>669.8</ele>
        <time>2024-03-13T17:11:13.000Z</time>
      </trkpt>
      <trkpt lat="43.67254" lon="6.17423">
        <ele>669.6</ele>
        <time>2024-03-13T17:11:17.000Z</time>
      </trkpt>
      <trkpt lat="43.67256" lon="6.17416">
        <ele>669.4</ele>
        <time>2024-03-13T17:11:21.000Z</time>
      </trkpt>
      <trkpt lat="43.67258" lon="6.17409">
        <ele>669.1</ele>
        <time>2024-03-13T17:11:25.000Z</time>
      </trkpt>
      <trkpt lat="43.67259" lon="6.17402">
        <ele>668.8</ele>
        <time>2024-03-13T17:11:29.000Z</time>
      </trkpt>
      <trkpt lat="43.67261" lon="6.17396">
        <ele>668.5</ele>
        <time>2024-03-13T17:11:33.000Z</time>
      </trkpt>
      <trkpt lat="43.67262" lon="6.17388">
        <ele>668</ele>
        <time>2024-03-13T17:11:37.000Z</time>
      </trkpt>
      <trkpt lat="43.67264" lon="6.17382">
        <ele>667.7</ele>
        <time>2024-03-13T17:11:40.000Z</time>
      </trkpt>
      <trkpt lat="43.67267" lon="6.17377">
        <ele>667.4</ele>
        <time>2024-03-13T17:11:44.000Z</time>
      </trkpt>
      <trkpt lat="43.67271" lon="6.17372">
        <ele>667.3</ele>
        <time>2024-03-13T17:11:48.000Z</time>
      </trkpt>
      <trkpt lat="43.67276" lon="6.17368">
        <ele>667.1</ele>
        <time>2024-03-13T17:11:52.000Z</time>
      </trkpt>
      <trkpt lat="43.6728" lon="6.17365">
        <ele>667</ele>
        <time>2024-03-13T17:11:56.000Z</time>
      </trkpt>
      <trkpt lat="43.67284" lon="6.1736">
        <ele>666.9</ele>
        <time>2024-03-13T17:12:00.000Z</time>
      </trkpt>
      <trkpt lat="43.67288" lon="6.17355">
        <ele>666.8</ele>
        <time>2024-03-13T17:12:04.000Z</time>
      </trkpt>
      <trkpt lat="43.67291" lon="6.17349">
        <ele>666.7</ele>
        <time>2024-03-13T17:12:08.000Z</time>
      </trkpt>
      <trkpt lat="43.67293" lon="6.17342">
        <ele>666.6</ele>
        <time>2024-03-13T17:12:12.000Z</time>
      </trkpt>
      <trkpt lat="43.67295" lon="6.17336">
        <ele>666.4</ele>
        <time>2024-03-13T17:12:16.000Z</time>
      </trkpt>
      <trkpt lat="43.67296" lon="6.1733">
        <ele>666.2</ele>
        <time>2024-03-13T17:12:20.000Z</time>
      </trkpt>
      <trkpt lat="43.67298" lon="6.17323">
        <ele>666</ele>
        <time>2024-03-13T17:12:24.000Z</time>
      </trkpt>
      <trkpt lat="43.67299" lon="6.17315">
        <ele>665.8</ele>
        <time>2024-03-13T17:12:28.000Z</time>
      </trkpt>
      <trkpt lat="43.67301" lon="6.17309">
        <ele>665.4</ele>
        <time>2024-03-13T17:12:32.000Z</time>
      </trkpt>
      <trkpt lat="43.67302" lon="6.17302">
        <ele>665.1</ele>
        <time>2024-03-13T17:12:36.000Z</time>
      </trkpt>
      <trkpt lat="43.67304" lon="6.17295">
        <ele>664.8</ele>
        <time>2024-03-13T17:12:41.000Z</time>
      </trkpt>
      <trkpt lat="43.67306" lon="6.17288">
        <ele>664.5</ele>
        <time>2024-03-13T17:12:45.000Z</time>
      </trkpt>
      <trkpt lat="43.67307" lon="6.17281">
        <ele>664.1</ele>
        <time>2024-03-13T17:12:50.000Z</time>
      </trkpt>
      <trkpt lat="43.67309" lon="6.17275">
        <ele>663.9</ele>
        <time>2024-03-13T17:12:54.000Z</time>
      </trkpt>
      <trkpt lat="43.67311" lon="6.17267">
        <ele>663.7</ele>
        <time>2024-03-13T17:12:58.000Z</time>
      </trkpt>
      <trkpt lat="43.67311" lon="6.1726">
        <ele>663.4</ele>
        <time>2024-03-13T17:13:03.000Z</time>
      </trkpt>
      <trkpt lat="43.67313" lon="6.17254">
        <ele>663.1</ele>
        <time>2024-03-13T17:13:06.000Z</time>
      </trkpt>
      <trkpt lat="43.67313" lon="6.17247">
        <ele>662.8</ele>
        <time>2024-03-13T17:13:10.000Z</time>
      </trkpt>
      <trkpt lat="43.67314" lon="6.17239">
        <ele>662.5</ele>
        <time>2024-03-13T17:13:14.000Z</time>
      </trkpt>
      <trkpt lat="43.67317" lon="6.17234">
        <ele>662.2</ele>
        <time>2024-03-13T17:13:18.000Z</time>
      </trkpt>
      <trkpt lat="43.6732" lon="6.17229">
        <ele>662</ele>
        <time>2024-03-13T17:13:21.000Z</time>
      </trkpt>
      <trkpt lat="43.67324" lon="6.17224">
        <ele>661.7</ele>
        <time>2024-03-13T17:13:25.000Z</time>
      </trkpt>
      <trkpt lat="43.67328" lon="6.17222">
        <ele>661.4</ele>
        <time>2024-03-13T17:13:28.000Z</time>
      </trkpt>
      <trkpt lat="43.67333" lon="6.17219">
        <ele>661</ele>
        <time>2024-03-13T17:13:32.000Z</time>
      </trkpt>
      <trkpt lat="43.67338" lon="6.17217">
        <ele>660.8</ele>
        <time>2024-03-13T17:13:36.000Z</time>
      </trkpt>
      <trkpt lat="43.67343" lon="6.17213">
        <ele>660.5</ele>
        <time>2024-03-13T17:13:40.000Z</time>
      </trkpt>
      <trkpt lat="43.67348" lon="6.17208">
        <ele>660.4</ele>
        <time>2024-03-13T17:13:44.000Z</time>
      </trkpt>
      <trkpt lat="43.67352" lon="6.17203">
        <ele>660.2</ele>
        <time>2024-03-13T17:13:48.000Z</time>
      </trkpt>
      <trkpt lat="43.67355" lon="6.17197">
        <ele>660</ele>
        <time>2024-03-13T17:13:52.000Z</time>
      </trkpt>
      <trkpt lat="43.67358" lon="6.17191">
        <ele>659.7</ele>
        <time>2024-03-13T17:13:56.000Z</time>
      </trkpt>
      <trkpt lat="43.6736" lon="6.17184">
        <ele>659.3</ele>
        <time>2024-03-13T17:14:00.000Z</time>
      </trkpt>
      <trkpt lat="43.67361" lon="6.17178">
        <ele>659</ele>
        <time>2024-03-13T17:14:04.000Z</time>
      </trkpt>
      <trkpt lat="43.67362" lon="6.1717">
        <ele>658.8</ele>
        <time>2024-03-13T17:14:09.000Z</time>
      </trkpt>
      <trkpt lat="43.67364" lon="6.17163">
        <ele>658.6</ele>
        <time>2024-03-13T17:14:13.000Z</time>
      </trkpt>
      <trkpt lat="43.67367" lon="6.17156">
        <ele>658.3</ele>
        <time>2024-03-13T17:14:17.000Z</time>
      </trkpt>
      <trkpt lat="43.6737" lon="6.1715">
        <ele>658</ele>
        <time>2024-03-13T17:14:21.000Z</time>
      </trkpt>
      <trkpt lat="43.67372" lon="6.17143">
        <ele>657.8</ele>
        <time>2024-03-13T17:14:25.000Z</time>
      </trkpt>
      <trkpt lat="43.67375" lon="6.17137">
        <ele>657.5</ele>
        <time>2024-03-13T17:14:29.000Z</time>
      </trkpt>
      <trkpt lat="43.67378" lon="6.1713">
        <ele>657.3</ele>
        <time>2024-03-13T17:14:33.000Z</time>
      </trkpt>
      <trkpt lat="43.67381" lon="6.17124">
        <ele>657</ele>
        <time>2024-03-13T17:14:37.000Z</time>
      </trkpt>
      <trkpt lat="43.67384" lon="6.17118">
        <ele>656.8</ele>
        <time>2024-03-13T17:14:41.000Z</time>
      </trkpt>
      <trkpt lat="43.67388" lon="6.17113">
        <ele>656.6</ele>
        <time>2024-03-13T17:14:45.000Z</time>
      </trkpt>
      <trkpt lat="43.67391" lon="6.17107">
        <ele>656.4</ele>
        <time>2024-03-13T17:14:49.000Z</time>
      </trkpt>
      <trkpt lat="43.67393" lon="6.17099">
        <ele>656.3</ele>
        <time>2024-03-13T17:14:53.000Z</time>
      </trkpt>
      <trkpt lat="43.67394" lon="6.17092">
        <ele>656.1</ele>
        <time>2024-03-13T17:14:57.000Z</time>
      </trkpt>
      <trkpt lat="43.67396" lon="6.17085">
        <ele>655.9</ele>
        <time>2024-03-13T17:15:01.000Z</time>
      </trkpt>
      <trkpt lat="43.67397" lon="6.17078">
        <ele>655.7</ele>
        <time>2024-03-13T17:15:05.000Z</time>
      </trkpt>
      <trkpt lat="43.67397" lon="6.1707">
        <ele>655.4</ele>
        <time>2024-03-13T17:15:09.000Z</time>
      </trkpt>
      <trkpt lat="43.67399" lon="6.17063">
        <ele>655</ele>
        <time>2024-03-13T17:15:13.000Z</time>
      </trkpt>
      <trkpt lat="43.674" lon="6.17055">
        <ele>654.8</ele>
        <time>2024-03-13T17:15:17.000Z</time>
      </trkpt>
      <trkpt lat="43.674" lon="6.17048">
        <ele>654.6</ele>
        <time>2024-03-13T17:15:21.000Z</time>
      </trkpt>
      <trkpt lat="43.67401" lon="6.17041">
        <ele>654.3</ele>
        <time>2024-03-13T17:15:25.000Z</time>
      </trkpt>
      <trkpt lat="43.67402" lon="6.17033">
        <ele>654</ele>
        <time>2024-03-13T17:15:29.000Z</time>
      </trkpt>
      <trkpt lat="43.67402" lon="6.17026">
        <ele>653.8</ele>
        <time>2024-03-13T17:15:33.000Z</time>
      </trkpt>
      <trkpt lat="43.67403" lon="6.17019">
        <ele>653.5</ele>
        <time>2024-03-13T17:15:37.000Z</time>
      </trkpt>
      <trkpt lat="43.67403" lon="6.17011">
        <ele>653.3</ele>
        <time>2024-03-13T17:15:41.000Z</time>
      </trkpt>
      <trkpt lat="43.67403" lon="6.17004">
        <ele>653.1</ele>
        <time>2024-03-13T17:15:45.000Z</time>
      </trkpt>
      <trkpt lat="43.67403" lon="6.16997">
        <ele>652.9</ele>
        <time>2024-03-13T17:15:49.000Z</time>
      </trkpt>
      <trkpt lat="43.67404" lon="6.1699">
        <ele>652.5</ele>
        <time>2024-03-13T17:15:54.000Z</time>
      </trkpt>
      <trkpt lat="43.67404" lon="6.16983">
        <ele>652.2</ele>
        <time>2024-03-13T17:15:58.000Z</time>
      </trkpt>
      <trkpt lat="43.67403" lon="6.16976">
        <ele>652</ele>
        <time>2024-03-13T17:16:02.000Z</time>
      </trkpt>
      <trkpt lat="43.67404" lon="6.1697">
        <ele>651.9</ele>
        <time>2024-03-13T17:16:06.000Z</time>
      </trkpt>
      <trkpt lat="43.67405" lon="6.16963">
        <ele>651.7</ele>
        <time>2024-03-13T17:16:10.000Z</time>
      </trkpt>
      <trkpt lat="43.67405" lon="6.16957">
        <ele>651.4</ele>
        <time>2024-03-13T17:16:14.000Z</time>
      </trkpt>
      <trkpt lat="43.67406" lon="6.1695">
        <ele>651.2</ele>
        <time>2024-03-13T17:16:18.000Z</time>
      </trkpt>
      <trkpt lat="43.67406" lon="6.16943">
        <ele>650.9</ele>
        <time>2024-03-13T17:16:22.000Z</time>
      </trkpt>
      <trkpt lat="43.67407" lon="6.16935">
        <ele>650.6</ele>
        <time>2024-03-13T17:16:26.000Z</time>
      </trkpt>
      <trkpt lat="43.67408" lon="6.16928">
        <ele>650.3</ele>
        <time>2024-03-13T17:16:30.000Z</time>
      </trkpt>
      <trkpt lat="43.67408" lon="6.16921">
        <ele>650.1</ele>
        <time>2024-03-13T17:16:34.000Z</time>
      </trkpt>
      <trkpt lat="43.67409" lon="6.16914">
        <ele>649.8</ele>
        <time>2024-03-13T17:16:38.000Z</time>
      </trkpt>
      <trkpt lat="43.67409" lon="6.16907">
        <ele>649.6</ele>
        <time>2024-03-13T17:16:42.000Z</time>
      </trkpt>
      <trkpt lat="43.67409" lon="6.16899">
        <ele>649.2</ele>
        <time>2024-03-13T17:16:46.000Z</time>
      </trkpt>
      <trkpt lat="43.67409" lon="6.16891">
        <ele>648.9</ele>
        <time>2024-03-13T17:16:50.000Z</time>
      </trkpt>
      <trkpt lat="43.67408" lon="6.16884">
        <ele>648.7</ele>
        <time>2024-03-13T17:16:54.000Z</time>
      </trkpt>
      <trkpt lat="43.67408" lon="6.16877">
        <ele>648.4</ele>
        <time>2024-03-13T17:16:58.000Z</time>
      </trkpt>
      <trkpt lat="43.67407" lon="6.16871">
        <ele>648.1</ele>
        <time>2024-03-13T17:17:02.000Z</time>
      </trkpt>
      <trkpt lat="43.67407" lon="6.16864">
        <ele>647.9</ele>
        <time>2024-03-13T17:17:06.000Z</time>
      </trkpt>
      <trkpt lat="43.67408" lon="6.16857">
        <ele>647.6</ele>
        <time>2024-03-13T17:17:10.000Z</time>
      </trkpt>
      <trkpt lat="43.67408" lon="6.1685">
        <ele>647.3</ele>
        <time>2024-03-13T17:17:14.000Z</time>
      </trkpt>
      <trkpt lat="43.67407" lon="6.16844">
        <ele>647.1</ele>
        <time>2024-03-13T17:17:18.000Z</time>
      </trkpt>
      <trkpt lat="43.67406" lon="6.16837">
        <ele>646.7</ele>
        <time>2024-03-13T17:17:22.000Z</time>
      </trkpt>
      <trkpt lat="43.67406" lon="6.1683">
        <ele>646.5</ele>
        <time>2024-03-13T17:17:26.000Z</time>
      </trkpt>
      <trkpt lat="43.67406" lon="6.16824">
        <ele>646.3</ele>
        <time>2024-03-13T17:17:29.000Z</time>
      </trkpt>
      <trkpt lat="43.67405" lon="6.16817">
        <ele>646.1</ele>
        <time>2024-03-13T17:17:33.000Z</time>
      </trkpt>
      <trkpt lat="43.67406" lon="6.1681">
        <ele>645.8</ele>
        <time>2024-03-13T17:17:37.000Z</time>
      </trkpt>
      <trkpt lat="43.67406" lon="6.16802">
        <ele>645.6</ele>
        <time>2024-03-13T17:17:41.000Z</time>
      </trkpt>
      <trkpt lat="43.67406" lon="6.16795">
        <ele>645.3</ele>
        <time>2024-03-13T17:17:45.000Z</time>
      </trkpt>
      <trkpt lat="43.67406" lon="6.16789">
        <ele>645.2</ele>
        <time>2024-03-13T17:17:48.000Z</time>
      </trkpt>
      <trkpt lat="43.67407" lon="6.16781">
        <ele>645</ele>
        <time>2024-03-13T17:17:52.000Z</time>
      </trkpt>
      <trkpt lat="43.67406" lon="6.16774">
        <ele>644.8</ele>
        <time>2024-03-13T17:17:56.000Z</time>
      </trkpt>
      <trkpt lat="43.67404" lon="6.16767">
        <ele>644.6</ele>
        <time>2024-03-13T17:18:00.000Z</time>
      </trkpt>
      <trkpt lat="43.67403" lon="6.1676">
        <ele>644.4</ele>
        <time>2024-03-13T17:18:04.000Z</time>
      </trkpt>
      <trkpt lat="43.67401" lon="6.16753">
        <ele>644</ele>
        <time>2024-03-13T17:18:08.000Z</time>
      </trkpt>
      <trkpt lat="43.67399" lon="6.16746">
        <ele>643.6</ele>
        <time>2024-03-13T17:18:12.000Z</time>
      </trkpt>
      <trkpt lat="43.67398" lon="6.16739">
        <ele>643.2</ele>
        <time>2024-03-13T17:18:16.000Z</time>
      </trkpt>
      <trkpt lat="43.67397" lon="6.16731">
        <ele>642.9</ele>
        <time>2024-03-13T17:18:20.000Z</time>
      </trkpt>
      <trkpt lat="43.67397" lon="6.16725">
        <ele>642.6</ele>
        <time>2024-03-13T17:18:24.000Z</time>
      </trkpt>
      <trkpt lat="43.67397" lon="6.16717">
        <ele>642.3</ele>
        <time>2024-03-13T17:18:28.000Z</time>
      </trkpt>
      <trkpt lat="43.67396" lon="6.1671">
        <ele>642.1</ele>
        <time>2024-03-13T17:18:32.000Z</time>
      </trkpt>
      <trkpt lat="43.67397" lon="6.16703">
        <ele>642</ele>
        <time>2024-03-13T17:18:36.000Z</time>
      </trkpt>
      <trkpt lat="43.67397" lon="6.16696">
        <ele>641.7</ele>
        <time>2024-03-13T17:18:40.000Z</time>
      </trkpt>
      <trkpt lat="43.67397" lon="6.16688">
        <ele>641.4</ele>
        <time>2024-03-13T17:18:44.000Z</time>
      </trkpt>
      <trkpt lat="43.67398" lon="6.16681">
        <ele>641.1</ele>
        <time>2024-03-13T17:18:48.000Z</time>
      </trkpt>
      <trkpt lat="43.67398" lon="6.16673">
        <ele>640.8</ele>
        <time>2024-03-13T17:18:52.000Z</time>
      </trkpt>
      <trkpt lat="43.67398" lon="6.16665">
        <ele>640.5</ele>
        <time>2024-03-13T17:18:56.000Z</time>
      </trkpt>
      <trkpt lat="43.67398" lon="6.16657">
        <ele>640.3</ele>
        <time>2024-03-13T17:19:00.000Z</time>
      </trkpt>
      <trkpt lat="43.67397" lon="6.16649">
        <ele>640.1</ele>
        <time>2024-03-13T17:19:04.000Z</time>
      </trkpt>
      <trkpt lat="43.67397" lon="6.16642">
        <ele>639.9</ele>
        <time>2024-03-13T17:19:08.000Z</time>
      </trkpt>
      <trkpt lat="43.67396" lon="6.16634">
        <ele>639.6</ele>
        <time>2024-03-13T17:19:12.000Z</time>
      </trkpt>
      <trkpt lat="43.67395" lon="6.16627">
        <ele>639.2</ele>
        <time>2024-03-13T17:19:16.000Z</time>
      </trkpt>
      <trkpt lat="43.67394" lon="6.16619">
        <ele>638.9</ele>
        <time>2024-03-13T17:19:20.000Z</time>
      </trkpt>
      <trkpt lat="43.67394" lon="6.16612">
        <ele>638.6</ele>
        <time>2024-03-13T17:19:24.000Z</time>
      </trkpt>
      <trkpt lat="43.67393" lon="6.16605">
        <ele>638.4</ele>
        <time>2024-03-13T17:19:28.000Z</time>
      </trkpt>
      <trkpt lat="43.67393" lon="6.16597">
        <ele>638.1</ele>
        <time>2024-03-13T17:19:32.000Z</time>
      </trkpt>
      <trkpt lat="43.67392" lon="6.1659">
        <ele>637.8</ele>
        <time>2024-03-13T17:19:36.000Z</time>
      </trkpt>
      <trkpt lat="43.67391" lon="6.16583">
        <ele>637.5</ele>
        <time>2024-03-13T17:19:40.000Z</time>
      </trkpt>
      <trkpt lat="43.6739" lon="6.16575">
        <ele>637.4</ele>
        <time>2024-03-13T17:19:44.000Z</time>
      </trkpt>
      <trkpt lat="43.67389" lon="6.16567">
        <ele>637.2</ele>
        <time>2024-03-13T17:19:48.000Z</time>
      </trkpt>
      <trkpt lat="43.67387" lon="6.1656">
        <ele>636.8</ele>
        <time>2024-03-13T17:19:52.000Z</time>
      </trkpt>
      <trkpt lat="43.67385" lon="6.16553">
        <ele>636.5</ele>
        <time>2024-03-13T17:19:56.000Z</time>
      </trkpt>
      <trkpt lat="43.67384" lon="6.16547">
        <ele>636.1</ele>
        <time>2024-03-13T17:20:00.000Z</time>
      </trkpt>
      <trkpt lat="43.67382" lon="6.1654">
        <ele>635.8</ele>
        <time>2024-03-13T17:20:05.000Z</time>
      </trkpt>
      <trkpt lat="43.6738" lon="6.16534">
        <ele>635.6</ele>
        <time>2024-03-13T17:20:08.000Z</time>
      </trkpt>
      <trkpt lat="43.67378" lon="6.16528">
        <ele>635.4</ele>
        <time>2024-03-13T17:20:12.000Z</time>
      </trkpt>
      <trkpt lat="43.67375" lon="6.16523">
        <ele>635.2</ele>
        <time>2024-03-13T17:20:16.000Z</time>
      </trkpt>
      <trkpt lat="43.67372" lon="6.16517">
        <ele>635.1</ele>
        <time>2024-03-13T17:20:20.000Z</time>
      </trkpt>
      <trkpt lat="43.6737" lon="6.16511">
        <ele>635</ele>
        <time>2024-03-13T17:20:24.000Z</time>
      </trkpt>
      <trkpt lat="43.67366" lon="6.16505">
        <ele>634.8</ele>
        <time>2024-03-13T17:20:29.000Z</time>
      </trkpt>
      <trkpt lat="43.67363" lon="6.165">
        <ele>634.7</ele>
        <time>2024-03-13T17:20:34.000Z</time>
      </trkpt>
      <trkpt lat="43.67361" lon="6.16494">
        <ele>634.6</ele>
        <time>2024-03-13T17:20:39.000Z</time>
      </trkpt>
      <trkpt lat="43.67363" lon="6.16488">
        <ele>633.7</ele>
        <time>2024-03-13T17:21:15.000Z</time>
      </trkpt>
      <trkpt lat="43.67366" lon="6.16482">
        <ele>633.4</ele>
        <time>2024-03-13T17:22:37.000Z</time>
      </trkpt>
      <trkpt lat="43.67367" lon="6.16475">
        <ele>633.2</ele>
        <time>2024-03-13T17:23:02.000Z</time>
      </trkpt>
      <trkpt lat="43.6737" lon="6.1647">
        <ele>633.2</ele>
        <time>2024-03-13T17:23:07.000Z</time>
      </trkpt>
      <trkpt lat="43.67374" lon="6.16465">
        <ele>633.2</ele>
        <time>2024-03-13T17:23:11.000Z</time>
      </trkpt>
      <trkpt lat="43.67378" lon="6.1646">
        <ele>633.2</ele>
        <time>2024-03-13T17:23:15.000Z</time>
      </trkpt>
      <trkpt lat="43.67381" lon="6.16456">
        <ele>633.1</ele>
        <time>2024-03-13T17:23:19.000Z</time>
      </trkpt>
      <trkpt lat="43.67385" lon="6.16451">
        <ele>633</ele>
        <time>2024-03-13T17:23:23.000Z</time>
      </trkpt>
      <trkpt lat="43.67389" lon="6.16447">
        <ele>632.9</ele>
        <time>2024-03-13T17:23:27.000Z</time>
      </trkpt>
      <trkpt lat="43.67393" lon="6.16442">
        <ele>632.7</ele>
        <time>2024-03-13T17:23:31.000Z</time>
      </trkpt>
      <trkpt lat="43.67397" lon="6.16438">
        <ele>632.6</ele>
        <time>2024-03-13T17:23:35.000Z</time>
      </trkpt>
      <trkpt lat="43.67401" lon="6.16433">
        <ele>632.2</ele>
        <time>2024-03-13T17:23:39.000Z</time>
      </trkpt>
      <trkpt lat="43.67405" lon="6.16429">
        <ele>632</ele>
        <time>2024-03-13T17:23:43.000Z</time>
      </trkpt>
      <trkpt lat="43.6741" lon="6.16425">
        <ele>631.9</ele>
        <time>2024-03-13T17:23:47.000Z</time>
      </trkpt>
      <trkpt lat="43.67414" lon="6.16421">
        <ele>631.8</ele>
        <time>2024-03-13T17:23:51.000Z</time>
      </trkpt>
      <trkpt lat="43.67417" lon="6.16416">
        <ele>631.8</ele>
        <time>2024-03-13T17:23:54.000Z</time>
      </trkpt>
      <trkpt lat="43.67418" lon="6.1641">
        <ele>631.8</ele>
        <time>2024-03-13T17:23:57.000Z</time>
      </trkpt>
      <trkpt lat="43.6742" lon="6.16403">
        <ele>631.7</ele>
        <time>2024-03-13T17:24:01.000Z</time>
      </trkpt>
      <trkpt lat="43.67419" lon="6.16396">
        <ele>631.6</ele>
        <time>2024-03-13T17:24:05.000Z</time>
      </trkpt>
      <trkpt lat="43.67419" lon="6.16388">
        <ele>631.3</ele>
        <time>2024-03-13T17:24:10.000Z</time>
      </trkpt>
      <trkpt lat="43.67419" lon="6.16381">
        <ele>630.9</ele>
        <time>2024-03-13T17:24:14.000Z</time>
      </trkpt>
      <trkpt lat="43.6742" lon="6.16374">
        <ele>630.7</ele>
        <time>2024-03-13T17:24:18.000Z</time>
      </trkpt>
      <trkpt lat="43.67422" lon="6.16366">
        <ele>630.5</ele>
        <time>2024-03-13T17:24:22.000Z</time>
      </trkpt>
      <trkpt lat="43.67424" lon="6.16359">
        <ele>630.3</ele>
        <time>2024-03-13T17:24:26.000Z</time>
      </trkpt>
      <trkpt lat="43.67427" lon="6.16352">
        <ele>630.2</ele>
        <time>2024-03-13T17:24:30.000Z</time>
      </trkpt>
      <trkpt lat="43.67429" lon="6.16345">
        <ele>630</ele>
        <time>2024-03-13T17:24:34.000Z</time>
      </trkpt>
      <trkpt lat="43.67431" lon="6.16338">
        <ele>629.8</ele>
        <time>2024-03-13T17:24:38.000Z</time>
      </trkpt>
      <trkpt lat="43.67432" lon="6.1633">
        <ele>629.6</ele>
        <time>2024-03-13T17:24:42.000Z</time>
      </trkpt>
      <trkpt lat="43.67433" lon="6.16323">
        <ele>629.3</ele>
        <time>2024-03-13T17:24:46.000Z</time>
      </trkpt>
      <trkpt lat="43.67434" lon="6.16315">
        <ele>629.2</ele>
        <time>2024-03-13T17:24:50.000Z</time>
      </trkpt>
      <trkpt lat="43.67435" lon="6.16307">
        <ele>629</ele>
        <time>2024-03-13T17:24:54.000Z</time>
      </trkpt>
      <trkpt lat="43.67436" lon="6.163">
        <ele>628.8</ele>
        <time>2024-03-13T17:24:58.000Z</time>
      </trkpt>
      <trkpt lat="43.67436" lon="6.16292">
        <ele>628.4</ele>
        <time>2024-03-13T17:25:02.000Z</time>
      </trkpt>
      <trkpt lat="43.67437" lon="6.16285">
        <ele>628.1</ele>
        <time>2024-03-13T17:25:06.000Z</time>
      </trkpt>
      <trkpt lat="43.67437" lon="6.16278">
        <ele>627.9</ele>
        <time>2024-03-13T17:25:10.000Z</time>
      </trkpt>
      <trkpt lat="43.67437" lon="6.1627">
        <ele>627.7</ele>
        <time>2024-03-13T17:25:14.000Z</time>
      </trkpt>
      <trkpt lat="43.67436" lon="6.16263">
        <ele>627.6</ele>
        <time>2024-03-13T17:25:18.000Z</time>
      </trkpt>
      <trkpt lat="43.67435" lon="6.16257">
        <ele>627.3</ele>
        <time>2024-03-13T17:25:22.000Z</time>
      </trkpt>
      <trkpt lat="43.67434" lon="6.16251">
        <ele>626.9</ele>
        <time>2024-03-13T17:25:26.000Z</time>
      </trkpt>
      <trkpt lat="43.67433" lon="6.16244">
        <ele>626.8</ele>
        <time>2024-03-13T17:25:29.000Z</time>
      </trkpt>
      <trkpt lat="43.67431" lon="6.16237">
        <ele>626.4</ele>
        <time>2024-03-13T17:25:33.000Z</time>
      </trkpt>
      <trkpt lat="43.67429" lon="6.1623">
        <ele>626.1</ele>
        <time>2024-03-13T17:25:37.000Z</time>
      </trkpt>
      <trkpt lat="43.67425" lon="6.16224">
        <ele>625.9</ele>
        <time>2024-03-13T17:25:41.000Z</time>
      </trkpt>
      <trkpt lat="43.67422" lon="6.16218">
        <ele>625.6</ele>
        <time>2024-03-13T17:25:45.000Z</time>
      </trkpt>
      <trkpt lat="43.67421" lon="6.16211">
        <ele>625.3</ele>
        <time>2024-03-13T17:25:49.000Z</time>
      </trkpt>
      <trkpt lat="43.67421" lon="6.16203">
        <ele>625.1</ele>
        <time>2024-03-13T17:25:53.000Z</time>
      </trkpt>
      <trkpt lat="43.67421" lon="6.16196">
        <ele>624.9</ele>
        <time>2024-03-13T17:25:56.000Z</time>
      </trkpt>
      <trkpt lat="43.67423" lon="6.1619">
        <ele>624.7</ele>
        <time>2024-03-13T17:25:59.000Z</time>
      </trkpt>
      <trkpt lat="43.67424" lon="6.16183">
        <ele>624.5</ele>
        <time>2024-03-13T17:26:03.000Z</time>
      </trkpt>
      <trkpt lat="43.67426" lon="6.16176">
        <ele>624.3</ele>
        <time>2024-03-13T17:26:07.000Z</time>
      </trkpt>
      <trkpt lat="43.67428" lon="6.16168">
        <ele>624.1</ele>
        <time>2024-03-13T17:26:11.000Z</time>
      </trkpt>
      <trkpt lat="43.67429" lon="6.16161">
        <ele>623.9</ele>
        <time>2024-03-13T17:26:15.000Z</time>
      </trkpt>
      <trkpt lat="43.67428" lon="6.16154">
        <ele>623.7</ele>
        <time>2024-03-13T17:26:19.000Z</time>
      </trkpt>
      <trkpt lat="43.67427" lon="6.16147">
        <ele>623.4</ele>
        <time>2024-03-13T17:26:23.000Z</time>
      </trkpt>
      <trkpt lat="43.67425" lon="6.16141">
        <ele>623.1</ele>
        <time>2024-03-13T17:26:27.000Z</time>
      </trkpt>
      <trkpt lat="43.67423" lon="6.16134">
        <ele>622.8</ele>
        <time>2024-03-13T17:26:31.000Z</time>
      </trkpt>
      <trkpt lat="43.67419" lon="6.16128">
        <ele>622.6</ele>
        <time>2024-03-13T17:26:35.000Z</time>
      </trkpt>
      <trkpt lat="43.67416" lon="6.16122">
        <ele>622.5</ele>
        <time>2024-03-13T17:26:39.000Z</time>
      </trkpt>
      <trkpt lat="43.67412" lon="6.16116">
        <ele>622.4</ele>
        <time>2024-03-13T17:26:43.000Z</time>
      </trkpt>
      <trkpt lat="43.67409" lon="6.1611">
        <ele>622.3</ele>
        <time>2024-03-13T17:26:47.000Z</time>
      </trkpt>
      <trkpt lat="43.67407" lon="6.16104">
        <ele>622.2</ele>
        <time>2024-03-13T17:26:51.000Z</time>
      </trkpt>
      <trkpt lat="43.67404" lon="6.16098">
        <ele>622</ele>
        <time>2024-03-13T17:26:55.000Z</time>
      </trkpt>
      <trkpt lat="43.67401" lon="6.16091">
        <ele>621.8</ele>
        <time>2024-03-13T17:26:59.000Z</time>
      </trkpt>
      <trkpt lat="43.67398" lon="6.16085">
        <ele>621.7</ele>
        <time>2024-03-13T17:27:03.000Z</time>
      </trkpt>
      <trkpt lat="43.67396" lon="6.16078">
        <ele>621.5</ele>
        <time>2024-03-13T17:27:07.000Z</time>
      </trkpt>
      <trkpt lat="43.67393" lon="6.16072">
        <ele>621.3</ele>
        <time>2024-03-13T17:27:11.000Z</time>
      </trkpt>
      <trkpt lat="43.67391" lon="6.16066">
        <ele>621</ele>
        <time>2024-03-13T17:27:15.000Z</time>
      </trkpt>
      <trkpt lat="43.67388" lon="6.1606">
        <ele>620.9</ele>
        <time>2024-03-13T17:27:19.000Z</time>
      </trkpt>
      <trkpt lat="43.67385" lon="6.16055">
        <ele>620.6</ele>
        <time>2024-03-13T17:27:23.000Z</time>
      </trkpt>
      <trkpt lat="43.67381" lon="6.1605">
        <ele>620.5</ele>
        <time>2024-03-13T17:27:27.000Z</time>
      </trkpt>
      <trkpt lat="43.67378" lon="6.16045">
        <ele>620.4</ele>
        <time>2024-03-13T17:27:31.000Z</time>
      </trkpt>
      <trkpt lat="43.67374" lon="6.16041">
        <ele>620.3</ele>
        <time>2024-03-13T17:27:35.000Z</time>
      </trkpt>
      <trkpt lat="43.67371" lon="6.16036">
        <ele>620.2</ele>
        <time>2024-03-13T17:27:40.000Z</time>
      </trkpt>
      <trkpt lat="43.67368" lon="6.16031">
        <ele>619.6</ele>
        <time>2024-03-13T17:27:48.000Z</time>
      </trkpt>
      <trkpt lat="43.67368" lon="6.16032">
        <ele>619</ele>
        <time>2024-03-13T17:28:00.000Z</time>
      </trkpt>
    </trkseg>
  </trk>
</gpx>